     2              OBSERVATION DATA    GPS                 RINEX VERSION / TYPE
ASHTORIN 02 - MAR - 99 11:27                                PGM / RUN BY / DATE
                                                            COMMENT
Original Marker Name: alam5                                 COMMENT
Campaign Name: oldbeach 99                                  COMMENT
4-Character Station Name: ALM5                              COMMENT
6-Character Antenna Code: DMRCHT                            COMMENT
Vertical Measurement Point: BCR                             COMMENT
Vertical Offset to Rinex Ref. Point: 0.0349                 COMMENT
Radial Measurement Point: ECF                               COMMENT
Radial Offset to Rinex Ref. Point: 0.1896                   COMMENT
Antenna Height from Field Measurement: 0.8490 m             COMMENT
Additional Antenna Identification Info.:                    COMMENT
Turborogue and Ashtech Choke Ring                           COMMENT
The main mark called Alamo on this hill has been            COMMENT
destroyed.                                                  COMMENT
Original XYZ: 0.0000 0.0000 0.0000                          COMMENT
New XYZ position is based on association with SCEC monument COMMENT
E1D0I4P2+0051. Position of that monument is believed to be  COMMENT
valid to within 1 m horizontally; vertical accuracy         COMMENT
should be no worse than 3-times this value.                 COMMENT
                                                            COMMENT
Revised Rinex header created by UCSD GPS archive for        COMMENT
GSAC on 31-Aug-1999 (1999:243) 02:35:06 GMT                 COMMENT
For assistance contact dagnew@ucsd.edu or hjohnson@ucsd.edu COMMENT
                                                            COMMENT
ALAMO 5 REFERENCE                                           MARKER NAME
                                                            MARKER NUMBER
SJB SCRIPPS INSTITUTION OF OCEANOGRAPHY                     OBSERVER / AGENCY
1389 ASHTECH Z12-XII3 1F501D0                               REC # / TYPE / VERS
12738 DORNE-MARGOL. TYPE T                                  ANT # / TYPE
 -2309363.0000 -4817601.0000  3472175.0000                  APPROX POSITION XYZ
        0.7927        0.0000        0.0000                  ANTENNA: DELTA H/E/N
     1     1     0                                          WAVELENGTH FACT L1/2
     7    L1    L2    C1    P1    P2    D1    D2            # / TYPES OF OBSERV
    30                                                      INTERVAL
  1999     2    18     0     0   30.000000                  TIME OF FIRST OBS
  1999     2    18    16    43    0.000000                  TIME OF LAST OBS
                                                            END OF HEADER
 99  2 18  0  0 30.0000000  0  8 24  4  8  7 30  9  5 10             0.000000000
 -27399378.044 9 -19284642.86549  20250834.505    20250834.4794   20250842.3794
        -0.000          -0.000
 -21286839.986 9 -13930197.73748  21301931.421    21301931.7404   21301939.2184
        -0.000          -0.000
 -19696931.297 9 -15061970.21248  21538743.446    21538743.0984   21538751.5944
        -0.000          -0.000
   6512693.333 9   5088231.87045  23852264.911    23852264.3114   23852275.7864
        -0.000          -0.000
  -9859246.920 9  -6976263.83946  23799221.803    23799222.2214   23799232.1784
        -0.000          -0.000
 -18525639.747 9 -12236538.79048  22065968.759    22065968.7384   22065977.2514
        -0.000          -0.000
 -24958441.707 9 -19059037.27548  20920990.817    20920990.4504   20920998.0574
        -0.000          -0.000
 -10593788.169 9  -7019942.24746  23571364.808    23571364.2244   23571376.7874
        -0.000          -0.000
 99  2 18  0  1  0.0000000  0  8 24  4  8  7 30  9  5 10             0.000000015
 -27412482.704 9 -19294854.25349  20248340.715    20248340.6954   20248348.5824
        -0.000          -0.000
 -21216972.028 9 -13875755.18948  21315226.848    21315227.1854   21315234.6834
        -0.000          -0.000
 -19697391.962 9 -15062329.15948  21538655.831    21538655.4694   21538663.9484
        -0.000          -0.000
   6578328.535 9   5139376.16845  23864754.822    23864754.3144   23864765.7454
        -0.000          -0.000
  -9958203.804 9  -7053372.96846  23780390.922    23780391.3684   23780401.2174
        -0.000          -0.000
 -18460681.041 9 -12185921.62748  22078330.050    22078330.0304   22078338.4834
        -0.000          -0.000
 -25013631.060 9 -19102041.92948  20910488.577    20910488.2204   20910495.8144
        -0.000          -0.000
 -10688522.861 9  -7093761.21546  23553337.176    23553336.5454   23553349.0694
        -0.000          -0.000
 99  2 18  0  1 30.0000000  0  8 24  4  8  7 30  9  5 10             0.000000017
 -27425104.093 9 -19304689.06749  20245938.949    20245938.9284   20245946.8094
        -0.000          -0.000
 -21146750.581 9 -13821037.20348  21328589.559    21328589.8944   21328597.3764
        -0.000          -0.000
 -19697237.142 9 -15062208.51548  21538685.312    21538684.9294   21538693.3974
        -0.000          -0.000
   6643964.533 9   5190521.07245  23877244.993    23877244.3964   23877255.6834
        -0.000          -0.000
 -10057113.309 9  -7130445.17146  23761569.016    23761569.4184   23761579.2694
        -0.000          -0.000
 -18395391.501 9 -12135046.66948  22090754.293    22090754.2594   22090762.7274
        -0.000          -0.000
 -25068515.878 9 -19144809.28248  20900044.335    20900043.9714   20900051.5624
        -0.000          -0.000
 -10783227.458 9  -7167556.74046  23535315.306    23535314.6324   23535327.0574
        -0.000          -0.000
 99  2 18  0  2  0.0000000  0  8 24  4  8  7 30  9  5 10             0.000000026
 -27437209.363 9 -19314121.71049  20243635.371    20243635.3634   20243643.2294
        -0.000          -0.000
 -21076136.823 9 -13766013.51148  21342026.956    21342027.2724   21342034.7274
        -0.000          -0.000
 -19696429.229 9 -15061578.96448  21538839.007    21538838.6524   21538847.0874
        -0.000          -0.000
   6709632.945 8   5241691.24345  23889741.313    23889740.5774   23889751.9594
        -0.000          -0.000
 -10155939.880 9  -7207452.70946  23742762.703    23742763.1474   23742773.1124
        -0.000          -0.000
 -18329724.204 9 -12083877.35648  22103250.349    22103250.3184   22103258.7824
        -0.000          -0.000
 -25123070.420 9 -19187319.27349  20889662.912    20889662.5484   20889670.1324
        -0.000          -0.000
 -10877862.952 9  -7241298.40146  23517306.580    23517305.8894   23517318.3374
        -0.000          -0.000
 99  2 18  0  2 30.0000000  0  8 24  4  8  7 30  9  5 10             0.000000033
 -27448815.443 9 -19323165.37149  20241426.802    20241426.7924   20241434.6464
        -0.000          -0.000
 -21005160.622 9 -13710707.40248  21355533.242    21355533.5924   21355541.0484
        -0.000          -0.000
 -19695011.466 9 -15060474.20448  21539108.779    21539108.4364   21539116.8484
        -0.000          -0.000
   6775307.016 9   5292865.82945  23902238.564    23902238.0254   23902249.3784
        -0.000          -0.000
 -10254700.671 9  -7284409.01046  23723969.043    23723969.4384   23723979.4324
        -0.000          -0.000
 -18263685.696 9 -12032418.78748  22115817.064    22115817.0484   22115825.4854
        -0.000          -0.000
 -25177317.208 9 -19229589.45749  20879340.080    20879339.7144   20879347.2874
        -0.000          -0.000
 -10972433.611 9  -7314989.55846  23499310.144    23499309.5374   23499321.8604
        -0.000          -0.000
 99  2 18  0  3  0.0000000  0  8 24  4  8  7 30  9  5 10             0.000000033
 -27459948.074 9 -19331840.11749  20239308.345    20239308.3184   20239316.1614
        -0.000          -0.000
 -20933854.818 9 -13655144.45948  21369102.353    21369102.6584   21369110.1104
        -0.000          -0.000
 -19693022.089 9 -15058924.03548  21539487.356    21539486.9944   21539495.4114
        -0.000          -0.000
   6840959.393 9   5344023.50145  23914731.811    23914731.2664   23914742.5204
        -0.000          -0.000
 -10353400.318 9  -7361317.74346  23705187.175    23705187.5104   23705197.1824
        -0.000          -0.000
 -18197303.354 9 -11980692.29648  22128449.174    22128449.1834   22128457.6314
        -0.000          -0.000
 -25231282.812 9 -19271640.54149  20869070.721    20869070.3534   20869077.9144
        -0.000          -0.000
 -11066939.723 9  -7388630.40346  23481326.010    23481325.4084   23481337.5454
        -0.000          -0.000
 99  2 18  0  3 30.0000000  0  8 24  4  8  7 30  9  5 10             0.000000034
 -27470599.622 9 -19340139.98449  20237281.393    20237281.3624   20237289.2164
        -0.000          -0.000
 -20862224.525 9 -13599328.66648  21382733.119    21382733.4814   21382740.9104
        -0.000          -0.000
 -19690452.798 9 -15056921.98548  21539976.276    21539975.9054   21539984.3304
        -0.000          -0.000
   6906616.530 8   5395184.87445  23927226.083    23927225.4464   23927236.8214
        -0.000          -0.000
 -10452037.893 9  -7438178.08146  23686416.984    23686417.3754   23686426.8214
        -0.000          -0.000
 -18130584.250 9 -11928703.39348  22141145.454    22141145.4644   22141153.8864
        -0.000          -0.000
 -25284952.047 9 -19313460.68349  20858857.805    20858857.4444   20858864.9774
        -0.000          -0.000
 -11161363.544 9  -7462207.14146  23463357.521    23463356.9064   23463368.9744
        -0.000          -0.000
 99  2 18  0  4  0.0000000  0  8 24  4  8  7 30  9  5 10             0.000000034
 -27480768.124 9 -19348063.45449  20235346.343    20235346.3314   20235354.1554
        -0.000          -0.000
 -20790281.092 9 -13543268.87048  21396423.524    21396423.8644   21396431.3034
        -0.000          -0.000
 -19687305.717 9 -15054469.70648  21540575.128    21540574.7514   21540583.2004
        -0.000          -0.000
   6972298.431 9   5446365.54445  23939724.961    23939724.3434   23939735.6504
        -0.000          -0.000
 -10550624.758 9  -7514998.83446  23667656.306    23667656.7524   23667666.3484
        -0.000          -0.000
 -18063525.483 9 -11876449.82048  22153906.324    22153906.3304   22153914.7774
        -0.000          -0.000
 -25338306.172 9 -19355035.28649  20848704.794    20848704.4324   20848711.9834
        -0.000          -0.000
 -11255709.488 9  -7535723.17346  23445403.977    23445403.3754   23445415.3364
        -0.000          -0.000
 99  2 18  0  4 30.0000000  0  8 24  4  8  7 30  9  5 10             0.000000028
 -27490432.296 9 -19355593.94349  20233507.272    20233507.2554   20233515.0704
        -0.000          -0.000
 -20718016.920 9 -13486959.15448  21410174.966    21410175.3244   21410182.7454
        -0.000          -0.000
 -19683570.788 9 -15051559.37248  21541285.805    21541285.4394   21541293.9074
        -0.000          -0.000
   7038014.088 8   5497572.51445  23952230.171    23952229.6274   23952240.8674
        -0.000          -0.000
 -10649153.600 9  -7591774.35446  23648906.668    23648907.1424   23648916.9784
        -0.000          -0.000
 -17996129.137 9 -11823933.20648  22166731.431    22166731.4314   22166739.9314
        -0.000          -0.000
 -25391321.306 9 -19396345.74249  20838616.331    20838615.9664   20838623.4814
        -0.000          -0.000
 -11349975.045 9  -7609176.57146  23427465.644    23427464.9944   23427476.8754
        -0.000          -0.000
 99  2 18  0  5  0.0000000  0  8 24  4  8  7 30  9  5 10             0.000000021
 -27499565.389 9 -19362710.60149  20231769.235    20231769.2184   20231777.0354
        -0.000          -0.000
 -20645411.959 9 -13430383.87548  21423991.245    21423991.5894   21423999.0174
        -0.000          -0.000
 -19679209.639 9 -15048161.06948  21542115.657    21542115.2944   21542123.7714
        -0.000          -0.000
   7103782.566 8   5548820.64045  23964745.383    23964744.8024   23964756.1554
        -0.000          -0.000
 -10747610.593 9  -7668493.96246  23630170.940    23630171.3824   23630181.0184
        -0.000          -0.000
 -17928380.957 9 -11771142.43048  22179623.543    22179623.5364   22179632.0254
        -0.000          -0.000
 -25443968.052 9 -19437369.13649  20828597.929    20828597.5824   20828605.0994
        -0.000          -0.000
 -11444154.862 9  -7682563.16046  23409543.591    23409542.9614   23409554.7414
        -0.000          -0.000
 99  2 18  0  5 30.0000000  0  8 24  4  8  7 30  9  5 10             0.000000007
 -27508163.686 9 -19369410.53449  20230133.010    20230133.0004   20230140.7974
        -0.000          -0.000
 -20572457.611 9 -13373536.35048  21437874.013    21437874.3484   21437881.7914
        -0.000          -0.000
 -19674218.876 9 -15044272.15848  21543065.309    21543064.9464   21543073.4104
        -0.000          -0.000
   7169602.271 8   5600108.66745  23977270.497    23977269.9814   23977281.3354
        -0.000          -0.000
 -10845999.598 9  -7745160.61646  23611448.107    23611448.5944   23611457.8754
        -0.000          -0.000
 -17860273.973 9 -11718072.07748  22192583.909    22192583.8944   22192592.3914
        -0.000          -0.000
 -25496231.403 9 -19478093.78549  20818652.548    20818652.1774   20818659.6644
        -0.000          -0.000
 -11538248.616 9  -7755882.67146  23391637.886    23391637.2974   23391649.0804
        -0.000          -0.000
 99  2 18  0  6  0.0000000  0  8 24  4  8  7 30  9  5 10            -0.000000006
 -27516213.538 9 -19375683.11049  20228601.151    20228601.1414   20228608.9154
        -0.000          -0.000
 -20499146.955 9 -13316411.17848  21451824.526    21451824.8714   21451832.3214
        -0.000          -0.000
 -19668599.020 9 -15039893.04548  21544134.673    21544134.3164   21544142.8054
        -0.000          -0.000
   7235468.607 8   5651433.04445  23989804.517    23989804.1044   23989815.2574
        -0.000          -0.000
 -10944294.904 9  -7821754.21746  23592742.932    23592743.4034   23592752.6644
        -0.000          -0.000
 -17791786.611 9 -11664705.32848  22205616.632    22205616.6514   22205625.1354
        -0.000          -0.000
 -25548100.852 9 -19518511.49749  20808782.073    20808781.7404   20808789.2054
        -0.000          -0.000
 -11632236.428 9  -7829119.65546  23373752.388    23373751.7394   23373763.5184
        -0.000          -0.000
 99  2 18  0  6 30.0000000  0  8 24  4  8  7 30  9  5 10            -0.000000015
 -27523722.951 9 -19381534.56749  20227172.132    20227172.1104   20227179.8854
        -0.000          -0.000
 -20425494.080 9 -13259019.34948  21465840.218    21465840.5684   21465848.0054
        -0.000          -0.000
 -19662355.159 9 -15035027.69748  21545322.841    21545322.4934   21545330.9764
        -0.000          -0.000
   7301363.833 9   5702779.92345  24002344.016    24002343.6634   24002354.8134
        -0.000          -0.000
 -11042487.555 9  -7898267.80246  23574057.183    23574057.6694   23574067.2674
        -0.000          -0.000
 -17722935.424 9 -11611055.08248  22218718.603    22218718.6114   22218727.1124
        -0.000          -0.000
 -25599596.578 9 -19558637.99249  20798982.719    20798982.3744   20798989.8554
        -0.000          -0.000
 -11726112.058 9  -7902269.23346  23355888.321    23355887.6364   23355899.3334
        -0.000          -0.000
 99  2 18  0  7  0.0000000  0  8 24  4  8  7 30  9  5 10             0.000000001
 -27530673.749 9 -19386950.74049  20225849.409    20225849.4064   20225857.1474
        -0.000          -0.000
 -20351479.045 9 -13201345.31748  21479924.802    21479925.1774   21479932.6224
        -0.000          -0.000
 -19655474.418 9 -15029666.07548  21546632.222    21546631.8574   21546640.3434
        -0.000          -0.000
   7367315.863 8   5754171.05645  24014894.393    24014894.0044   24014905.2024
        -0.000          -0.000
 -11140551.737 9  -7974681.30246  23555396.157    23555396.5884   23555406.2714
        -0.000          -0.000
 -17653707.107 9 -11557110.96548  22231892.254    22231892.2714   22231900.8244
        -0.000          -0.000
 -25650711.648 9 -19598467.87649  20789255.818    20789255.4784   20789262.9414
        -0.000          -0.000
 -11819832.879 9  -7975298.18346  23338053.673    23338052.9834   23338064.5614
        -0.000          -0.000
 99  2 18  0  7 30.0000000  0  8 24  4  8  7 30  9  5 10             0.000000009
 -27537132.030 9 -19391983.13349  20224620.406    20224620.3874   20224628.1404
        -0.000          -0.000
 -20277161.167 9 -13143435.30248  21494067.078    21494067.4074   21494074.8504
        -0.000          -0.000
 -19648023.366 9 -15023860.05548  21548050.145    21548049.7754   21548058.2554
        -0.000          -0.000
   7433265.301 8   5805560.18145  24027444.210    24027443.8264   24027455.0834
        -0.000          -0.000
 -11238542.109 9  -8051037.29146  23536749.242    23536749.6484   23536759.2154
        -0.000          -0.000
 -17584164.617 9 -11502922.03947  22245125.756    22245125.7904   22245134.3534
        -0.000          -0.000
 -25701504.951 9 -19638047.02749  20779590.142    20779589.7894   20779597.2424
        -0.000          -0.000
 -11913440.671 9  -8048239.06346  23320240.474    23320239.7644   23320251.2674
        -0.000          -0.000
 99  2 18  0  8  0.0000000  0  8 24  4  8  7 30  9  5 10             0.000000028
 -27543071.968 9 -19396611.62249  20223490.025    20223490.0194   20223497.7734
        -0.000          -0.000
 -20202512.181 9 -13085267.27748  21508272.355    21508272.6934   21508280.1324
        -0.000          -0.000
 -19639956.940 9 -15017574.51948  21549585.138    21549584.7834   21549593.2754
        -0.000          -0.000
   7499245.607 8   5856973.34645  24039999.851    24039999.4054   24040010.6424
        -0.000          -0.000
 -11336434.444 9  -8127316.93246  23518120.803    23518121.2744   23518130.6464
        -0.000          -0.000
 -17514277.043 9 -11448464.22147  22258424.948    22258424.9634   22258433.5174
        -0.000          -0.000
 -25751942.573 9 -19677349.02149  20769992.153    20769991.8044   20769999.2604
        -0.000          -0.000
 -12006902.843 9  -8121066.49146  23302455.018    23302454.2774   23302465.7924
        -0.000          -0.000
 99  2 18  0  8 30.0000000  0  8 24  4  8  7 30  9  5 10             0.000000044
 -27548515.026 9 -19400852.93849  20222454.238    20222454.2164   20222461.9654
        -0.000          -0.000
 -20127543.788 9 -13026850.36748  21522538.386    21522538.7074   21522546.1564
        -0.000          -0.000
 -19631292.615 9 -15010823.08948  21551233.927    21551233.5324   21551242.0374
        -0.000          -0.000
   7565237.466 8   5908395.50745  24052557.826    24052557.3124   24052568.6094
        -0.000          -0.000
 -11434251.601 9  -8203537.96346  23499506.567    23499506.9904   23499516.4634
        -0.000          -0.000
 -17444078.054 9 -11393763.73647  22271783.384    22271783.3854   22271791.9594
        -0.000          -0.000
 -25802043.278 9 -19716388.48949  20760458.305    20760457.9444   20760465.3554
        -0.000          -0.000
 -12100231.216 9  -8193789.65746  23284694.943    23284694.2824   23284705.7064
        -0.000          -0.000
 99  2 18  0  9  0.0000000  0  8 24  4  8  7 30  9  5 10             0.000000048
 -27553467.034 9 -19404711.62449  20221511.876    20221511.8494   20221519.5974
        -0.000          -0.000
 -20052262.953 9 -12968189.99348  21536863.862    21536864.1694   21536871.6494
        -0.000          -0.000
 -19622033.922 9 -15003608.51448  21552995.799    21552995.4224   21553003.9364
        -0.000          -0.000
   7631239.061 8   5959825.26445  24065117.475    24065117.0564   24065128.4344
        -0.000          -0.000
 -11532009.575 9  -8279712.87946  23480903.788    23480904.2084   23480913.6714
        -0.000          -0.000
 -17373568.479 9 -11338821.23547  22285200.919    22285200.9264   22285209.4754
        -0.000          -0.000
 -25851793.911 9 -19755155.17449  20750991.017    20750990.6684   20750998.0804
        -0.000          -0.000
 -12193431.616 9  -8266413.13946  23266959.323    23266958.7204   23266969.9534
        -0.000          -0.000
 99  2 18  0  9 30.0000000  0  9 24  4  8  7 30  9  5  6 10          0.000000056
 -27557960.799 9 -19408213.23549  20220656.691    20220656.6714   20220664.4074
        -0.000          -0.000
 -19976700.622 9 -12909310.26848  21551242.917    21551243.2354   21551250.7064
        -0.000          -0.000
 -19612190.936 9 -14995938.64648  21554868.831    21554868.4554   21554876.9604
        -0.000          -0.000
   7697227.728 8   6011244.95745  24077674.781    24077674.4034   24077685.7074
        -0.000          -0.000
 -11629732.535 9  -8355860.50946  23462307.727    23462308.0534   23462317.5684
        -0.000          -0.000
 -17302759.679 9 -11283645.57447  22298675.364    22298675.3784   22298683.9084
        -0.000          -0.000
 -25901192.929 9 -19793647.87649  20741590.681    20741590.3264   20741597.7314
        -0.000          -0.000
  -5844267.511 8  -4537146.04945  24866022.010    24866022.0514   24866034.5284
        -0.000          -0.000
 -12286542.966 9  -8338967.20846  23249240.654    23249240.0564   23249251.2674
        -0.000          -0.000
 99  2 18  0 10  0.0000000  0  9 24  4  8  7 30  9  5  6 10          0.000000037
 -27561942.488 9 -19411315.82449  20219898.961    20219898.9454   20219906.6714
        -0.000          -0.000
 -19900812.445 9 -12850176.64348  21565683.952    21565684.2774   21565691.7934
        -0.000          -0.000
 -19601722.293 9 -14987781.25748  21556860.962    21556860.5864   21556869.0954
        -0.000          -0.000
   7763259.730 8   6062698.38445  24090240.225    24090239.8644   24090251.0534
        -0.000          -0.000
 -11727372.423 9  -8431943.41846  23443727.326    23443727.6454   23443737.1664
        -0.000          -0.000
 -17231608.420 9 -11228203.05947  22312214.997    22312215.0354   22312223.5454
        -0.000          -0.000
 -25950183.501 9 -19831822.30449  20732268.041    20732267.7004   20732275.0714
        -0.000          -0.000
  -5913450.388 8  -4591054.59445  24852856.697    24852856.6264   24852869.2994
        -0.000          -0.000
 -12379511.491 9  -8411410.02046  23231549.185    23231548.6044   23231559.6814
        -0.000          -0.000
 99  2 18  0 10 30.0000000  0  9 24  4  8  7 30  9  5  6 10          0.000000027
 -27565383.533 9 -19413997.13649  20219244.118    20219244.1094   20219251.8144
        -0.000          -0.000
 -19824594.734 9 -12790786.23448  21580187.759    21580188.0574   21580195.5324
        -0.000          -0.000
 -19590619.562 9 -14979129.77348  21558973.762    21558973.3834   21558981.8654
        -0.000          -0.000
   7829350.935 8   6114197.96945  24102817.045    24102816.5674   24102827.8524
        -0.000          -0.000
 -11824894.951 9  -8507934.88146  23425169.248    23425169.6234   23425178.9674
        -0.000          -0.000
 -17160109.234 9 -11172489.44347  22325820.897    22325820.9164   22325829.4284
        -0.000          -0.000
 -25998746.633 9 -19869663.66349  20723026.738    20723026.3874   20723033.7834
        -0.000          -0.000
  -5982585.464 8  -4644925.89545  24839700.508    24839700.4934   24839713.1294
        -0.000          -0.000
 -12472321.856 9  -8483729.60846  23213887.757    23213887.1514   23213898.2494
        -0.000          -0.000
 99  2 18  0 11  0.0000000  0  9 24  4  8  7 30  9  5  6 10          0.000000018
 -27568297.315 9 -19416267.59149  20218689.593    20218689.5824   20218697.2864
        -0.000          -0.000
 -19748066.498 9 -12731153.86248  21594750.560    21594750.8954   21594758.4164
        -0.000          -0.000
 -19578880.205 9 -14969982.20948  21561207.705    21561207.3174   21561215.7904
        -0.000          -0.000
   7895488.757 8   6165733.88245  24115402.795    24115402.3854   24115413.4084
        -0.000          -0.000
 -11922304.700 9  -8583838.48546  23406632.731    23406633.1254   23406642.3794
        -0.000          -0.000
 -17088275.584 9 -11116515.19847  22339490.423    22339490.4324   22339498.9394
        -0.000          -0.000
 -26046891.114 9 -19907178.80049  20713865.098    20713864.7504   20713872.1334
        -0.000          -0.000
  -6051680.040 8  -4698765.63345  24826552.051    24826552.1364   24826564.6384
        -0.000          -0.000
 -12564994.578 9  -8555941.92646  23196252.563    23196251.9994   23196263.0744
        -0.000          -0.000
 99  2 18  0 11 30.0000000  0  9 24  4  8  7 30  9  5  6 10          0.000000015
 -27570690.077 9 -19418132.06249  20218234.258    20218234.2484   20218241.9414
        -0.000          -0.000
 -19671234.727 9 -12671284.96648  21609371.260    21609371.5534   21609379.0304
        -0.000          -0.000
 -19566524.745 9 -14960354.57748  21563558.884    21563558.5294   21563566.9424
        -0.000          -0.000
   7961658.223 8   6217294.46245  24127994.472    24127994.0184   24128005.2424
        -0.000          -0.000
 -12019598.099 9  -8659651.41246  23388118.426    23388118.7724   23388128.0304
        -0.000          -0.000
 -17016125.531 9 -11060294.40547  22353220.160    22353220.1584   22353228.6714
        -0.000          -0.000
 -26094640.697 9 -19944386.23149  20704778.632    20704778.2804   20704785.6704
        -0.000          -0.000
  -6120717.456 8  -4752560.84145  24813414.459    24813414.5314   24813427.1884
        -0.000          -0.000
 -12657520.609 9  -8628039.96946  23178645.347    23178644.7184   23178655.7374
        -0.000          -0.000
 99  2 18  0 12  0.0000000  0  9 24  4  8  7 30  9  5  6 10          0.000000019
 -27572549.523 9 -19419580.95549  20217880.406    20217880.4124   20217888.0754
        -0.000          -0.000
 -19594104.858 9 -12611183.78448  21624048.562    21624048.8824   21624056.3884
        -0.000          -0.000
 -19553558.816 9 -14950251.24748  21566026.234    21566025.9014   21566034.2974
        -0.000          -0.000
   8027854.224 8   6268875.70245  24140591.011    24140590.6084   24140601.7694
        -0.000          -0.000
 -12116762.008 9  -8735363.42046  23369628.617    23369629.0034   23369638.2544
        -0.000          -0.000
 -16943667.635 9 -11003833.72647  22367008.453    22367008.4624   22367016.9534
        -0.000          -0.000
 -26142007.481 9 -19981295.37249  20695765.009    20695764.6704   20695772.0274
        -0.000          -0.000
  -6189693.342 8  -4806308.11045  24800288.669    24800288.6974   24800301.5574
        -0.000          -0.000
 -12749889.059 9  -8700015.22946  23161068.060    23161067.3974   23161078.3394
        -0.000          -0.000
 99  2 18  0 12 30.0000000  0  9 24  4  8  7 30  9  5  6 10          0.000000029
 -27573887.742 9 -19420623.70049  20217625.775    20217625.7594   20217633.4214
        -0.000          -0.000
 -19516673.940 9 -12550848.02048  21638783.211    21638783.5324   21638790.9904
        -0.000          -0.000
 -19539961.979 9 -14939656.30448  21568613.627    21568613.2694   21568621.6704
        -0.000          -0.000
   8094069.929 8   6320472.32245  24153191.632    24153191.1544   24153202.5764
        -0.000          -0.000
 -12213783.406 9  -8810964.38646  23351165.914    23351166.2944   23351175.5904
        -0.000          -0.000
 -16870899.867 9 -10947131.59447  22380855.758    22380855.7664   22380864.2554
        -0.000          -0.000
 -26189004.312 9 -20017916.24449  20686821.775    20686821.4324   20686828.7754
        -0.000          -0.000
  -6258618.821 8  -4860016.09345  24787172.393    24787172.4784   24787185.0654
        -0.000          -0.000
 -12842108.934 9  -8771874.71546  23143519.008    23143518.3364   23143529.3664
        -0.000          -0.000
 99  2 18  0 13  0.0000000  0  9 24  4  8  7 30  9  5  6 10          0.000000044
 -27574728.168 9 -19421278.55849  20217465.838    20217465.8104   20217473.4664
        -0.000          -0.000
 -19438946.582 9 -12490281.27048  21653574.215    21653574.5224   21653582.0224
        -0.000          -0.000
 -19525760.038 9 -14928589.85348  21571316.198    21571315.8294   21571324.2014
        -0.000          -0.000
   8160296.907 8   6372077.72445  24165794.058    24165793.7694   24165804.9604
        -0.000          -0.000
 -12310677.751 9  -8886466.35946  23332727.484    23332727.8694   23332737.0614
        -0.000          -0.000
 -16797826.096 9 -10890191.02247  22394761.292    22394761.2904   22394769.7834
        -0.000          -0.000
 -26235652.012 9 -20054265.06749  20677944.998    20677944.6474   20677951.9774
        -0.000          -0.000
  -6327497.839 8  -4913687.89345  24774064.975    24774065.1314   24774077.5774
        -0.000          -0.000
 -12934181.868 9  -8843619.72446  23125997.952    23125997.3164   23126008.2334
        -0.000          -0.000
 99  2 18  0 13 30.0000000  0  9 24  4  8  7 30  9  5  6 10          0.000000070
 -27575083.628 9 -19421555.51449  20217398.145    20217398.1274   20217405.7714
        -0.000          -0.000
 -19360924.933 9 -12429485.19748  21668421.295    21668421.6244   21668429.0904
        -0.000          -0.000
 -19510973.657 9 -14917067.98748  21574129.908    21574129.5414   21574137.9544
        -0.000          -0.000
   8226541.165 8   6423696.59545  24178400.102    24178399.6234   24178410.9914
        -0.000          -0.000
 -12407449.844 9  -8961873.04846  23314312.282    23314312.6274   23314321.8504
        -0.000          -0.000
 -16724443.550 9 -10833009.84547  22408725.536    22408725.5624   22408734.0104
        -0.000          -0.000
 -26281955.395 9 -20090345.58749  20669133.714    20669133.3674   20669140.6804
        -0.000          -0.000
  -6396326.361 8  -4967320.31645  24760967.306    24760967.4694   24760979.8794
        -0.000          -0.000
 -13026103.896 9  -8915247.12346  23108505.647    23108504.9954   23108515.9464
        -0.000          -0.000
 99  2 18  0 14  0.0000000  0  9 24  4  8  7 30  9  5  6 10          0.000000094
 -27574968.413 9 -19421465.71849  20217420.067    20217420.0614   20217427.7134
        -0.000          -0.000
 -19282600.913 9 -12368453.52848  21683325.847    21683326.1664   21683333.6904
        -0.000          -0.000
 -19495602.661 9 -14905090.59048  21577054.913    21577054.5564   21577062.9904
        -0.000          -0.000
   8292800.833 8   6475327.46345  24191008.793    24191008.4124   24191019.6164
        -0.000          -0.000
 -12504108.724 9  -9037191.52046  23295918.630    23295918.9314   23295928.2194
        -0.000          -0.000
 -16650752.657 9 -10775588.40947  22422748.470    22422748.5044   22422756.9624
        -0.000          -0.000
 -26327907.508 9 -20126152.39649  20660389.278    20660388.9404   20660396.2444
        -0.000          -0.000
  -6465133.323 8  -5020935.96545  24747873.713    24747873.6334   24747886.0794
        -0.000          -0.000
 -13117892.880 9  -8986770.88346  23091038.706    23091038.0774   23091048.9224
        -0.000          -0.000
 99  2 18  0 14 30.0000000  0  9 24  4  8  7 30  9  5  6 10          0.000000111
 -27574401.738 9 -19421024.13549  20217527.895    20217527.8674   20217535.5084
        -0.000          -0.000
 -19203973.592 9 -12307185.50948  21698288.136    21698288.4584   21698295.9774
        -0.000          -0.000
 -19479671.429 9 -14892676.64348  21580086.516    21580086.1674   21580094.5664
        -0.000          -0.000
   8359077.923 8   6526971.91645  24203620.898    24203620.4234   24203631.9554
        -0.000          -0.000
 -12600673.741 9  -9112436.85046  23277542.768    23277543.1134   23277552.3744
        -0.000          -0.000
 -16576770.455 9 -10717939.97147  22436826.847    22436826.8784   22436835.3454
        -0.000          -0.000
 -26373513.668 9 -20161689.63549  20651710.691    20651710.3684   20651717.6524
        -0.000          -0.000
  -6533937.690 8  -5074549.58845  24734780.582    24734780.5284   24734792.8044
        -0.000          -0.000
 -13209552.105 9  -9058193.52646  23073596.378    23073595.7724   23073606.6014
        -0.000          -0.000
 99  2 18  0 15  0.0000000  0  9 24  4  8  7 30  9  5  6 10          0.000000106
 -27573409.504 9 -19420250.94249  20217716.686    20217716.6664   20217724.3194
        -0.000          -0.000
 -19125078.038 9 -12245708.48148  21713301.460    21713301.7844   21713309.3254
        -0.000          -0.000
 -19463228.569 9 -14879864.02348  21583215.493    21583215.1314   21583223.5494
        -0.000          -0.000
   8425366.990 8   6578625.73545  24216235.453    24216234.9404   24216246.3344
        -0.000          -0.000
 -12697184.813 9  -9187640.12946  23259177.205    23259177.5874   23259186.8734
        -0.000          -0.000
 -16502521.649 9 -10660083.78947  22450955.930    22450955.9464   22450964.4184
        -0.000          -0.000
 -26418785.206 9 -20196966.13049  20643095.797    20643095.4624   20643102.7344
        -0.000          -0.000
  -6602775.877 8  -5128189.53645  24721681.035    24721680.8964   24721693.2684
        -0.000          -0.000
 -13301095.629 9  -9129526.01646  23056176.129    23056175.5024   23056186.3064
        -0.000          -0.000
 99  2 18  0 15 30.0000000  0  9 24  4  8  7 30  9  5  6 10          0.000000065
 -27571988.579 9 -19419143.70749  20217987.045    20217987.0194   20217994.6774
        -0.000          -0.000
 -19045919.611 9 -12184026.61548  21728364.857    21728365.1464   21728372.6784
        -0.000          -0.000
 -19446257.012 9 -14866639.43848  21586445.031    21586444.6654   21586453.1004
        -0.000          -0.000
   8491666.374 8   6630287.56045  24228851.654    24228851.3244   24228863.0114
        -0.000          -0.000
 -12793641.901 9  -9262801.36646  23240821.952    23240822.3644   23240831.5324
        -0.000          -0.000
 -16428019.598 9 -10602030.27647  22465133.218    22465133.2524   22465141.7244
        -0.000          -0.000
 -26463697.298 9 -20231962.53849  20634549.284    20634548.9494   20634556.1974
        -0.000          -0.000
  -6671673.021 8  -5181875.44645  24708570.234    24708570.3034   24708582.3294
        -0.000          -0.000
 -13392526.981 9  -9200771.10646  23038777.260    23038776.5774   23038787.3044
        -0.000          -0.000
 99  2 18  0 16  0.0000000  0  9 24  4  8  7 30  9  5  6 10          0.000000026
 -27570057.113 9 -19417638.65249  20218354.619    20218354.5944   20218362.2484
        -0.000          -0.000
 -18966447.883 9 -12122100.62248  21743487.874    21743488.1664   21743495.7164
        -0.000          -0.000
 -19428669.542 9 -14852934.91548  21589791.831    21589791.4484   21589799.8884
        -0.000          -0.000
   8558041.825 8   6682008.67745  24241482.531    24241481.9224   24241493.5754
        -0.000          -0.000
 -12889976.551 9  -9337867.19346  23222490.015    23222490.4044   23222499.5514
        -0.000          -0.000
 -16353210.486 9 -10543737.49747  22479368.998    22479368.9974   22479377.5044
        -0.000          -0.000
 -26508172.025 9 -20266618.13749  20626086.013    20626085.6784   20626092.9234
        -0.000          -0.000
  -6740569.313 8  -5235560.69145  24695459.578    24695459.5694   24695471.5794
        -0.000          -0.000
 -13483779.531 9  -9271876.86246  23021412.362    23021411.7284   23021422.4204
        -0.000          -0.000
 99  2 18  0 16 30.0000000  0  9 24  4  8  7 30  9  5  6 10          0.000000001
 -27567614.201 9 -19415735.06549  20218819.475    20218819.4534   20218827.0884
        -0.000          -0.000
 -18886688.794 9 -12059950.70848  21758665.539    21758665.8194   21758673.3834
        -0.000          -0.000
 -19410454.223 9 -14838741.16548  21593258.125    21593257.7194   21593266.1904
        -0.000          -0.000
   8624512.323 8   6733803.89045  24254131.612    24254131.0144   24254142.5794
        -0.000          -0.000
 -12986171.105 9  -9412823.84246  23204184.636    23204185.0074   23204194.1444
        -0.000          -0.000
 -16278097.587 9 -10485208.01147  22493662.467    22493662.4524   22493671.0224
        -0.000          -0.000
 -26552213.189 9 -20300935.89449  20617705.234    20617704.9104   20617712.1484
        -0.000          -0.000
  -6809447.307 8  -5289231.66345  24682352.438    24682352.4744   24682364.1344
        -0.000          -0.000
 -13574842.527 9  -9342834.92446  23004083.510    23004082.8754   23004093.5434
        -0.000          -0.000
 99  2 18  0 17  0.0000000  0  9 24  4  8  7 30  9  5  6 10         -0.000000030
 -27564674.266 9 -19413444.18749  20219378.894    20219378.8854   20219386.5224
        -0.000          -0.000
 -18806680.618 9 -11997606.70548  21773890.607    21773890.8894   21773898.5114
        -0.000          -0.000
 -19391619.102 9 -14824064.44748  21596842.330    21596841.9384   21596850.3884
        -0.000          -0.000
   8691026.989 8   6785633.45245  24266788.893    24266788.2324   24266800.0344
        -0.000          -0.000
 -13082246.064 9  -9487687.30446  23185902.049    23185902.4334   23185911.5664
        -0.000          -0.000
 -16202705.538 9 -10426461.00947  22508009.122    22508009.1104   22508017.6944
        -0.000          -0.000
 -26595844.697 9 -20334934.43849  20609402.381    20609402.0484   20609409.2854
        -0.000          -0.000
  -6878321.620 8  -5342899.76945  24669245.997    24669246.1264   24669257.5224
        -0.000          -0.000
 -13665734.048 9  -9413659.35946  22986787.333    22986786.7094   22986797.3444
        -0.000          -0.000
 99  2 18  0 17 30.0000000  0  9 24  4  8  7 30  9  5  6 10         -0.000000060
 -27561215.681 9 -19410749.16549  20220037.017    20220037.0104   20220044.6264
        -0.000          -0.000
 -18726415.688 9 -11935062.62448  21789164.557    21789164.8354   21789172.4264
        -0.000          -0.000
 -19372145.826 9 -14808890.46848  21600547.969    21600547.5824   21600555.9944
        -0.000          -0.000
   8757572.548 8   6837487.19145  24279452.278    24279451.6764   24279463.0694
        -0.000          -0.000
 -13178179.154 9  -9562440.22446  23167646.576    23167646.9424   23167656.0244
        -0.000          -0.000
 -16127033.075 9 -10367495.50247  22522409.140    22522409.1604   22522417.7444
        -0.000          -0.000
 -26639063.551 9 -20368611.43549  20601178.101    20601177.7714   20601184.9964
        -0.000          -0.000
  -6947155.981 8  -5396536.72445  24656147.116    24656147.2554   24656158.7654
        -0.000          -0.000
 -13756441.755 9  -9484340.55246  22969526.097    22969525.4484   22969536.1564
        -0.000          -0.000
 99  2 18  0 18  0.0000000  0  9 24  4  8  7 30  9  5  6 10         -0.000000084
 -27557261.282 9 -19407667.79749  20220789.523    20220789.5194   20220797.1254
        -0.000          -0.000
 -18645901.645 9 -11872324.44348  21804485.867    21804486.1684   21804493.7864
        -0.000          -0.000
 -19352066.014 9 -14793243.86748  21604369.020    21604368.6174   21604377.0594
        -0.000          -0.000
   8824147.309 9   6889363.59445  24292121.103    24292120.4144   24292131.9434
        -0.000          -0.000
 -13273980.771 9  -9637090.69346  23149416.004    23149416.3534   23149425.3984
        -0.000          -0.000
 -16051083.344 9 -10308313.94547  22536861.973    22536861.9954   22536870.5714
        -0.000          -0.000
 -26681906.728 9 -20401995.70049  20593025.271    20593024.9354   20593032.1544
        -0.000          -0.000
  -7015942.818 8  -5450136.66045  24643057.303    24643057.3174   24643068.9504
        -0.000          -0.000
 -13846967.545 9  -9554880.01346  22952299.527    22952298.8744   22952309.4684
        -0.000          -0.000
 99  2 18  0 18 30.0000000  0  9 24  4  8  7 30  9  5  6 10         -0.000000092
 -27552809.783 9 -19404199.07649  20221636.584    20221636.5724   20221644.1794
        -0.000          -0.000
 -18565116.593 9 -11809375.08048  21819858.772    21819859.0864   21819866.6784
        -0.000          -0.000
 -19331396.714 9 -14777137.92448  21608302.227    21608301.8444   21608310.3074
        -0.000          -0.000
   8890752.718 8   6941263.94545  24304795.666    24304794.9314   24304806.4594
        -0.000          -0.000
 -13369636.095 9  -9711627.19146  23131213.299    23131213.6734   23131222.6164
        -0.000          -0.000
 -15974836.341 9 -10248900.73947  22551371.329    22551371.3404   22551379.9344
        -0.000          -0.000
 -26724372.551 9 -20435085.91849  20584944.289    20584943.9504   20584951.1544
        -0.000          -0.000
  -7084667.806 9  -5503688.41445  24629979.293    24629979.3304   24629990.8754
        -0.000          -0.000
 -13937293.246 9  -9625263.52946  22935111.023    22935110.3744   22935120.9794
        -0.000          -0.000
 99  2 18  0 19  0.0000000  0  9 24  4  8  7 30  9  5  6 10         -0.000000099
 -27547859.341 9 -19400341.56749  20222578.605    20222578.6004   20222586.2134
        -0.000          -0.000
 -18484061.691 9 -11746215.44848  21835282.997    21835283.3184   21835290.9624
        -0.000          -0.000
 -19310155.859 9 -14760586.61448  21612344.182    21612343.8064   21612352.2614
        -0.000          -0.000
   8957365.541 8   6993170.05445  24317471.918    24317471.2354   24317482.5704
        -0.000          -0.000
 -13465165.027 9  -9786065.19846  23113034.621    23113035.0494   23113043.9114
        -0.000          -0.000
 -15898306.519 9 -10189267.15147  22565934.530    22565934.4994   22565943.1164
        -0.000          -0.000
 -26766458.352 9 -20467880.01749  20576935.611    20576935.2744   20576942.4644
        -0.000          -0.000
  -7153341.930 9  -5557200.52345  24616910.940    24616911.0274   24616922.4674
        -0.000          -0.000
 -14027429.538 9  -9695499.47546  22917958.649    22917957.9484   22917968.4424
        -0.000          -0.000
 99  2 18  0 19 30.0000000  0  9 24  4  8  7 30  9  5  6 10         -0.000000096
 -27542412.663 9 -19396097.38249  20223615.048    20223615.0334   20223622.6604
        -0.000          -0.000
 -18402725.847 9 -11682836.89248  21850760.741    21850761.0534   21850768.6734
        -0.000          -0.000
 -19288350.554 9 -14743595.47448  21616493.619    21616493.2534   21616501.7274
        -0.000          -0.000
   9024012.536 9   7045102.79145  24330154.191    24330153.5644   24330165.1864
        -0.000          -0.000
 -13560559.688 9  -9860398.58046  23094881.501    23094881.9164   23094890.8204
        -0.000          -0.000
 -15821492.473 9 -10129412.08547  22580551.758    22580551.7594   22580560.3774
        -0.000          -0.000
 -26808153.962 9 -20500370.07549  20569001.161    20569000.8174   20569008.0114
        -0.000          -0.000
  -7221955.019 9  -5610665.07645  24603854.133    24603854.3164   24603865.8214
        -0.000          -0.000
 -14117375.695 9  -9765587.24846  22900842.336    22900841.6574   22900852.1154
        -0.000          -0.000
 99  2 18  0 20  0.0000000  0  9 24  4  8  7 30  9  5  6 10         -0.000000101
 -27536498.034 9 -19391488.56549  20224740.538    20224740.5334   20224748.1414
        -0.000          -0.000
 -18321138.319 9 -11619262.22748  21866286.302    21866286.6154   21866294.2984
        -0.000          -0.000
 -19266000.511 9 -14726179.86348  21620746.736    21620746.3394   21620754.8274
        -0.000          -0.000
   9090675.182 8   7097047.72645  24342839.723    24342839.1444   24342850.8214
        -0.000          -0.000
 -13655842.724 9  -9934644.99246  23076749.690    23076750.0984   23076758.9414
        -0.000          -0.000
 -15744428.259 9 -10069362.09247  22595216.562    22595216.5674   22595225.1944
        -0.000          -0.000
 -26849474.653 9 -20532567.99549  20561138.087    20561137.7514   20561144.9434
        -0.000          -0.000
  -7290542.548 9  -5664109.73645  24590802.202    24590802.4024   24590813.7424
        -0.000          -0.000
 -14207151.292 9  -9835542.12647  22883758.546    22883757.8454   22883768.2414
        -0.000          -0.000
 99  2 18  0 20 30.0000000  0  9 24  4  8  7 30  9  5  6 10         -0.000000107
 -27530069.767 9 -19386479.50149  20225963.788    20225963.7874   20225971.3934
        -0.000          -0.000
 -18239283.856 9 -11555479.56548  21881862.702    21881863.0214   21881870.7284
        -0.000          -0.000
 -19243064.111 9 -14708307.34848  21625111.315    21625110.9274   21625119.4194
        -0.000          -0.000
   9157365.682 9   7149014.42345  24355530.561    24355529.9974   24355541.0514
        -0.000          -0.000
 -13750971.308 9 -10008771.03446  23058647.234    23058647.6014   23058656.4374
        -0.000          -0.000
 -15667103.810 9 -10009109.30747  22609930.923    22609930.9504   22609939.5924
        -0.000          -0.000
 -26890368.730 9 -20564433.48149  20553356.200    20553355.8584   20553363.0404
        -0.000          -0.000
  -7359085.810 9  -5717519.89945  24577758.708    24577758.9034   24577770.1454
        -0.000          -0.000
 -14296725.366 9  -9905339.97347  22866713.078    22866712.4044   22866722.6734
        -0.000          -0.000
 99  2 18  0 21  0.0000000  0  9 24  4  8  7 30  9  5  6 10         -0.000000110
 -27523120.812 9 -19381064.71049  20227286.147    20227286.1514   20227293.7434
        -0.000          -0.000
 -18157164.299 9 -11491490.32948  21897489.541    21897489.8534   21897497.5524
        -0.000          -0.000
 -19219521.633 9 -14689962.57148  21629591.254    21629590.8864   21629599.3564
        -0.000          -0.000
   9224098.373 9   7201013.91345  24368229.223    24368228.8264   24368240.4064
        -0.000          -0.000
 -13845940.379 9 -10082772.79846  23040575.056    23040575.4724   23040584.2824
        -0.000          -0.000
 -15589527.920 9  -9948660.61547  22624693.124    22624693.1614   22624701.8134
        -0.000          -0.000
 -26930808.555 9 -20595945.00849  20545660.721    20545660.3754   20545667.5564
        -0.000          -0.000
  -7427575.827 9  -5770888.57745  24564725.340    24564725.3854   24564736.5894
        -0.000          -0.000
 -14386073.490 9  -9974961.74447  22849710.613    22849709.9854   22849720.2544
        -0.000          -0.000
 99  2 18  0 21 30.0000000  0  9 24  4  8  7 30  9  5  6 10         -0.000000108
 -27515664.645 9 -19375254.69149  20228704.985    20228704.9694   20228712.5734
        -0.000          -0.000
 -18074792.687 9 -11427304.68648  21913164.302    21913164.6324   21913172.3714
        -0.000          -0.000
 -19195385.077 9 -14671154.86948  21634184.300    21634183.9364   21634192.4124
        -0.000          -0.000
   9290876.702 8   7253049.08245  24380936.787    24380936.4904   24380947.3864
        -0.000          -0.000
 -13940740.479 9 -10156642.90946  23022535.101    23022535.4904   23022544.2464
        -0.000          -0.000
 -15511712.062 9  -9888024.92347  22639501.026    22639501.0694   22639509.7224
        -0.000          -0.000
 -26970794.323 9 -20627102.72349  20538051.671    20538051.3334   20538058.4934
        -0.000          -0.000
  -7496017.009 9  -5824219.20145  24551701.245    24551701.3714   24551712.6054
        -0.000          -0.000
 -14475195.226 9 -10044407.12047  22832751.153    22832750.5464   22832760.7684
        -0.000          -0.000
 99  2 18  0 22  0.0000000  0  9 24  4  8  7 30  9  5  6 10         -0.000000108
 -27507715.096 9 -19369060.21249  20230217.702    20230217.6924   20230225.2984
        -0.000          -0.000
 -17992185.891 9 -11362935.78548  21928883.883    21928884.2104   21928891.9604
        -0.000          -0.000
 -19170659.747 9 -14651888.37748  21638889.397    21638889.0294   21638897.4974
        -0.000          -0.000
   9357693.114 8   7305113.80445  24393651.391    24393651.1474   24393662.4524
        -0.000          -0.000
 -14035360.526 9 -10230372.70046  23004529.415    23004529.8264   23004538.5314
        -0.000          -0.000
 -15433664.772 9  -9827208.89447  22654352.995    22654353.0284   22654361.6634
        -0.000          -0.000
 -27010329.095 9 -20657909.00549  20530528.460    20530528.1114   20530535.2544
        -0.000          -0.000
  -7564430.734 9  -5877528.43545  24538682.422    24538682.4344   24538693.7504
        -0.000          -0.000
 -14564089.970 9 -10113675.60647  22815834.977    22815834.3274   22815844.5804
        -0.000          -0.000
 99  2 18  0 22 30.0000000  0  9 24  4  8  7 30  9  5  6 10         -0.000000105
 -27499269.313 9 -19362479.06449  20231824.845    20231824.8494   20231832.4524
        -0.000          -0.000
 -17909325.865 9 -11298369.56848  21944651.688    21944652.0134   21944659.7634
        -0.000          -0.000
 -19145352.730 9 -14632168.62447  21643705.162    21643704.7954   21643713.2694
        -0.000          -0.000
   9424556.136 8   7357214.90645  24406374.906    24406374.4804   24406385.8664
        -0.000          -0.000
 -14129797.664 9 -10303959.97046  22986558.576    22986558.9174   22986567.6684
        -0.000          -0.000
 -15355369.034 9  -9766199.27847  22669252.202    22669252.2234   22669260.8434
        -0.000          -0.000
 -27049406.581 9 -20688358.96249  20523092.214    20523091.8794   20523098.9964
        -0.000          -0.000
  -7632815.050 9  -5930814.74545  24525669.165    24525669.2344   24525680.4854
        -0.000          -0.000
 -14652754.110 9 -10182764.40847  22798962.622    22798962.0174   22798972.1244
        -0.000          -0.000
 99  2 18  0 23  0.0000000  0  8 24  4  8 30  9  5  6 10            -0.000000086
 -27490339.244 9 -19355520.55449  20233524.173    20233524.1834   20233531.7804
        -0.000          -0.000
 -17826213.115 9 -11233606.41648  21960467.544    21960467.8544   21960475.5754
        -0.000          -0.000
 -19119476.046 9 -14612004.97848  21648629.355    21648629.0064   21648637.4834
        -0.000          -0.000
 -14224066.889 9 -10377416.41346  22968619.682    22968619.9964   22968628.6654
        -0.000          -0.000
 -15276812.827 9  -9704986.69847  22684201.034    22684201.0344   22684209.6434
        -0.000          -0.000
 -27088041.590 9 -20718464.13349  20515740.194    20515739.8694   20515746.9674
        -0.000          -0.000
  -7701167.016 9  -5984075.85545  24512662.061    24512662.0574   24512673.2274
        -0.000          -0.000
 -14741196.522 9 -10251680.42747  22782132.474    22782131.8694   22782142.0034
        -0.000          -0.000
 99  2 18  0 23 30.0000000  0  8 24  4  8 30  9  5  6 10            -0.000000077
 -27480932.584 9 -19348190.66949  20235314.174    20235314.1744   20235321.7764
        -0.000          -0.000
 -17742842.413 9 -11168642.26347  21976332.506    21976332.8224   21976340.5744
        -0.000          -0.000
 -19093048.080 9 -14591411.76148  21653658.459    21653658.0954   21653666.5774
        -0.000          -0.000
 -14318170.061 9 -10450743.45846  22950712.358    22950712.6624   22950721.3134
        -0.000          -0.000
 -15197992.196 9  -9643568.06747  22699200.100    22699200.1014   22699208.7534
        -0.000          -0.000
 -27126265.573 9 -20748249.02849  20508466.393    20508466.0644   20508473.1514
        -0.000          -0.000
  -7769502.299 9  -6037323.97645  24499658.218    24499658.2204   24499669.4154
        -0.000          -0.000
 -14829441.063 9 -10320442.27147  22765339.998    22765339.4234   22765349.5034
        -0.000          -0.000
 99  2 18  0 24  0.0000000  0  8 24  4  8 30  9  5  6 10            -0.000000064
 -27471045.118 9 -19340486.13749  20237195.679    20237195.6814   20237203.2814
        -0.000          -0.000
 -17659198.306 9 -11103465.06047  21992249.450    21992249.7724   21992257.5174
        -0.000          -0.000
 -19066061.403 9 -14570383.18147  21658793.860    21658793.5094   21658801.9754
        -0.000          -0.000
 -14412116.945 9 -10523948.72846  22932834.775    22932835.1294   22932843.6924
        -0.000          -0.000
 -15118882.823 9  -9581924.44947  22714254.138    22714254.1294   22714262.8054
        -0.000          -0.000
 -27164085.276 9 -20777718.90449  20501269.516    20501269.1874   20501276.2714
        -0.000          -0.000
  -7837822.337 9  -6090560.22145  24486657.194    24486657.1304   24486668.3804
        -0.000          -0.000
 -14917480.046 9 -10389043.92647  22748586.574    22748586.0024   22748596.0824
        -0.000          -0.000
 99  2 18  0 24 30.0000000  0  8 24  4  8 30  9  5  6 10            -0.000000061
 -27460704.729 9 -19332428.67749  20239163.388    20239163.3794   20239170.9624
        -0.000          -0.000
 -17575308.266 9 -11038096.22547  22008213.177    22008213.5114   22008221.2664
        -0.000          -0.000
 -19038550.579 9 -14548946.17847  21664029.037    21664028.6654   21664037.1144
        -0.000          -0.000
 -14505964.127 9 -10597076.32346  22914976.250    22914976.5524   22914985.0484
        -0.000          -0.000
 -15039513.848 9  -9520078.53247  22729357.564    22729357.5534   22729366.2944
        -0.000          -0.000
 -27201540.742 9 -20806904.95349  20494141.981    20494141.6514   20494148.7294
        -0.000          -0.000
  -7906150.004 9  -6143802.42145  24473654.744    24473654.8014   24473665.8834
        -0.000          -0.000
 -15005339.366 9 -10457505.58347  22731867.425    22731866.8264   22731876.8844
        -0.000          -0.000
 99  2 18  0 25  0.0000000  0  8 24  4  8 30  9  5  6 10            -0.000000056
 -27449893.264 9 -19324004.14449  20241220.715    20241220.7144   20241228.2834
        -0.000          -0.000
 -17491169.310 9 -10972533.42247  22024224.354    22024224.6564   22024232.4064
        -0.000          -0.000
 -19010495.402 9 -14527084.99947  21669367.727    21669367.3494   21669375.8184
        -0.000          -0.000
 -14599696.667 9 -10670114.55046  22897139.362    22897139.7204   22897148.2744
        -0.000          -0.000
 -14959878.379 9  -9458024.95747  22744511.684    22744511.6624   22744520.4604
        -0.000          -0.000
 -27238610.344 9 -20835790.33049  20487087.859    20487087.5344   20487094.5874
        -0.000          -0.000
  -7974461.478 9  -6197032.00845  24460655.406    24460655.4314   24460666.4054
        -0.000          -0.000
 -15092985.293 9 -10525800.97147  22715188.854    22715188.2534   22715198.2044
        -0.000          -0.000
 99  2 18  0 25 30.0000000  0  8 24  4  8 30  9  5  6 10            -0.000000048
 -27438619.677 9 -19315219.51049  20243365.986    20243365.9994   20243373.5684
        -0.000          -0.000
 -17406788.676 9 -10906782.30047  22040281.496    22040281.8004   22040289.5554
        -0.000          -0.000
 -18981888.657 9 -14504794.02947  21674811.398    21674811.0404   21674819.5254
        -0.000          -0.000
 -14693313.658 9 -10743062.76346  22879324.542    22879324.9534   22879333.4294
        -0.000          -0.000
 -14879999.144 9  -9395781.43947  22759712.234    22759712.2394   22759721.0754
        -0.000          -0.000
 -27275284.852 9 -20864367.84449  20480108.891    20480108.5664   20480115.6384
        -0.000          -0.000
  -8042753.630 9  -6250246.55245  24447659.738    24447659.7984   24447670.6924
        -0.000          -0.000
 -15180405.705 9 -10593920.63747  22698553.258    22698552.6104   22698562.5924
        -0.000          -0.000
 99  2 18  0 26  0.0000000  0  8 24  4  8 30  9  5  6 10            -0.000000025
 -27426867.971 9 -19306062.31949  20245602.277    20245602.2814   20245609.8424
        -0.000          -0.000
 -17322168.402 9 -10840844.44647  22056384.216    22056384.5334   22056392.2684
        -0.000          -0.000
 -18952692.043 9 -14482043.42747  21680367.354    21680366.9944   21680375.4454
        -0.000          -0.000
 -14786794.098 9 -10815904.58447  22861535.777    22861536.1384   22861544.5674
        -0.000          -0.000
 -14799871.639 9  -9333344.46347  22774960.041    22774960.0534   22774968.8834
        -0.000          -0.000
 -27311526.060 9 -20892607.72349  20473212.373    20473212.0604   20473219.1074
        -0.000          -0.000
  -8111000.622 9  -6303425.91245  24434672.645    24434672.6684   24434683.6434
        -0.000          -0.000
 -15267557.076 9 -10661830.67047  22681968.748    22681968.1104   22681978.0464
        -0.000          -0.000
 99  2 18  0 26 30.0000000  0  8 24  4  8 30  9  5  6 10            -0.000000010
 -27414662.363 9 -19296551.43749  20247924.920    20247924.9334   20247932.4824
        -0.000          -0.000
 -17237343.385 9 -10774747.04547  22072525.907    22072526.2584   22072533.9304
        -0.000          -0.000
 -18922935.805 9 -14458856.75447  21686029.741    21686029.3944   21686037.8154
        -0.000          -0.000
 -14880142.234 9 -10888643.28147  22843772.132    22843772.5064   22843780.9644
        -0.000          -0.000
 -14719554.722 9  -9270759.89547  22790243.814    22790243.8224   22790252.6984
        -0.000          -0.000
 -27347347.264 9 -20920520.31049  20466395.840    20466395.5094   20466402.5624
        -0.000          -0.000
  -8179237.916 8  -6356597.70545  24421687.395    24421687.4084   24421698.2814
        -0.000          -0.000
 -15354462.107 9 -10729548.74847  22665431.171    22665430.5494   22665440.4904
        -0.000          -0.000
 99  2 18  0 27  0.0000000  0  8 24  4  8 30  9  5  6 10            -0.000000010
 -27402010.351 9 -19286692.70949  20250332.526    20250332.5374   20250340.0844
        -0.000          -0.000
 -17152333.582 9 -10708505.65847  22088702.749    22088703.1094   22088710.7704
        -0.000          -0.000
 -18892623.223 9 -14435236.56947  21691798.005    21691797.6614   21691806.1354
        -0.000          -0.000
 -14973326.137 9 -10961254.02247  22826039.748    22826040.1024   22826048.5504
        -0.000          -0.000
 -14639063.696 9  -9208039.65547  22805560.817    22805560.8094   22805569.6864
        -0.000          -0.000
 -27382743.231 9 -20948101.54849  20459660.154    20459659.8324   20459666.8694
        -0.000          -0.000
  -8247467.647 8  -6409763.62045  24408703.560    24408703.5574   24408714.4014
        -0.000          -0.000
 -15441133.841 9 -10797085.04547  22648937.949    22648937.4174   22648947.1954
        -0.000          -0.000
 99  2 18  0 27 30.0000000  0  8 24  4  8 30  9  5  6 10            -0.000000014
 -27388891.646 9 -19276470.32449  20252828.905    20252828.8984   20252836.4514
        -0.000          -0.000
 -17067123.080 9 -10642107.87547  22104917.783    22104918.1444   22104925.8054
        -0.000          -0.000
 -18861740.394 9 -14411172.03147  21697674.828    21697674.4734   21697682.9374
        -0.000          -0.000
 -15066295.587 9 -11033697.66347  22808348.198    22808348.5694   22808356.8844
        -0.000          -0.000
 -14558375.343 9  -9145165.65147  22820915.356    22820915.3394   22820924.2184
        -0.000          -0.000
 -27417703.222 9 -20975343.06549  20453007.468    20453007.1384   20453014.1674
        -0.000          -0.000
  -8315678.768 8  -6462915.01545  24395723.291    24395723.2634   24395734.1794
        -0.000          -0.000
 -15527567.475 9 -10864435.81547  22632490.095    22632489.5444   22632499.3024
        -0.000          -0.000
 99  2 18  0 28  0.0000000  0  8 24  4  8 30  9  5  6 10            -0.000000021
 -27375297.033 9 -19265877.10149  20255415.875    20255415.8774   20255423.4134
        -0.000          -0.000
 -16981700.422 9 -10575544.77847  22121173.204    22121173.5204   22121181.2084
        -0.000          -0.000
 -18830304.277 9 -14386676.36347  21703656.959    21703656.6014   21703665.0364
        -0.000          -0.000
 -15159023.464 9 -11105953.05747  22790702.633    22790702.9854   22790711.3334
        -0.000          -0.000
 -14477469.200 9  -9082121.94247  22836311.314    22836311.3214   22836320.2094
        -0.000          -0.000
 -27452215.453 9 -21002235.68649  20446439.963    20446439.6544   20446446.6824
        -0.000          -0.000
  -8383880.127 8  -6516058.81745  24382744.868    24382744.8764   24382755.8364
        -0.000          -0.000
 -15613763.066 9 -10931601.09747  22616087.517    22616086.9404   22616096.7014
        -0.000          -0.000
 99  2 18  0 28 30.0000000  0  8 24  4  8 30  9  5  6 10            -0.000000035
 -27361230.157 9 -19254915.88349  20258092.702    20258092.6944   20258100.2244
        -0.000          -0.000
 -16896071.068 9 -10508820.62147  22137467.867    22137468.1904   22137475.9454
        -0.000          -0.000
 -18798331.718 9 -14361762.68647  21709741.131    21709740.8094   21709749.2054
        -0.000          -0.000
 -15251507.852 9 -11178018.70547  22773103.283    22773103.6884   22773112.1154
        -0.000          -0.000
 -14396336.468 9  -9018901.66247  22851750.349    22851750.3824   22851759.3234
        -0.000          -0.000
 -27486283.741 9 -21028782.38149  20439956.997    20439956.6534   20439963.6884
        -0.000          -0.000
  -8452066.110 8  -6569190.63345  24369769.423    24369769.5194   24369780.3204
        -0.000          -0.000
 -15699741.897 9 -10998597.47547  22599726.174    22599725.5864   22599735.3374
        -0.000          -0.000
 99  2 18  0 29  0.0000000  0  8 24  4  8 30  9  5  6 10            -0.000000034
 -27346682.769 9 -19243580.23549  20260860.941    20260860.9484   20260868.4724
        -0.000          -0.000
 -16810224.159 9 -10441926.92947  22153803.958    22153804.3204   22153812.0814
        -0.000          -0.000
 -18765797.853 9 -14336411.62947  21715932.153    21715931.8234   21715940.2244
        -0.000          -0.000
 -15343733.571 9 -11249882.81047  22755553.232    22755553.6774   22755562.0334
        -0.000          -0.000
 -14314945.518 9  -8955480.17947  22867238.585    22867238.6204   22867247.5254
        -0.000          -0.000
 -27519886.653 9 -21054966.44649  20433562.533    20433562.2294   20433569.2604
        -0.000          -0.000
  -8520191.373 8  -6622275.10945  24356805.546    24356805.6354   24356816.4874
        -0.000          -0.000
 -15785477.695 9 -11065404.49847  22583411.170    22583410.5404   22583420.2924
        -0.000          -0.000
 99  2 18  0 29 30.0000000  0  8 24  4  8 30  9  5  6 10            -0.000000047
 -27331701.019 9 -19231906.12349  20263711.851    20263711.8544   20263719.3614
        -0.000          -0.000
 -16724193.234 9 -10374889.86347  22170175.126    22170175.4274   22170183.2644
        -0.000          -0.000
 -18732744.838 9 -14310656.04447  21722221.913    21722221.5694   21722229.9804
        -0.000          -0.000
 -15435780.567 9 -11321607.65247  22738037.204    22738037.6544   22738045.9364
        -0.000          -0.000
 -14233349.311 9  -8891898.75747  22882765.865    22882765.8814   22882774.8354
        -0.000          -0.000
 -27553061.816 9 -21080817.19949  20427249.470    20427249.1604   20427256.1894
        -0.000          -0.000
  -8588308.433 8  -6675353.20045  24343843.163    24343843.3484   24343854.0644
        -0.000          -0.000
 -15870992.789 9 -11132039.53047  22567138.031    22567137.4364   22567147.1224
        -0.000          -0.000
 99  2 18  0 30  0.0000000  0  8 24  4  8 30  9  5  6 10            -0.000000046
 -27316262.584 9 -19219876.15349  20266649.679    20266649.6804   20266657.1974
        -0.000          -0.000
 -16637939.135 9 -10307678.88747  22186588.723    22186589.0744   22186596.8854
        -0.000          -0.000
 -18699121.580 9 -14284456.11547  21728620.231    21728619.9094   21728628.2964
        -0.000          -0.000
 -15527644.505 9 -11393189.82947  22720555.963    22720556.4364   22720564.7824
        -0.000          -0.000
 -14151521.384 9  -8828136.77647  22898337.230    22898337.2514   22898346.2084
        -0.000          -0.000
 -27585764.451 9 -21106299.74949  20421026.379    20421026.0584   20421033.0694
        -0.000          -0.000
  -8656364.145 8  -6728383.47645  24330892.453    24330892.5844   24330903.3704
        -0.000          -0.000
 -15956236.675 9 -11198463.23547  22550916.613    22550915.9964   22550925.6904
        -0.000          -0.000
 99  2 18  0 30 30.0000000  0  8 24  4  8 30  9  5  6 10            -0.000000038
 -27300383.764 9 -19207503.02349  20269671.280    20269671.2794   20269678.7914
        -0.000          -0.000
 -16551481.069 9 -10240308.97547  22203041.148    22203041.5044   22203049.2954
        -0.000          -0.000
 -18664923.699 9 -14257808.43247  21735127.872    21735127.5144   21735135.9444
        -0.000          -0.000
 -15619358.177 9 -11464654.92747  22703103.409    22703103.8394   22703112.1614
        -0.000          -0.000
 -14069495.394 9  -8764220.46647  22913946.344    22913946.3354   22913955.3104
        -0.000          -0.000
 -27618018.367 9 -21131432.64849  20414888.625    20414888.2974   20414895.3284
        -0.000          -0.000
  -8724362.482 8  -6781369.03245  24317952.620    24317952.8724   24317963.5484
        -0.000          -0.000
 -16041210.238 9 -11264676.30747  22534746.619    22534746.0304   22534755.5824
        -0.000          -0.000
 99  2 18  0 31  0.0000000  0  8 24  4  8 30  9  5  6 10            -0.000000027
 -27284060.398 9 -19194783.50149  20272777.533    20272777.5384   20272785.0624
        -0.000          -0.000
 -16464809.168 9 -10172772.45247  22219534.279    22219534.5964   22219542.4114
        -0.000          -0.000
 -18630156.933 9 -14230717.46047  21741743.790    21741743.4344   21741751.8564
        -0.000          -0.000
 -15710931.802 9 -11536010.90247  22685677.449    22685677.8534   22685686.1544
        -0.000          -0.000
 -13987299.703 9  -8700171.92847  22929587.678    22929587.6774   22929596.6694
        -0.000          -0.000
 -27649818.122 9 -21156211.66149  20408837.279    20408836.9564   20408843.9824
        -0.000          -0.000
  -8792320.707 8  -6834323.32545  24305020.488    24305020.7154   24305031.3624
        -0.000          -0.000
 -16125902.535 9 -11330670.20447  22518630.114    22518629.4874   22518639.1234
        -0.000          -0.000
 99  2 18  0 31 30.0000000  0  8 24  4  8 30  9  5  6 10            -0.000000025
 -27267291.299 9 -19181716.65549  20275968.559    20275968.5694   20275976.0774
        -0.000          -0.000
 -16377925.429 9 -10105070.85647  22236067.752    22236068.0604   22236075.8624
        -0.000          -0.000
 -18594833.339 9 -14203192.59447  21748465.632    21748465.3014   21748473.7394
        -0.000          -0.000
 -15802375.001 9 -11607265.25347  22668276.303    22668276.7094   22668284.9414
        -0.000          -0.000
 -13904937.100 9  -8635993.31847  22945260.779    22945260.7864   22945269.7984
        -0.000          -0.000
 -27681175.562 9 -21180646.01049  20402870.130    20402869.8274   20402876.8354
        -0.000          -0.000
  -8860260.949 8  -6887263.60745  24292091.702    24292091.8454   24292102.5444
        -0.000          -0.000
 -16210327.381 9 -11396455.72347  22502564.534    22502563.9194   22502573.4424
        -0.000          -0.000
 99  2 18  0 32  0.0000000  0  8 24  4  8 30  9  5  6 10            -0.000000018
 -27250060.811 9 -19168290.28649  20279247.367    20279247.3994   20279254.8964
        -0.000          -0.000
 -16290815.645 9 -10037193.12747  22252644.264    22252644.5644   22252652.3684
        -0.000          -0.000
 -18558937.960 9 -14175222.18547  21755296.322    21755295.9824   21755304.4424
        -0.000          -0.000
 -15893631.131 9 -11678373.82347  22650910.800    22650911.1804   22650919.3824
        -0.000          -0.000
 -13822373.681 9  -8571658.23147  22960972.071    22960972.1004   22960981.1164
        -0.000          -0.000
 -27712066.571 9 -21204716.90349  20396991.754    20396991.4274   20396998.4464
        -0.000          -0.000
  -8928164.556 8  -6940175.36345  24279170.011    24279170.1914   24279180.8424
        -0.000          -0.000
 -16294479.456 9 -11462028.66447  22486550.859    22486550.2654   22486559.7644
        -0.000          -0.000
 99  2 18  0 32 30.0000000  0  8 24  4  8 30  9  5  6 10            -0.000000024
 -27232367.234 9 -19154503.07249  20282614.332    20282614.3284   20282621.8394
        -0.000          -0.000
 -16203503.300 9  -9969157.55347  22269259.282    22269259.5634   22269267.3514
        -0.000          -0.000
 -18522496.745 9 -14146826.44947  21762230.852    21762230.5014   21762238.9764
        -0.000          -0.000
 -15984684.456 9 -11749324.36447  22633583.824    22633584.2464   22633592.4434
        -0.000          -0.000
 -13739620.336 9  -8507175.15147  22976719.564    22976719.6084   22976728.6314
        -0.000          -0.000
 -27742492.202 9 -21228425.16849  20391201.933    20391201.6154   20391208.6224
        -0.000          -0.000
  -8996059.117 8  -6993080.06546  24266250.070    24266250.1254   24266260.7544
        -0.000          -0.000
 -16378366.861 9 -11527395.38747  22470587.546    22470586.9374   22470596.3944
        -0.000          -0.000
 99  2 18  0 33  0.0000000  0  8 24  4  8 30  9  5  6 10            -0.000000038
 -27214201.420 9 -19140347.88149  20286071.173    20286071.1854   20286078.6974
        -0.000          -0.000
 -16115995.627 9  -9900969.78447  22285911.477    22285911.7444   22285919.5284
        -0.000          -0.000
 -18485516.016 9 -14118010.30947  21769268.042    21769267.6894   21769276.1794
        -0.000          -0.000
 -16075511.774 9 -11820098.80547  22616299.902    22616300.3314   22616308.4684
        -0.000          -0.000
 -13656654.030 9  -8442526.12547  22992507.551    22992507.5884   22992516.5754
        -0.000          -0.000
 -27772439.481 9 -21251760.69749  20385503.150    20385502.8204   20385509.8364
        -0.000          -0.000
  -9063934.150 9  -7045969.56546  24253333.848    24253333.9264   24253344.4764
        -0.000          -0.000
 -16461980.895 9 -11592549.07547  22454676.251    22454675.6814   22454685.0814
        -0.000          -0.000
 99  2 18  0 33 30.0000000  0  8 24  4  8 30  9  5  6 10            -0.000000051
 -27195570.907 9 -19125830.58949  20289616.420    20289616.4314   20289623.9514
        -0.000          -0.000
 -16028301.417 9  -9832636.65747  22302599.140    22302599.4324   22302607.2394
        -0.000          -0.000
 -18448001.864 9 -14088778.52147  21776406.738    21776406.3974   21776414.8914
        -0.000          -0.000
 -16166096.113 9 -11890683.91347  22599062.187    22599062.6554   22599070.7144
        -0.000          -0.000
 -13573447.469 9  -8377689.88947  23008341.242    23008341.3174   23008350.2984
        -0.000          -0.000
 -27801918.928 9 -21274731.67749  20379893.363    20379893.0544   20379900.0754
        -0.000          -0.000
  -9131791.106 8  -7098844.96746  24240420.931    24240421.0264   24240431.6174
        -0.000          -0.000
 -16545310.770 9 -11657481.33747  22438818.995    22438818.4094   22438827.8694
        -0.000          -0.000
 99  2 18  0 34  0.0000000  0  8 24  4  8 30  9  5  6 10            -0.000000060
 -27176474.166 9 -19110950.00149  20293250.403    20293250.4054   20293257.9174
        -0.000          -0.000
 -15940423.996 9  -9764160.77647  22319321.667    22319321.9954   22319329.7684
        -0.000          -0.000
 -18409960.505 9 -14059135.92347  21783645.822    21783645.4664   21783653.9824
        -0.000          -0.000
 -16256421.563 9 -11961067.28047  22581873.751    22581874.2444   22581882.2794
        -0.000          -0.000
 -13490009.755 9  -8312673.53747  23024218.960    23024218.9754   23024228.0054
        -0.000          -0.000
 -27830918.622 9 -21297328.83049  20374374.916    20374374.6044   20374381.6014
        -0.000          -0.000
  -9199630.541 8  -7151706.71846  24227511.370    24227511.4634   24227522.1734
        -0.000          -0.000
 -16628340.109 9 -11722179.42247  22423018.979    22423018.3984   22423027.7904
        -0.000          -0.000
 99  2 18  0 34 30.0000000  0  8 24  4  8 30  9  5  6 10            -0.000000069
 -27156906.545 9 -19095702.48749  20296973.952    20296973.9474   20296981.4714
        -0.000          -0.000
 -15852368.680 9  -9695546.28147  22336078.047    22336078.3844   22336086.1844
        -0.000          -0.000
 -18371409.674 9 -14029096.32947  21790981.801    21790981.4284   21790989.9614
        -0.000          -0.000
 -16346514.998 9 -12031269.86647  22564729.517    22564729.9634   22564737.9714
        -0.000          -0.000
 -13406357.712 9  -8247490.17247  23040137.461    23040137.4954   23040146.5114
        -0.000          -0.000
 -27859456.139 9 -21319565.83749  20368944.395    20368944.0834   20368951.1034
        -0.000          -0.000
  -9267456.150 8  -7204557.69946  24214604.428    24214604.5284   24214615.2814
        -0.000          -0.000
 -16711064.514 9 -11786639.88647  22407276.939    22407276.4064   22407285.8184
        -0.000          -0.000
 99  2 18  0 35  0.0000000  0  8 24  4  8 30  9  5  6 10            -0.000000065
 -27136867.458 9 -19080087.60749  20300787.211    20300787.2374   20300794.7384
        -0.000          -0.000
 -15764113.890 9  -9626776.34947  22352872.404    22352872.7184   22352880.4684
        -0.000          -0.000
 -18332348.872 9 -13998659.36047  21798414.850    21798414.4424   21798422.9794
        -0.000          -0.000
 -16436381.292 9 -12101295.46647  22547628.489    22547628.9024   22547636.8164
        -0.000          -0.000
 -13322488.889 9  -8182137.88947  23056097.156    23056097.2064   23056106.2614
        -0.000          -0.000
 -27887530.984 9 -21341442.32349  20363601.917    20363601.5924   20363608.5994
        -0.000          -0.000
  -9335259.072 9  -7257391.01346  24201701.892    24201701.9014   24201712.7234
        -0.000          -0.000
 -16793476.396 9 -11850856.83547  22391594.465    22391593.8534   22391603.1974
        -0.000          -0.000
 99  2 18  0 35 30.0000000  0  8 24  4  8 30  9  5  6 10            -0.000000061
 -27116384.782 9 -19064127.07449  20304684.931    20304684.9594   20304692.4584
        -0.000          -0.000
 -15675666.867 9  -9557856.63647  22369703.380    22369703.6964   22369711.4424
        -0.000          -0.000
 -18292791.773 9 -13967835.67047  21805942.315    21805941.9404   21805950.4634
        -0.000          -0.000
 -16526043.132 9 -12171161.74047  22530566.311    22530566.7234   22530574.6844
        -0.000          -0.000
 -13238450.478 9  -8116653.44447  23072089.172    23072089.2164   23072098.2484
        -0.000          -0.000
 -27915157.951 9 -21362969.81549  20358344.662    20358344.3324   20358351.3324
        -0.000          -0.000
  -9403058.763 9  -7310221.82746  24188799.981    24188799.9724   24188810.7634
        -0.000          -0.000
 -16875601.946 9 -11914850.65647  22375966.400    22375965.8214   22375975.1944
        -0.000          -0.000
 99  2 18  0 36  0.0000000  0  8 24  4  8 30  9  5  6 10            -0.000000066
 -27095457.561 9 -19047820.14549  20308667.267    20308667.2924   20308674.7704
        -0.000          -0.000
 -15587030.387 9  -9488789.28547  22386570.341    22386570.6604   22386578.4324
        -0.000          -0.000
 -18252728.726 9 -13936617.72847  21813566.059    21813565.6834   21813574.2154
        -0.000          -0.000
 -16615511.634 9 -12240877.37147  22513540.978    22513541.4304   22513549.3264
        -0.000          -0.000
 -13154265.237 9  -8051054.59847  23088109.144    23088109.1644   23088118.2324
        -0.000          -0.000
 -27942323.883 9 -21384138.05549  20353175.157    20353174.8304   20353181.8324
        -0.000          -0.000
  -9470839.058 9  -7363037.54446  24175901.844    24175901.8414   24175912.4484
        -0.000          -0.000
 -16957448.056 9 -11978626.74047  22360391.519    22360390.9144   22360400.2044
        -0.000          -0.000
 99  2 18  0 36 30.0000000  0  8 24  4  8 30  9  5  6 10            -0.000000065
 -27074092.837 9 -19031172.29949  20312732.894    20312732.8784   20312740.3634
        -0.000          -0.000
 -15498194.402 9  -9419566.48147  22403475.291    22403475.6464   22403483.3984
        -0.000          -0.000
 -18212152.655 9 -13905000.02847  21821287.435    21821287.0574   21821295.6104
        -0.000          -0.000
 -16704796.164 9 -12310449.64447  22496550.627    22496551.0424   22496558.8964
        -0.000          -0.000
 -13069940.215 9  -7985346.82747  23104155.628    23104155.6554   23104164.6554
        -0.000          -0.000
 -27969038.742 9 -21404954.80749  20348091.432    20348091.1204   20348098.1004
        -0.000          -0.000
  -9538590.399 9  -7415830.70546  24163009.159    24163009.1174   24163019.6004
        -0.000          -0.000
 -17039002.281 9 -12042175.36247  22344872.129    22344871.5584   22344880.8994
        -0.000          -0.000
 99  2 18  0 37  0.0000000  0  8 24  4  8 30  9  5  6 10            -0.000000050
 -27052298.083 9 -19014189.37049  20316880.259    20316880.2664   20316887.7444
        -0.000          -0.000
 -15409158.194 9  -9350187.65247  22420418.340    22420418.6874   22420426.4184
        -0.000          -0.000
 -18171050.198 9 -13872972.16147  21829109.004    21829108.6524   21829117.1884
        -0.000          -0.000
 -16793882.288 9 -12379867.32047  22479598.098    22479598.4784   22479606.2844
        -0.000          -0.000
 -12985476.112 9  -7919530.68947  23120228.654    23120228.6894   23120237.6574
        -0.000          -0.000
 -27995289.999 9 -21425410.31349  20343095.980    20343095.6684   20343102.6314
        -0.000          -0.000
  -9606297.816 9  -7468589.63946  24150124.736    24150124.6874   24150135.1144
        -0.000          -0.000
 -17120250.001 9 -12105485.15747  22329411.099    22329410.5514   22329419.8044
        -0.000          -0.000
 99  2 18  0 37 30.0000000  0  8 24  4  8 30  9  5  6 10            -0.000000032
 -27030096.793 9 -18996889.65649  20321104.994    20321105.0224   20321112.4974
        -0.000          -0.000
 -15319948.850 9  -9280673.90847  22437394.344    22437394.7054   22437402.4634
        -0.000          -0.000
 -18129432.035 9 -13840542.44147  21837028.672    21837028.3204   21837036.8794
        -0.000          -0.000
 -16882775.852 9 -12449134.93447  22462682.188    22462682.5494   22462690.3794
        -0.000          -0.000
 -12900893.111 9  -7853621.91547  23136324.346    23136324.3564   23136333.3634
        -0.000          -0.000
 -28021097.205 9 -21445519.80649  20338185.054    20338184.7384   20338191.6934
        -0.000          -0.000
  -9673980.330 9  -7521329.15046  24137245.073    24137244.9934   24137255.3684
        -0.000          -0.000
 -17201210.505 9 -12168571.14747  22314004.761    22314004.1774   22314013.4504
        -0.000          -0.000
 99  2 18  0 38  0.0000000  0  8 24  4  8 30  9  5  6 10            -0.000000008
 -27007489.768 9 -18979273.78249  20325406.985    20325407.0044   20325414.4734
        -0.000          -0.000
 -15230568.991 9  -9211027.30447  22454402.799    22454403.1604   22454410.9324
        -0.000          -0.000
 -18087304.648 9 -13807715.92147  21845045.277    21845044.9204   21845053.4714
        -0.000          -0.000
 -16971468.951 9 -12518246.34747  22445804.322    22445804.7134   22445812.4984
        -0.000          -0.000
 -12816168.783 9  -7787602.98847  23152446.838    23152446.9044   23152455.8804
        -0.000          -0.000
 -28046466.913 9 -21465288.38749  20333357.318    20333357.0004   20333363.9584
        -0.000          -0.000
  -9741655.094 9  -7574062.61346  24124366.865    24124366.8594   24124377.1504
        -0.000          -0.000
 -17281868.775 9 -12231421.63247  22298655.950    22298655.3624   22298664.5514
        -0.000          -0.000
 99  2 18  0 38 30.0000000  0  8 24  4  8 30  9  5  6 10             0.000000016
 -26984492.478 9 -18961353.80849  20329783.212    20329783.2044   20329790.6824
        -0.000          -0.000
 -15141035.966 9  -9141261.34247  22471440.405    22471440.7354   22471448.4844
        -0.000          -0.000
 -18044688.595 9 -13774508.62747  21853154.841    21853154.4864   21853163.0384
        -0.000          -0.000
 -17059963.388 9 -12587202.97947  22428964.284    22428964.7314   22428972.4244
        -0.000          -0.000
 -12731312.568 9  -7721481.30847  23168594.476    23168594.5264   23168603.5394
        -0.000          -0.000
 -28071416.415 9 -21484729.54149  20328609.587    20328609.2774   20328616.2234
        -0.000          -0.000
  -9809345.048 9  -7626807.91546  24111485.770    24111485.7864   24111496.0784
        -0.000          -0.000
 -17362230.784 9 -12294041.26447  22283363.439    22283362.8894   22283372.1014
        -0.000          -0.000
 99  2 18  0 39  0.0000000  0  8 24  4  8 30  9  5  6 10             0.000000027
 -26961102.698 9 -18943128.00049  20334234.141    20334234.1334   20334241.6234
        -0.000          -0.000
 -15051362.150 9  -9071385.67147  22488504.707    22488505.0824   22488512.8804
        -0.000          -0.000
 -18001583.652 9 -13740920.38447  21861357.448    21861357.0774   21861365.6484
        -0.000          -0.000
 -17148252.738 9 -12655999.78947  22412163.396    22412163.8124   22412171.4924
        -0.000          -0.000
 -12646311.086 9  -7655246.43447  23184769.805    23184769.8184   23184778.8494
        -0.000          -0.000
 -28095934.089 9 -21503834.21249  20323944.019    20323943.6974   20323950.6354
        -0.000          -0.000
  -9877055.857 9  -7679569.48046  24098600.757    24098600.7464   24098611.0254
        -0.000          -0.000
 -17442317.467 9 -12356446.35147  22268123.388    22268122.8004   22268131.9794
        -0.000          -0.000
 99  2 18  0 39 30.0000000  0  8 24  4  8 30  9  5  6 10             0.000000032
 -26937294.768 9 -18924576.35649  20338764.599    20338764.6064   20338772.0914
        -0.000          -0.000
 -14961534.864 9  -9001390.41147  22505598.268    22505598.6484   22505606.5034
        -0.000          -0.000
 -17957962.276 9 -13706929.71747  21869658.286    21869657.9114   21869666.5154
        -0.000          -0.000
 -17236306.557 9 -12724613.06847  22395407.238    22395407.6424   22395415.3454
        -0.000          -0.000
 -12561136.477 9  -7588876.65547  23200977.974    23200977.9984   23200987.0704
        -0.000          -0.000
 -28119982.599 9 -21522573.30049  20319367.731    20319367.4154   20319374.3514
        -0.000          -0.000
  -9944768.353 9  -7732332.36646  24085715.527    24085715.5464   24085725.7314
        -0.000          -0.000
 -17522105.139 9 -12418618.46647  22252940.219    22252939.6604   22252948.8304
        -0.000          -0.000
 99  2 18  0 40  0.0000000  0  8 24  4  8 30  9  5  6 10             0.000000024
 -26913067.442 9 -18905697.91449  20343374.925    20343374.9354   20343382.4344
        -0.000          -0.000
 -14871565.310 9  -8931284.29747  22522718.964    22522719.3364   22522727.1124
        -0.000          -0.000
 -17913830.617 9 -13672541.43147  21878056.239    21878055.8974   21878064.4954
        -0.000          -0.000
 -17324138.214 9 -12793053.24347  22378693.348    22378693.7934   22378701.4564
        -0.000          -0.000
 -12475785.044 9  -7522369.09546  23217219.877    23217219.8934   23217228.9884
        -0.000          -0.000
 -28143552.740 9 -21540939.62849  20314882.450    20314882.1304   20314889.0654
        -0.000          -0.000
 -10012479.210 9  -7785093.97446  24072830.573    24072830.5474   24072840.6884
        -0.000          -0.000
 -17601587.142 9 -12480552.39347  22237815.208    22237814.6214   22237823.7634
        -0.000          -0.000
 99  2 18  0 40 30.0000000  0  8 24  4  8 30  9  5  6 10             0.000000016
 -26888403.115 9 -18886478.95349  20348068.422    20348068.4354   20348075.9254
        -0.000          -0.000
 -14781439.750 9  -8861056.60447  22539869.312    22539869.7034   22539877.4844
        -0.000          -0.000
 -17869170.120 9 -13637741.06847  21886554.907    21886554.5644   21886563.1304
        -0.000          -0.000
 -17411737.312 9 -12861312.20247  22362023.698    22362024.1134   22362031.7624
        -0.000          -0.000
 -12390248.011 9  -7455716.91947  23233497.051    23233497.0454   23233506.1754
        -0.000          -0.000
 -28166611.976 9 -21558907.84349  20310494.421    20310494.0984   20310501.0444
        -0.000          -0.000
 -10080147.645 9  -7837822.53146  24059953.670    24059953.6614   24059963.6194
        -0.000          -0.000
 -17680742.465 9 -12542231.76547  22222752.402    22222751.7704   22222760.9004
        -0.000          -0.000
 99  2 18  0 41  0.0000000  0  8 24  4  8 30  9  5  6 10             0.000000001
 -26863314.189 9 -18866929.13049  20352842.643    20352842.6604   20352850.1734
        -0.000          -0.000
 -14691171.993 9  -8790718.11147  22557046.706    22557047.0914   22557054.9244
        -0.000          -0.000
 -17823999.760 9 -13602543.40447  21895150.573    21895150.2334   21895158.7944
        -0.000          -0.000
 -17499101.196 9 -12929387.88247  22345398.829    22345399.2424   22345406.9114
        -0.000          -0.000
 -12304549.915 9  -7388939.23746  23249804.880    23249804.9144   23249814.0154
        -0.000          -0.000
 -28189165.225 9 -21576481.78649  20306202.626    20306202.3094   20306209.2694
        -0.000          -0.000
 -10147785.829 9  -7890527.50846  24047082.468    24047082.3924   24047092.3704
        -0.000          -0.000
 -17759564.611 9 -12603651.53147  22207752.959    22207752.3334   22207761.4174
        -0.000          -0.000
 99  2 18  0 41 30.0000000  0  8 24  4  8 30  9  5  6 10            -0.000000003
 -26837772.895 9 -18847026.80849  20357702.985    20357702.9964   20357710.5084
        -0.000          -0.000
 -14600742.345 9  -8720253.47747  22574254.929    22574255.2884   22574263.0804
        -0.000          -0.000
 -17778304.431 9 -13566936.67047  21903846.078    21903845.7434   21903854.3214
        -0.000          -0.000
 -17586192.434 9 -12997251.10347  22328825.910    22328826.3154   22328833.9644
        -0.000          -0.000
 -12218685.303 9  -7322031.80546  23266144.406    23266144.4234   23266153.5394
        -0.000          -0.000
 -28211191.778 9 -21593645.31549  20302011.115    20302010.7904   20302017.7374
        -0.000          -0.000
 -10215372.139 9  -7943192.04846  24034221.070    24034220.9954   24034231.0334
        -0.000          -0.000
 -17838009.464 9 -12664777.30047  22192825.297    22192824.6474   22192833.7314
        -0.000          -0.000
 99  2 18  0 42  0.0000000  0  8 24  4  8 30  9  5  6 10             0.000000000
 -26811791.347 9 -18826781.43349  20362647.092    20362647.1034   20362654.6124
        -0.000          -0.000
 -14510153.975 9  -8649665.15447  22591493.320    22591493.7044   22591501.5164
        -0.000          -0.000
 -17732114.915 9 -13530944.86547  21912635.675    21912635.3384   21912643.9534
        -0.000          -0.000
 -17673014.293 9 -13064904.43147  22312304.146    22312304.5534   22312312.2014
        -0.000          -0.000
 -12132678.499 9  -7255013.56046  23282510.982    23282510.9834   23282520.1014
        -0.000          -0.000
 -28232719.762 9 -21610420.35949  20297914.443    20297914.1264   20297921.0724
        -0.000          -0.000
 -10282924.209 9  -7995829.91046  24021366.231    24021366.1944   24021376.2134
        -0.000          -0.000
 -17916092.361 9 -12725621.05047  22177966.531    22177965.8944   22177974.8874
        -0.000          -0.000
 99  2 18  0 42 30.0000000  0  8 24  4  8 30  9  5  6 10             0.000000003
 -26785385.963 9 -18806205.79749  20367671.867    20367671.8944   20367679.3724
        -0.000          -0.000
 -14419420.425 9  -8578963.70547  22608759.373    22608759.7214   22608767.5794
        -0.000          -0.000
 -17685454.577 9 -13494586.19747  21921514.846    21921514.5014   21921523.1424
        -0.000          -0.000
 -17759566.712 9 -13132347.80547  22295833.719    22295834.1354   22295841.7614
        -0.000          -0.000
 -12046572.001 9  -7187917.62947  23298896.582    23298896.5694   23298905.6984
        -0.000          -0.000
 -28253772.855 9 -21626825.35549  20293908.154    20293907.8404   20293914.7864
        -0.000          -0.000
 -10350458.348 9  -8048453.80346  24008514.825    24008514.7614   24008524.7894
        -0.000          -0.000
 -17993829.264 9 -12786195.18047  22163173.611    22163172.9944   22163181.9904
        -0.000          -0.000
 99  2 18  0 43  0.0000000  0  8 24  4  8 30  9  5  6 10             0.000000006
 -26758537.316 9 -18785284.75849  20372781.006    20372780.9974   20372788.4864
        -0.000          -0.000
 -14328528.106 9  -8508138.54147  22626055.624    22626056.0074   22626063.8494
        -0.000          -0.000
 -17638308.356 9 -13457848.90247  21930486.487    21930486.1704   21930494.8204
        -0.000          -0.000
 -17845825.069 9 -13199562.03347  22279419.291    22279419.6594   22279427.3194
        -0.000          -0.000
 -11960360.512 9  -7120739.88946  23315302.093    23315302.0924   23315311.2994
        -0.000          -0.000
 -28274344.403 9 -21642855.12049  20289993.532    20289993.2204   20290000.1624
        -0.000          -0.000
 -10417968.306 9  -8101058.85446  23995668.064    23995667.9954   23995678.0234
        -0.000          -0.000
 -18071217.540 9 -12846497.66647  22148447.052    22148446.4104   22148455.3484
        -0.000          -0.000
 99  2 18  0 43 30.0000000  0  8 24  4  8 30  9  5  6 10             0.000000004
 -26731261.750 9 -18764031.05849  20377971.335    20377971.3444   20377978.8154
        -0.000          -0.000
 -14237487.294 9  -8437197.66447  22643380.176    22643380.5544   22643388.3774
        -0.000          -0.000
 -17590673.915 9 -13420731.18647  21939551.058    21939550.7354   21939559.3624
        -0.000          -0.000
 -17931808.620 9 -13266562.13647  22263057.025    22263057.4464   22263065.0444
        -0.000          -0.000
 -11874037.159 9  -7053474.98746  23331728.848    23331728.8404   23331738.0944
        -0.000          -0.000
 -28294446.512 9 -21658519.09049  20286168.204    20286167.8984   20286174.8124
        -0.000          -0.000
 -10485458.562 9  -8153648.56346  23982825.062    23982825.0264   23982835.0194
        -0.000          -0.000
 -18148295.740 9 -12906558.53347  22133779.480    22133778.8644   22133787.8084
        -0.000          -0.000
 99  2 18  0 44  0.0000000  0  8 24  4  8 30  9  5  6 10             0.000000002
 -26703574.326 9 -18742456.42449  20383240.067    20383240.0674   20383247.5354
        -0.000          -0.000
 -14146294.023 9  -8366137.99947  22660733.686    22660734.0314   22660741.8724
        -0.000          -0.000
 -17542559.795 9 -13383239.69647  21948706.914    21948706.5864   21948715.2094
        -0.000          -0.000
 -18017534.902 9 -13333361.76847  22246743.834    22246744.2304   22246751.8124
        -0.000          -0.000
 -11787593.341 9  -6986116.21346  23348178.560    23348178.5624   23348187.8504
        -0.000          -0.000
 -28314073.080 9 -21673812.50849  20282433.415    20282433.1144   20282440.0134
        -0.000          -0.000
 -10552931.047 9  -8206224.41346  23969985.355    23969985.3544   23969995.2874
        -0.000          -0.000
 -18225058.284 9 -12966373.43947  22119171.949    22119171.3764   22119180.2814
        -0.000          -0.000
 99  2 18  0 44 30.0000000  0  8 24  4  8 30  9  5  6 10            -0.000000006
 -26675496.100 9 -18720577.27349  20388583.192    20388583.1784   20388590.6524
        -0.000          -0.000
 -14054964.073 9  -8294971.81647  22678113.144    22678113.5194   22678121.3654
        -0.000          -0.000
 -17493965.497 9 -13345374.04147  21957954.143    21957953.8054   21957962.4494
        -0.000          -0.000
 -18103028.619 9 -13399980.17247  22230474.811    22230475.2034   22230482.8404
        -0.000          -0.000
 -11701031.593 9  -6918665.55746  23364650.790    23364650.7994   23364660.0804
        -0.000          -0.000
 -28333227.224 9 -21688737.79549  20278788.481    20278788.1674   20278795.0734
        -0.000          -0.000
 -10620399.083 9  -8258796.78946  23957146.484    23957146.5434   23957156.3414
        -0.000          -0.000
 -18301505.384 9 -13025942.54147  22104624.543    22104623.9374   22104632.8254
        -0.000          -0.000
 99  2 18  0 45  0.0000000  0  8 24  4  8 30  9  5  6 10            -0.000000010
 -26647018.780 9 -18698387.14249  20394002.219    20394002.2264   20394009.6954
        -0.000          -0.000
 -13963490.787 9  -8223693.95247  22695519.945    22695520.3084   22695528.2114
        -0.000          -0.000
 -17444876.133 9 -13307122.62047  21967295.531    21967295.2184   21967303.8584
        -0.000          -0.000
 -18188270.968 9 -13466402.72547  22214253.653    22214254.1014   22214261.6704
        -0.000          -0.000
 -11614318.074 9  -6851096.62346  23381151.906    23381151.8854   23381161.2004
        -0.000          -0.000
 -28351886.148 9 -21703277.19749  20275237.814    20275237.5154   20275244.3914
        -0.000          -0.000
 -10687855.120 9  -8311359.82745  23944309.887    23944309.8504   23944319.6824
        -0.000          -0.000
 -18377614.972 9 -13085248.65247  22090141.324    22090140.7344   22090149.5834
        -0.000          -0.000
 99  2 18  0 45 30.0000000  0  8 24  4  8 30  9  5  6 10            -0.000000012
 -26618163.387 9 -18675902.40749  20399493.212    20399493.2154   20399500.6804
        -0.000          -0.000
 -13871890.348 9  -8152317.00347  22712950.996    22712951.2914   22712959.1744
        -0.000          -0.000
 -17395311.860 9 -13268501.13347  21976727.338    21976727.0284   21976735.6484
        -0.000          -0.000
 -18273266.944 9 -13532633.27447  22198079.437    22198079.8594   22198087.4224
        -0.000          -0.000
 -11527463.397 9  -6783417.70746  23397679.762    23397679.7934   23397689.1364
        -0.000          -0.000
 -28370050.677 9 -21717431.36149  20271781.201    20271780.8984   20271787.7844
        -0.000          -0.000
 -10755315.424 9  -8363926.19245  23931472.465    23931472.4474   23931482.3494
        -0.000          -0.000
 -18453369.485 9 -13144278.07447  22075725.658    22075725.0644   22075733.9264
        -0.000          -0.000
 99  2 18  0 46  0.0000000  0  8 24  4  8 30  9  5  6 10            -0.000000017
 -26588925.552 9 -18653119.66649  20405056.944    20405056.9734   20405064.4324
        -0.000          -0.000
 -13780167.271 9  -8080844.47947  22730405.333    22730405.6684   22730413.4964
        -0.000          -0.000
 -17345289.808 9 -13229522.94547  21986246.267    21986245.9584   21986254.5854
        -0.000          -0.000
 -18358008.312 9 -13598665.44147  22181953.597    22181954.0534   22181961.5524
        -0.000          -0.000
 -11440489.965 9  -6715646.26146  23414230.320    23414230.3164   23414239.7224
        -0.000          -0.000
 -28387714.413 9 -21731195.29749  20268419.899    20268419.6154   20268426.5014
        -0.000          -0.000
 -10822781.241 9  -8416496.84746  23918634.093    23918634.0044   23918643.9054
        -0.000          -0.000
 -18528745.707 9 -13203012.72947  22061381.988    22061381.4044   22061390.2124
        -0.000          -0.000
 99  2 18  0 46 30.0000000  0  8 24  4  8 30  9  5  6 10            -0.000000028
 -26559285.323 9 -18630023.37649  20410697.316    20410697.3184   20410704.7934
        -0.000          -0.000
 -13688327.938 9  -8009281.38147  22747881.766    22747882.0694   22747889.9604
        -0.000          -0.000
 -17294802.008 9 -13190181.82947  21995853.790    21995853.4774   21995862.1064
        -0.000          -0.000
 -18442460.872 9 -13664472.55447  22165882.779    22165883.2084   22165890.6854
        -0.000          -0.000
 -11353410.402 9  -6647792.11147  23430801.039    23430801.0944   23430810.4394
        -0.000          -0.000
 -28404871.951 9 -21744564.79349  20265154.935    20265154.6254   20265161.5004
        -0.000          -0.000
 -10890235.261 9  -8469058.30646  23905798.002    23905797.8314   23905807.7434
        -0.000          -0.000
 -18603744.330 9 -13261453.14047  22047110.195    22047109.6144   22047118.4344
        -0.000          -0.000
 99  2 18  0 47  0.0000000  0  8 24  4  8 30  9  5  6 10            -0.000000038
 -26529212.503 9 -18606590.00349  20416419.943    20416419.9474   20416427.4444
        -0.000          -0.000
 -13596357.368 9  -7937616.00747  22765383.152    22765383.4734   22765391.4094
        -0.000          -0.000
 -17243836.232 9 -13150468.26247  22005552.243    22005551.9144   22005560.5634
        -0.000          -0.000
 -18526590.168 9 -13730027.78047  22149873.454    22149873.8924   22149881.4074
        -0.000          -0.000
 -11266214.170 9  -6579847.05246  23447394.022    23447394.0974   23447403.3644
        -0.000          -0.000
 -28421501.010 9 -21757522.48849  20261990.502    20261990.1864   20261997.0634
        -0.000          -0.000
 -10957650.659 9  -8521589.65646  23892969.150    23892969.0824   23892978.9374
        -0.000          -0.000
 -18678340.781 9 -13319580.17947  22032914.916    22032914.3114   22032923.0834
        -0.000          -0.000
 99  2 18  0 47 30.0000000  0  8 24  4  8 30  9  5  6 10            -0.000000056
 -26498720.947 9 -18582830.34149  20422222.267    20422222.2804   20422229.7724
        -0.000          -0.000
 -13504271.026 9  -7865860.41447  22782906.580    22782906.9424   22782914.8644
        -0.000          -0.000
 -17192414.231 9 -13110399.19547  22015337.518    22015337.2194   22015345.8784
        -0.000          -0.000
 -18610429.388 9 -13795356.97747  22133919.345    22133919.7664   22133927.2244
        -0.000          -0.000
 -11178931.386 9  -6511834.54346  23464003.469    23464003.5384   23464012.7724
        -0.000          -0.000
 -28437629.056 9 -21770089.78249  20258921.438    20258921.1214   20258927.9804
        -0.000          -0.000
 -11025035.607 9  -8574097.25446  23880146.035    23880145.9504   23880155.8874
        -0.000          -0.000
 -18752554.400 9 -13377408.90047  22018792.509    22018791.8984   22018800.6604
        -0.000          -0.000
 99  2 18  0 48  0.0000000  0  8 24  4  8 30  9  5  6 10            -0.000000079
 -26467784.960 9 -18558724.36749  20428109.237    20428109.2544   20428116.7314
        -0.000          -0.000
 -13412057.371 9  -7794005.62847  22800454.291    22800454.6244   22800462.5584
        -0.000          -0.000
 -17140522.650 9 -13069964.21847  22025212.171    22025211.8434   22025220.5564
        -0.000          -0.000
 -18693979.216 9 -13860460.65947  22118020.287    22118020.6934   22118028.1794
        -0.000          -0.000
 -11091556.323 9  -6443750.13746  23480630.423    23480630.4584   23480639.7384
        -0.000          -0.000
 -28453253.389 9 -21782264.57149  20255948.206    20255947.8894   20255954.7644
        -0.000          -0.000
 -11092373.635 9  -8626568.32746  23867331.895    23867331.8104   23867341.7624
        -0.000          -0.000
 -18826391.076 9 -13434943.89947  22004741.794    22004741.2254   22004749.9244
        -0.000          -0.000
 99  2 18  0 48 30.0000000  0  8 24  4  8 30  9  5  6 10            -0.000000093
 -26436404.141 9 -18534271.77249  20434080.820    20434080.8104   20434088.2954
        -0.000          -0.000
 -13319705.416 9  -7722043.05947  22818028.283    22818028.6184   22818036.5054
        -0.000          -0.000
 -17088139.028 9 -13029145.83447  22035180.462    22035180.1124   22035188.8484
        -0.000          -0.000
 -18777245.890 9 -13925343.71347  22102175.161    22102175.5624   22102183.0244
        -0.000          -0.000
 -11004065.475 9  -6375575.50846  23497279.460    23497279.5024   23497288.7984
        -0.000          -0.000
 -28468370.806 9 -21794044.35949  20253071.445    20253071.1414   20253077.9994
        -0.000          -0.000
 -11159659.163 9  -8678998.49346  23854527.810    23854527.7444   23854537.6654
        -0.000          -0.000
 -18899839.562 9 -13492176.40447  21990764.965    21990764.3614   21990773.1044
        -0.000          -0.000
 99  2 18  0 49  0.0000000  0  8 24  4  8 30  9  5  6 10            -0.000000099
 -26404597.246 9 -18509487.17049  20440133.419    20440133.4504   20440140.9204
        -0.000          -0.000
 -13227219.979 9  -7649976.49547  22835627.587    22835627.9844   22835635.9404
        -0.000          -0.000
 -17035271.942 9 -12987950.73247  22045240.761    22045240.4284   22045249.1334
        -0.000          -0.000
 -18860257.253 9 -13990027.82547  22086378.530    22086378.9784   22086386.4054
        -0.000          -0.000
 -10916457.389 9  -6307309.52446  23513950.764    23513950.8004   23513960.1594
        -0.000          -0.000
 -28482985.148 9 -21805432.13549  20250290.441    20250290.1164   20250296.9774
        -0.000          -0.000
 -11226907.520 9  -8731399.71146  23841730.818    23841730.8234   23841740.5514
        -0.000          -0.000
 -18972904.644 9 -13549110.16247  21976861.080    21976860.4764   21976869.2414
        -0.000          -0.000
 99  2 18  0 49 30.0000000  0  8 24  4  8 30  9  5  6 10            -0.000000101
 -26372378.233 9 -18484381.44049  20446264.480    20446264.5064   20446271.9724
        -0.000          -0.000
 -13134605.614 9  -7577809.44547  22853251.603    22853251.9034   22853259.8744
        -0.000          -0.000
 -16981940.672 9 -12946393.92947  22055389.383    22055389.0324   22055397.7244
        -0.000          -0.000
 -18943023.644 9 -14054521.03547  22070628.512    22070628.9814   22070636.3914
        -0.000          -0.000
 -10828745.614 9  -6238962.75346  23530641.794    23530641.8464   23530651.1954
        -0.000          -0.000
 -28497108.554 9 -21816437.36549  20247602.797    20247602.4864   20247609.3594
        -0.000          -0.000
 -11294133.487 9  -8783783.46246  23828938.005    23828938.0404   23828947.7254
        -0.000          -0.000
 -19045596.645 9 -13605753.20547  21963028.197    21963027.5924   21963036.3254
        -0.000          -0.000
 99  2 18  0 50  0.0000000  0  8 24  4  8 30  9  5  6 10            -0.000000103
 -26339768.946 9 -18458971.59749  20452469.811    20452469.8304   20452477.2974
        -0.000          -0.000
 -13041872.103 9  -7505549.55747  22870898.186    22870898.5764   22870906.5174
        -0.000          -0.000
 -16928156.567 9 -12904484.25347  22065624.163    22065623.8364   22065632.5114
        -0.000          -0.000
 -19025531.137 9 -14118812.52247  22054927.850    22054928.2714   22054935.6474
        -0.000          -0.000
 -10740927.426 9  -6170533.07246  23547353.115    23547353.1464   23547362.4824
        -0.000          -0.000
 -28510732.158 9 -21827053.14249  20245010.305    20245009.9914   20245016.8644
        -0.000          -0.000
 -11361351.832 9  -8836161.28346  23816146.698    23816146.7454   23816156.3794
        -0.000          -0.000
 -19117918.273 9 -13662107.64447  21949265.770    21949265.1804   21949273.8854
        -0.000          -0.000
 99  2 18  0 50 30.0000000  0  8 24  4  8 30  9  5  6 10            -0.000000096
 -26306791.756 9 -18433275.07949  20458745.147    20458745.1654   20458752.6354
        -0.000          -0.000
 -12949020.730 9  -7433197.83247  22888567.146    22888567.5154   22888575.4904
        -0.000          -0.000
 -16873933.663 9 -12862232.66847  22075942.450    22075942.1334   22075950.8084
        -0.000          -0.000
 -19107761.234 9 -14182887.84047  22039279.900    22039280.2944   22039287.7294
        -0.000          -0.000
 -10653002.230 9  -6102019.99746  23564084.749    23564084.7744   23564094.1314
        -0.000          -0.000
 -28523848.550 9 -21837273.70149  20242514.310    20242514.0094   20242520.8464
        -0.000          -0.000
 -11428564.586 9  -8888534.72446  23803356.484    23803356.4604   23803366.0994
        -0.000          -0.000
 -19189856.317 9 -13718163.19647  21935576.365    21935575.7574   21935584.4404
        -0.000          -0.000
 99  2 18  0 51  0.0000000  0  8 24  4  8 30  9  5  6 10            -0.000000088
 -26273455.659 9 -18407298.89649  20465088.792    20465088.8144   20465096.2734
        -0.000          -0.000
 -12856061.311 9  -7360761.90947  22906256.797    22906257.2084   22906265.1144
        -0.000          -0.000
 -16819305.525 9 -12819665.31247  22086337.867    22086337.5374   22086346.1744
        -0.000          -0.000
 -19189703.558 9 -14246738.93247  22023686.754    22023687.1294   22023694.5564
        -0.000          -0.000
 -10564994.709 9  -6033442.75846  23580832.088    23580832.1204   23580841.4474
        -0.000          -0.000
 -28536477.224 9 -21847114.22049  20240111.156    20240110.8434   20240117.6744
        -0.000          -0.000
 -11495778.875 9  -8940909.36046  23790565.889    23790565.8844   23790575.5164
        -0.000          -0.000
 -19261425.512 9 -13773931.32947  21921957.138    21921956.5554   21921965.2294
        -0.000          -0.000
 99  2 18  0 51 30.0000000  0  8 24  4  8 30  9  5  6 10            -0.000000065
 -26239773.431 9 -18381052.99849  20471498.319    20471498.3574   20471505.8144
        -0.000          -0.000
 -12762987.144 9  -7288236.59047  22923968.145    22923968.5474   22923976.5264
        -0.000          -0.000
 -16764265.209 9 -12776776.78447  22096811.680    22096811.3764   22096819.9964
        -0.000          -0.000
 -19271346.249 9 -14310356.54147  22008150.569    22008150.9644   22008158.3404
        -0.000          -0.000
 -10476895.857 9  -5964794.36746  23597596.797    23597596.7834   23597606.1664
        -0.000          -0.000
 -28548615.856 9 -21856572.87849  20237801.265    20237800.9424   20237807.7894
        -0.000          -0.000
 -11562985.817 9  -8993278.28946  23777776.783    23777776.7884   23777786.3864
        -0.000          -0.000
 -19332613.569 9 -13829402.47247  21908410.446    21908409.8444   21908418.4704
        -0.000          -0.000
 99  2 18  0 52  0.0000000  0  8 24  4  8 30  9  5  6 10            -0.000000065
 -26205801.245 9 -18354581.15749  20477963.068    20477963.0814   20477970.5434
        -0.000          -0.000
 -12669862.003 9  -7215671.53447  22941689.220    22941689.6284   22941697.6424
        -0.000          -0.000
 -16708854.864 9 -12733599.92147  22107355.980    22107355.6464   22107364.2564
        -0.000          -0.000
 -19352740.771 9 -14373780.77047  21992661.641    21992662.0674   21992669.4534
        -0.000          -0.000
 -10388764.273 9  -5896120.46146  23614367.677    23614367.6444   23614377.0744
        -0.000          -0.000
 -28560307.250 9 -21865683.03649  20235576.432    20235576.1124   20235582.9444
        -0.000          -0.000
 -11630234.912 9  -9045680.05846  23764979.561    23764979.5974   23764989.2464
        -0.000          -0.000
 -19403467.282 9 -13884613.08948  21894927.386    21894926.7884   21894935.4024
        -0.000          -0.000
 99  2 18  0 52 30.0000000  0  8 24  4  8 30  9  5  6 10            -0.000000048
 -26171447.532 9 -18327812.02549  20484500.318    20484500.3454   20484507.8064
        -0.000          -0.000
 -12576612.114 9  -7143009.27547  22959434.196    22959434.6144   22959442.5624
        -0.000          -0.000
 -16652989.250 9 -12690068.29947  22117986.879    22117986.5464   22117995.1764
        -0.000          -0.000
 -19433817.670 9 -14436957.49647  21977233.157    21977233.5584   21977240.9394
        -0.000          -0.000
 -10300550.840 9  -5827382.77646  23631154.198    23631154.1824   23631163.6174
        -0.000          -0.000
 -28571482.562 9 -21874391.06249  20233449.802    20233449.5144   20233456.3224
        -0.000          -0.000
 -11697451.580 9  -9098056.57346  23752188.543    23752188.6124   23752198.1734
        -0.000          -0.000
 -19473898.498 9 -13939494.50748  21881524.663    21881524.0864   21881532.6874
        -0.000          -0.000
 99  2 18  0 53  0.0000000  0  8 24  4  8 30  9  5  6 10            -0.000000041
 -26136727.733 9 -18300757.62449  20491107.268    20491107.2724   20491114.7404
        -0.000          -0.000
 -12483277.618 9  -7070281.09446  22977195.130    22977195.5684   22977203.4744
        -0.000          -0.000
 -16596678.882 9 -12646190.12247  22128702.367    22128702.0284   22128710.6904
        -0.000          -0.000
 -19514607.021 9 -14499910.15847  21961859.357    21961859.7714   21961867.1174
        -0.000          -0.000
 -10212286.517 9  -5758605.45046  23647950.367    23647950.3544   23647959.7754
        -0.000          -0.000
 -28582160.102 9 -21882711.21249  20231417.921    20231417.6314   20231424.4534
        -0.000          -0.000
 -11764662.590 9  -9150428.66946  23739398.683    23739398.7164   23739408.2704
        -0.000          -0.000
 -19543930.562 9 -13994064.88448  21868197.991    21868197.3624   21868205.9994
        -0.000          -0.000
 99  2 18  0 53 30.0000000  0  8 24  4  8 30  9  5  6 10            -0.000000051
 -26101621.350 9 -18273401.98649  20497787.769    20497787.7874   20497795.2474
        -0.000          -0.000
 -12389854.770 9  -6997484.04446  22994972.911    22994973.3414   22994981.2124
        -0.000          -0.000
 -16539899.786 9 -12601946.70347  22139507.110    22139506.7694   22139515.4594
        -0.000          -0.000
 -19595097.736 9 -14562630.12247  21946542.406    21946542.8754   21946550.1784
        -0.000          -0.000
 -10123964.906 9  -5689783.48646  23664757.464    23664757.4594   23664766.8854
        -0.000          -0.000
 -28592302.005 9 -21890613.97749  20229487.964    20229487.6474   20229494.4654
        -0.000          -0.000
 -11831861.795 9  -9202791.58346  23726611.028    23726611.0494   23726620.5544
        -0.000          -0.000
 -19613533.152 9 -14048300.61548  21854952.961    21854952.3714   21854961.0084
        -0.000          -0.000
 99  2 18  0 54  0.0000000  0  8 24  4  8 30  9  5  6 10            -0.000000074
 -26066079.564 9 -18245707.07349  20504551.122    20504551.1454   20504558.5984
        -0.000          -0.000
 -12296324.149 9  -6924603.05046  23012771.136    23012771.5204   23012779.5104
        -0.000          -0.000
 -16482638.234 9 -12557327.33247  22150403.661    22150403.3344   22150412.0154
        -0.000          -0.000
 -19675250.341 9 -14625086.61847  21931289.833    21931290.2644   21931297.5604
        -0.000          -0.000
 -10035575.981 9  -5620909.07146  23681577.381    23681577.3154   23681586.7624
        -0.000          -0.000
 -28601880.784 9 -21898077.95149  20227665.184    20227664.8794   20227671.6974
        -0.000          -0.000
 -11899034.995 9  -9255134.20846  23713828.247    23713828.2994   23713837.8924
        -0.000          -0.000
 -19682681.557 9 -14102182.43448  21841794.382    21841793.8114   21841802.4174
        -0.000          -0.000
 99  2 18  0 54 30.0000000  0  8 24  4  8 30  9  5  6 10            -0.000000104
 -26030114.192 9 -18217682.09249  20511395.104    20511395.1374   20511402.5834
        -0.000          -0.000
 -12202684.627 9  -6851637.18146  23030590.184    23030590.5344   23030598.5064
        -0.000          -0.000
 -16424913.798 9 -12512347.27847  22161388.235    22161387.8814   22161396.5724
        -0.000          -0.000
 -19755071.120 9 -14687284.55647  21916100.368    21916100.8194   21916108.0504
        -0.000          -0.000
  -9947105.641 9  -5551971.18146  23698412.740    23698412.7204   23698422.2024
        -0.000          -0.000
 -28610906.609 9 -21905111.04749  20225947.616    20225947.3084   20225954.1214
        -0.000          -0.000
 -11966187.386 9  -9307460.61746  23701049.493    23701049.5754   23701059.1194
        -0.000          -0.000
 -19751390.477 9 -14155721.80348  21828719.455    21828718.8924   21828727.5124
        -0.000          -0.000
 99  2 18  0 55  0.0000000  0  8 24  4  8 30  9  5  6 10            -0.000000128
 -25993735.517 9 -18189335.05949  20518317.690    20518317.7044   20518325.1564
        -0.000          -0.000
 -12108926.485 9  -6778578.88146  23048431.735    23048432.1024   23048440.0514
        -0.000          -0.000
 -16366738.584 9 -12467015.97647  22172458.571    22172458.2474   22172466.9824
        -0.000          -0.000
 -19834556.020 9 -14749220.77247  21900974.876    21900975.3104   21900982.5424
        -0.000          -0.000
  -9858533.459 9  -5482953.94646  23715267.516    23715267.4624   23715276.9814
        -0.000          -0.000
 -28619377.058 9 -21911711.38549  20224335.723    20224335.4244   20224342.2524
        -0.000          -0.000
 -12033310.402 9  -9359764.14746  23688276.318    23688276.3784   23688285.9344
        -0.000          -0.000
 -19819671.499 9 -14208927.74748  21815725.978    21815725.4074   21815734.0154
        -0.000          -0.000
 99  2 18  0 55 30.0000000  0  8 24  4  8 30  9  5  6 10            -0.000000141
 -25956966.720 9 -18160684.03149  20525314.583    20525314.5904   20525322.0134
        -0.000          -0.000
 -12015054.997 9  -6705432.25246  23066294.961    23066295.3054   23066303.2794
        -0.000          -0.000
 -16308139.756 9 -12421354.58347  22183609.599    22183609.2674   22183618.0194
        -0.000          -0.000
 -19913713.922 9 -14810902.17748  21885911.557    21885911.9794   21885919.1974
        -0.000          -0.000
  -9769867.674 9  -5413863.78946  23732140.070    23732140.0414   23732149.6574
        -0.000          -0.000
 -28627315.672 9 -21917897.30449  20222825.034    20222824.7304   20222831.5584
        -0.000          -0.000
 -12100409.750 9  -9412049.25246  23675507.665    23675507.7174   23675517.2774
        -0.000          -0.000
 -19887541.578 9 -14261813.47148  21802810.721    21802810.1194   21802818.7244
        -0.000          -0.000
 99  2 18  0 56  0.0000000  0  8 24  4  8 30  9  5  6 10            -0.000000126
 -25919807.541 9 -18131728.81549  20532385.717    20532385.7254   20532393.1734
        -0.000          -0.000
 -11921062.488 9  -6632191.32946  23084181.178    23084181.4644   23084189.5194
        -0.000          -0.000
 -16249111.486 9 -12375358.55347  22194842.350    22194842.0304   22194850.7894
        -0.000          -0.000
 -19992533.292 9 -14872319.79448  21870912.674    21870913.1124   21870920.3164
        -0.000          -0.000
  -9681088.867 9  -5344685.57146  23749034.209    23749034.1664   23749043.7564
        -0.000          -0.000
 -28634726.159 9 -21923671.69849  20221414.861    20221414.5564   20221421.3794
        -0.000          -0.000
 -12167468.138 9  -9464302.43346  23662746.803    23662746.8614   23662756.3804
        -0.000          -0.000
 -19955005.519 9 -14314382.72848  21789972.735    21789972.1074   21789980.7024
        -0.000          -0.000
 99  2 18  0 56 30.0000000  0  8 24  4  8 30  9  5  6 10            -0.000000113
 -25882321.387 9 -18102518.81549  20539519.091    20539519.1074   20539526.5404
        -0.000          -0.000
 -11827000.825 9  -6558896.51346  23102080.510    23102080.8624   23102088.7844
        -0.000          -0.000
 -16189700.671 9 -12329064.43747  22206147.847    22206147.5444   22206156.2894
        -0.000          -0.000
 -20071070.742 9 -14933517.74648  21855967.496    21855967.9084   21855975.0854
        -0.000          -0.000
  -9592254.208 9  -5275463.84846  23765938.919    23765938.9134   23765948.4924
        -0.000          -0.000
 -28641656.271 9 -21929071.78549  20220096.098    20220095.7894   20220102.6004
        -0.000          -0.000
 -12234521.268 9  -9516551.51246  23649986.934    23649986.9654   23649996.4234
        -0.000          -0.000
 -20022111.992 9 -14366673.43348  21777202.733    21777202.1374   21777210.7154
        -0.000          -0.000
 99  2 18  0 57  0.0000000  0  8 24  4  8 30  9  5  6 10            -0.000000091
 -25844492.001 9 -18073041.35649  20546717.769    20546717.7734   20546725.1944
        -0.000          -0.000
 -11732862.160 9  -6485541.70646  23119994.549    23119994.8614   23120002.8394
        -0.000          -0.000
 -16129886.565 9 -12282456.07947  22217530.123    22217529.8344   22217538.5684
        -0.000          -0.000
 -20149284.492 9 -14994463.45348  21841083.834    21841084.2524   21841091.4634
        -0.000          -0.000
  -9503365.034 9  -5206199.63846  23782853.974    23782854.0224   23782863.6104
        -0.000          -0.000
 -28648089.487 9 -21934084.68349  20218871.889    20218871.5864   20218878.3954
        -0.000          -0.000
 -12301545.124 9  -9568777.79246  23637232.606    23637232.6454   23637242.0544
        -0.000          -0.000
 -20088824.576 9 -14418657.20648  21764507.685    21764507.1154   21764515.6684
        -0.000          -0.000
 99  2 18  0 57 30.0000000  0  8 24  4  8 30  9  5  6 10            -0.000000069
 -25806304.896 9 -18043285.15749  20553984.530    20553984.5234   20553991.9494
        -0.000          -0.000
 -11638660.847 9  -6412138.06546  23137920.385    23137920.7214   23137928.6024
        -0.000          -0.000
 -16069668.865 9 -12235533.22747  22228989.199    22228988.8814   22228997.6744
        -0.000          -0.000
 -20227157.416 9 -15055143.58948  21826265.048    21826265.4814   21826272.6784
        -0.000          -0.000
  -9414426.765 9  -5136897.16146  23799778.449    23799778.5364   23799788.1124
        -0.000          -0.000
 -28654022.712 9 -21938707.97949  20217742.796    20217742.5084   20217749.3074
        -0.000          -0.000
 -12368532.325 9  -9620975.51346  23624485.327    23624485.3994   23624494.6384
        -0.000          -0.000
 -20155133.927 9 -14470326.77048  21751889.440    21751888.8314   21751897.3734
        -0.000          -0.000
 99  2 18  0 58  0.0000000  0  8 24  4  8 30  9  5  6 10            -0.000000065
 -25767788.720 9 -18013272.53849  20561313.891    20561313.8894   20561321.3094
        -0.000          -0.000
 -11544417.632 9  -6338701.78146  23155854.292    23155854.6364   23155862.5194
        -0.000          -0.000
 -16009080.471 9 -12188321.52247  22240518.823    22240518.4804   22240527.2984
        -0.000          -0.000
 -20304716.725 9 -15115579.34548  21811505.946    21811506.3684   21811513.5364
        -0.000          -0.000
  -9325483.066 9  -5067590.44446  23816703.970    23816704.0294   23816713.6424
        -0.000          -0.000
 -28659483.218 9 -21942962.91549  20216703.720    20216703.4274   20216710.2364
        -0.000          -0.000
 -12435516.567 9  -9673170.92346  23611738.609    23611738.6044   23611747.8244
        -0.000          -0.000
 -20221061.345 9 -14521698.71848  21739343.792    21739343.2064   21739351.7394
        -0.000          -0.000
 99  2 18  0 58 30.0000000  0  8 24  4  8 30  9  5  6 10            -0.000000052
 -25728917.686 9 -17982983.41149  20568710.806    20568710.8184   20568718.2204
        -0.000          -0.000
 -11450089.664 9  -6265199.46946  23173804.244    23173804.6394   23173812.4854
        -0.000          -0.000
 -15948087.954 9 -12140794.92747  22252125.339    22252125.0144   22252133.8504
        -0.000          -0.000
 -20381922.201 9 -15175739.39848  21796814.170    21796814.6194   21796821.7624
        -0.000          -0.000
  -9236509.907 9  -4998260.78346  23833635.044    23833635.0984   23833644.7524
        -0.000          -0.000
 -28664436.723 9 -21946822.78249  20215761.071    20215760.7704   20215767.5944
        -0.000          -0.000
 -12502462.728 9  -9725336.65646  23598999.137    23598999.1534   23599008.3654
        -0.000          -0.000
 -20286550.228 9 -14572728.95248  21726881.626    21726881.0534   21726889.5614
        -0.000          -0.000
 99  2 18  0 59  0.0000000  0  8 24  4  8 30  9  5  6 10            -0.000000048
 -25689726.089 9 -17952444.50149  20576168.654    20576168.6854   20576176.0964
        -0.000          -0.000
 -11355713.857 9  -6191659.85746  23191763.502    23191763.7574   23191771.5844
        -0.000          -0.000
 -15886725.535 9 -12092980.09147  22263802.190    22263801.8804   22263810.7184
        -0.000          -0.000
 -20458816.948 9 -15235657.31848  21782181.526    21782181.9694   21782189.0994
        -0.000          -0.000
  -9147538.209 9  -4928932.25346  23850565.813    23850565.8774   23850575.5334
        -0.000          -0.000
 -28668913.082 9 -21950310.84149  20214909.260    20214908.9604   20214915.7754
        -0.000          -0.000
 -12569402.883 9  -9777497.70346  23586260.767    23586260.7714   23586269.9744
        -0.000          -0.000
 -20351622.595 9 -14623434.62448  21714498.727    21714498.1364   21714506.6414
        -0.000          -0.000
 99  2 18  0 59 30.0000000  0  8 24  4  8 30  9  5  6 10            -0.000000054
 -25650216.176 9 -17921657.54349  20583687.149    20583687.1704   20583694.5764
        -0.000          -0.000
 -11261275.022 9  -6118071.14746  23209734.486    23209734.8354   23209742.6154
        -0.000          -0.000
 -15824980.498 9 -12044867.10447  22275551.902    22275551.5874   22275560.4044
        -0.000          -0.000
 -20535420.225 9 -15295348.11748  21767604.400    21767604.8114   21767611.9084
        -0.000          -0.000
  -9058564.751 9  -4859602.35646  23867496.908    23867497.0054   23867506.6554
        -0.000          -0.000
 -28672884.921 9 -21953405.76649  20214153.426    20214153.1134   20214159.9544
        -0.000          -0.000
 -12636341.199 9  -9829657.32246  23573522.742    23573522.7404   23573531.9004
        -0.000          -0.000
 -20416266.128 9 -14673806.13348  21702197.435    21702196.8524   21702205.3284
        -0.000          -0.000
 99  2 18  1  0  0.0000000  0  8 24  4  8 30  9  5  6 10            -0.000000041
 -25610377.677 9 -17890614.54249  20591268.153    20591268.1724   20591275.5734
        -0.000          -0.000
 -11166725.458 9  -6044396.15646  23227726.616    23227726.9004   23227734.6904
        -0.000          -0.000
 -15762805.467 9 -11996419.05547  22287383.481    22287383.1664   22287392.0084
        -0.000          -0.000
 -20611707.130 9 -15354792.39848  21753087.439    21753087.8614   21753094.9214
        -0.000          -0.000
  -8969559.192 9  -4790247.43946  23884434.096    23884434.1104   23884443.7904
        -0.000          -0.000
 -28676297.269 9 -21956064.72949  20213504.050    20213503.7434   20213510.5694
        -0.000          -0.000
 -12703250.329 9  -9881794.19846  23560790.276    23560790.2854   23560799.3984
        -0.000          -0.000
 -20480427.155 9 -14723801.66548  21689987.928    21689987.3744   21689995.8334
        -0.000          -0.000
 99  2 18  1  0 30.0000000  0  8 24  4  8 30  9  5  6 10            -0.000000034
 -25570235.108 9 -17859334.60949  20598907.030    20598907.0444   20598914.4254
        -0.000          -0.000
 -11072110.176 9  -5970669.96146  23245731.314    23245731.6554   23245739.4574
        -0.000          -0.000
 -15700222.324 9 -11947653.00347  22299292.692    22299292.3514   22299301.2414
        -0.000          -0.000
 -20687705.349 9 -15414011.72548  21738625.441    21738625.8634   21738632.9204
        -0.000          -0.000
  -8880539.117 9  -4720881.21546  23901374.123    23901374.1734   23901383.8324
        -0.000          -0.000
 -28679166.863 9 -21958300.77749  20212957.973    20212957.6714   20212964.4874
        -0.000          -0.000
 -12770157.959 9  -9933929.92446  23548058.047    23548058.0994   23548067.2444
        -0.000          -0.000
 -20544130.962 9 -14773440.92248  21677865.459    21677864.8774   21677873.3454
        -0.000          -0.000
 99  2 18  1  1  0.0000000  0  8 24  4  8 30  9  5  6 10            -0.000000032
 -25529759.459 9 -17827795.13049  20606609.282    20606609.3014   20606616.6824
        -0.000          -0.000
 -10977425.474 9  -5896889.65346  23263749.201    23263749.5224   23263757.3444
        -0.000          -0.000
 -15637221.390 9 -11898561.39847  22311281.371    22311281.0514   22311289.9124
        -0.000          -0.000
 -20763387.076 9 -15472984.43948  21724223.649    21724224.0734   21724231.0644
        -0.000          -0.000
  -8791476.170 9  -4651481.59346  23918322.317    23918322.3804   23918332.1024
        -0.000          -0.000
 -28681460.586 9 -21960088.08449  20212521.503    20212521.1934   20212527.9934
        -0.000          -0.000
 -12837050.498 9  -9986053.88646  23535328.725    23535328.7914   23535337.8354
        -0.000          -0.000
 -20607373.445 9 -14822720.70448  21665830.748    21665830.1584   21665838.6094
        -0.000          -0.000
 99  2 18  1  1 30.0000000  0  8 24  4  8 30  9  5  6 10            -0.000000032
 -25488936.729 9 -17795985.20249  20614377.560    20614377.5834   20614384.9614
        -0.000          -0.000
 -10882667.346 9  -5823052.15046  23281781.071    23281781.4484   23281789.3364
        -0.000          -0.000
 -15573806.781 9 -11849147.45547  22323348.791    22323348.4684   22323357.3124
        -0.000          -0.000
 -20838717.304 9 -15531683.25248  21709888.713    21709889.1764   21709896.0824
        -0.000          -0.000
  -8702358.203 9  -4582039.08846  23935280.986    23935280.9704   23935290.7814
        -0.000          -0.000
 -28683182.225 9 -21961429.61749  20212193.883    20212193.5804   20212200.3784
        -0.000          -0.000
 -12903935.603 9 -10038172.06246  23522600.820    23522600.9224   23522609.9304
        -0.000          -0.000
 -20670153.749 9 -14871640.35348  21653883.984    21653883.4284   21653891.8354
        -0.000          -0.000
 99  2 18  1  2  0.0000000  0  8 24  4  8 30  9  5  6 10            -0.000000027
 -25447721.736 9 -17763869.61549  20622220.510    20622220.5344   20622227.9104
        -0.000          -0.000
 -10787835.544 9  -5749157.23546  23299826.820    23299827.2454   23299835.1714
        -0.000          -0.000
 -15509975.609 9 -11799408.90747  22335495.499    22335495.1784   22335504.0014
        -0.000          -0.000
 -20913660.663 9 -15590080.61448  21695627.427    21695627.8594   21695634.7754
        -0.000          -0.000
  -8613176.130 9  -4512546.62746  23952251.812    23952251.7914   23952261.6344
        -0.000          -0.000
 -28684346.017 9 -21962336.45949  20211972.419    20211972.1234   20211978.9154
        -0.000          -0.000
 -12970782.942 9 -10090260.80046  23509880.099    23509880.2294   23509889.1984
        -0.000          -0.000
 -20732461.488 9 -14920191.77448  21642027.165    21642026.5774   21642035.0134
        -0.000          -0.000
 99  2 18  1  2 30.0000000  0  8 24  4  8 30  9  5  6 10            -0.000000026
 -25406104.207 9 -17731440.36349  20630140.032    20630140.0714   20630147.4744
        -0.000          -0.000
 -10692950.709 9  -5675220.98246  23317882.900    23317883.2264   23317891.1824
        -0.000          -0.000
 -15445757.867 9 -11749369.13647  22347715.727    22347715.3994   22347724.2384
        -0.000          -0.000
 -20988219.211 9 -15648178.12548  21681439.363    21681439.8214   21681446.6784
        -0.000          -0.000
  -8523944.465 9  -4443015.52746  23969232.062    23969232.0364   23969241.9074
        -0.000          -0.000
 -28684976.278 9 -21962827.55449  20211852.489    20211852.1864   20211858.9934
        -0.000          -0.000
 -13037599.148 9 -10142325.27346  23497165.357    23497165.4714   23497174.3964
        -0.000          -0.000
 -20794313.130 9 -14968387.79548  21630257.158    21630256.5454   21630264.9634
        -0.000          -0.000
 99  2 18  1  3  0.0000000  0  8 24  4  8 30  9  5  6 10            -0.000000023
 -25364082.435 9 -17698696.11149  20638136.507    20638136.5164   20638143.9444
        -0.000          -0.000
 -10598001.429 9  -5601234.53646  23335951.099    23335951.4174   23335959.4554
        -0.000          -0.000
 -15381155.396 9 -11699029.58247  22360009.207    22360008.8984   22360017.7174
        -0.000          -0.000
 -21062388.441 9 -15705972.26548  21667325.360    21667325.7934   21667332.6504
        -0.000          -0.000
  -8434669.021 9  -4373450.32146  23986220.686    23986220.6954   23986230.5714
        -0.000          -0.000
 -28685079.704 9 -21962908.13449  20211832.771    20211832.4804   20211839.2704
        -0.000          -0.000
 -13104380.280 9 -10194362.42846  23484457.276    23484457.3394   23484466.2614
        -0.000          -0.000
 -20855707.609 9 -15016227.58848  21618574.125    21618573.5434   21618581.9434
        -0.000          -0.000
 99  2 18  1  3 30.0000000  0  8 24  4  8 30  9  5  6 10            -0.000000017
 -25321682.946 9 -17665657.53649  20646204.839    20646204.8604   20646212.2744
        -0.000          -0.000
 -10502993.911 9  -5527202.66146  23354030.585    23354030.8724   23354038.7764
        -0.000          -0.000
 -15316186.825 9 -11648404.75947  22372372.338    22372372.0294   22372380.8154
        -0.000          -0.000
 -21136196.030 9 -15763484.61648  21653280.191    21653280.6464   21653287.4954
        -0.000          -0.000
  -8345392.340 9  -4303884.14446  24003209.562    24003209.5534   24003219.4044
        -0.000          -0.000
 -28684692.782 9 -21962606.62649  20211906.414    20211906.1284   20211912.9194
        -0.000          -0.000
 -13171132.248 9 -10246376.84546  23471754.632    23471754.7634   23471763.6614
        -0.000          -0.000
 -20916653.275 9 -15063717.66348  21606976.514    21606975.9224   21606984.3054
        -0.000          -0.000
 99  2 18  1  4  0.0000000  0  8 24  4  8 30  9  5  6 10            -0.000000010
 -25278931.436 9 -17632344.65849  20654340.180    20654340.1884   20654347.6454
        -0.000          -0.000
 -10407926.070 9  -5453123.84246  23372121.241    23372121.6074   23372129.6584
        -0.000          -0.000
 -15250864.345 9 -11597504.15647  22384802.845    22384802.5344   22384811.3374
        -0.000          -0.000
 -21209652.402 9 -15820723.28248  21639301.847    21639302.3134   21639309.1684
        -0.000          -0.000
  -8256126.766 9  -4234326.62746  24020196.261    24020196.2544   24020206.1214
        -0.000          -0.000
 -28683809.190 9 -21961918.10449  20212074.529    20212074.2524   20212081.0334
        -0.000          -0.000
 -13237853.279 9 -10298367.17046  23459057.959    23459058.0924   23459066.9624
        -0.000          -0.000
 -20977150.247 9 -15110858.10748  21595464.304    21595463.6924   21595472.0264
        -0.000          -0.000
 99  2 18  1  4 30.0000000  0  8 24  4  8 30  9  5  6 10            -0.000000002
 -25235880.850 9 -17598798.73149  20662532.415    20662532.4164   20662539.8674
        -0.000          -0.000
 -10312807.947 9  -5379005.78546  23390221.761    23390222.0774   23390229.9084
        -0.000          -0.000
 -15185210.011 9 -11546344.96247  22397296.507    22397296.1944   22397304.9684
        -0.000          -0.000
 -21282771.587 9 -15877699.20948  21625387.705    21625388.1454   21625394.9564
        -0.000          -0.000
  -8166875.383 9  -4164780.16746  24037180.306    24037180.2864   24037190.1804
        -0.000          -0.000
 -28682441.372 9 -21960852.27149  20212334.807    20212334.5224   20212341.3024
        -0.000          -0.000
 -13304579.149 9 -10350361.25046  23446360.351    23446360.4834   23446369.4144
        -0.000          -0.000
 -21037218.955 9 -15157664.84048  21584033.547    21584032.9354   21584041.2754
        -0.000          -0.000
 99  2 18  1  5  0.0000000  0  8 24  4  8 30  9  5  6 10             0.000000013
 -25192543.343 9 -17565029.23149  20670779.269    20670779.2674   20670786.7114
        -0.000          -0.000
 -10217637.644 9  -5304847.09946  23408331.882    23408332.3294   23408340.2514
        -0.000          -0.000
 -15119218.634 9 -11494923.14047  22409854.237    22409853.9404   22409862.7224
        -0.000          -0.000
 -21355541.821 9 -15934403.22148  21611539.938    21611540.3724   21611547.1894
        -0.000          -0.000
  -8077638.274 8  -4095244.82146  24054161.566    24054161.5804   24054171.5374
        -0.000          -0.000
 -28680600.173 9 -21959417.57149  20212685.176    20212684.8904   20212691.6764
        -0.000          -0.000
 -13371311.899 9 -10402360.70446  23433661.467    23433661.5844   23433670.5164
        -0.000          -0.000
 -21096861.696 9 -15204139.65448  21572683.870    21572683.2724   21572691.5684
        -0.000          -0.000
 99  2 18  1  5 30.0000000  0  8 24  4  8 30  9  5  6 10             0.000000021
 -25148934.392 9 -17531048.20849  20679077.745    20679077.7424   20679085.1604
        -0.000          -0.000
 -10122434.347 9  -5230662.70646  23426448.584    23426448.9184   23426456.9264
        -0.000          -0.000
 -15052906.732 9 -11443251.56147  22422472.982    22422472.6754   22422481.4554
        -0.000          -0.000
 -21427954.742 9 -15990828.81148  21597760.168    21597760.5824   21597767.3574
        -0.000          -0.000
  -7988431.622 9  -4025733.23646  24071137.011    24071137.0094   24071147.0844
        -0.000          -0.000
 -28678283.400 9 -21957612.28849  20213126.037    20213125.7444   20213132.5234
        -0.000          -0.000
 -13438067.820 9 -10454378.21146  23420958.192    23420958.2784   23420967.1264
        -0.000          -0.000
 -21156070.017 9 -15250275.96148  21561416.870    21561416.2724   21561424.5284
        -0.000          -0.000
 99  2 18  1  6  0.0000000  0  8 24  4  8 30  9  5  6 10             0.000000016
 -25105040.124 9 -17496844.86449  20687430.509    20687430.5404   20687437.9644
        -0.000          -0.000
 -10027200.380 9  -5156454.39046  23444570.832    23444571.2914   23444579.2024
        -0.000          -0.000
 -14986259.504 9 -11391318.69147  22435155.549    22435155.2454   22435164.0554
        -0.000          -0.000
 -21499995.937 9 -16046964.74248  21584051.108    21584051.5524   21584058.3404
        -0.000          -0.000
  -7899235.814 9  -3956230.07746  24088110.477    24088110.4684   24088120.5914
        -0.000          -0.000
 -28675453.894 9 -21955407.47349  20213664.465    20213664.1814   20213670.9494
        -0.000          -0.000
 -13504850.673 9 -10506416.69446  23408249.741    23408249.8764   23408258.6264
        -0.000          -0.000
 -21214822.919 9 -15296057.39648  21550236.550    21550235.9424   21550244.1944
        -0.000          -0.000
 99  2 18  1  6 30.0000000  0  8 24  4  8 30  9  5  6 10            -0.000000001
 -25060835.859 9 -17462399.96049  20695842.315    20695842.3274   20695849.7424
        -0.000          -0.000
  -9931936.891 9  -5082223.08946  23462699.006    23462699.3824   23462707.3614
        -0.000          -0.000
 -14919248.842 9 -11339102.62047  22447907.291    22447906.9684   22447915.7884
        -0.000          -0.000
 -21571665.008 9 -16102810.70848  21570412.917    21570413.3544   21570420.1284
        -0.000          -0.000
  -7810045.667 9  -3886731.34246  24105082.879    24105082.8684   24105092.9554
        -0.000          -0.000
 -28672090.848 9 -21952786.90749  20214304.422    20214304.1384   20214310.9194
        -0.000          -0.000
 -13571640.762 9 -10558460.83246  23395539.909    23395540.0354   23395548.8104
        -0.000          -0.000
 -21273104.948 9 -15341471.91148  21539145.780    21539145.1704   21539153.4034
        -0.000          -0.000
 99  2 18  1  7  0.0000000  0  8 24  4  8 30  9  5  6 10            -0.000000026
 -25016290.963 9 -17427689.62949  20704318.866    20704318.9084   20704326.3224
        -0.000          -0.000
  -9836622.659 9  -5007952.26446  23480836.579    23480836.9554   23480844.8974
        -0.000          -0.000
 -14851850.417 9 -11286584.40047  22460732.778    22460732.4394   22460741.2594
        -0.000          -0.000
 -21642945.692 9 -16158354.03448  21556848.620    21556849.0544   21556855.7784
        -0.000          -0.000
  -7720853.109 9  -3817230.71946  24122055.710    24122055.7184   24122065.7664
        -0.000          -0.000
 -28668140.558 9 -21949708.74749  20215056.118    20215055.8284   20215062.6054
        -0.000          -0.000
 -13638400.715 9 -10610481.46646  23382835.829    23382835.9404   23382844.6824
        -0.000          -0.000
 -21330888.722 9 -15386498.17748  21528149.857    21528149.2634   21528157.4964
        -0.000          -0.000
 99  2 18  1  7 30.0000000  0  8 24  4  8 30  9  5  6 10            -0.000000052
 -24971385.179 9 -17392698.09149  20712864.170    20712864.1934   20712871.6104
        -0.000          -0.000
  -9741242.705 9  -4933630.17846  23498986.945    23498987.2904   23498995.0364
        -0.000          -0.000
 -14784059.989 9 -11233760.71747  22473632.864    22473632.5284   22473641.3384
        -0.000          -0.000
 -21713842.080 9 -16213597.90248  21543357.421    21543357.8844   21543364.5804
        -0.000          -0.000
  -7631637.407 9  -3747712.06446  24139032.952    24139032.9554   24139042.9694
        -0.000          -0.000
 -28663559.916 9 -21946139.41849  20215927.760    20215927.4954   20215934.2524
        -0.000          -0.000
 -13705112.850 9 -10662464.85146  23370140.868    23370140.9584   23370149.6984
        -0.000          -0.000
 -21388153.037 9 -15431119.66248  21517252.748    21517252.1864   21517260.3754
        -0.000          -0.000
 99  2 18  1  8  0.0000000  0  8 24  4  8 30  9  5  6 10            -0.000000062
 -24926109.459 9 -17357418.29549  20721479.817    20721479.8684   20721487.2664
        -0.000          -0.000
  -9645782.269 9  -4859245.45346  23517152.311    23517152.6444   23517160.8544
        -0.000          -0.000
 -14715870.770 9 -11180626.29947  22486608.896    22486608.5754   22486617.3884
        -0.000          -0.000
 -21784356.566 9 -16268544.18848  21529938.927    21529939.3634   21529946.0524
        -0.000          -0.000
  -7542373.440 9  -3678155.78046  24156019.358    24156019.3764   24156029.4074
        -0.000          -0.000
 -28658346.060 9 -21942076.67949  20216919.942    20216919.6484   20216926.4144
        -0.000          -0.000
 -13771753.463 9 -10714392.49946  23357459.530    23357459.6084   23357468.3364
        -0.000          -0.000
 -21444893.096 9 -15475332.62948  21506455.395    21506454.8314   21506463.0534
        -0.000          -0.000
 99  2 18  1  8 30.0000000  0  8 24  4  8 30  9  5  6 10            -0.000000049
 -24880475.918 9 -17321859.67249  20730163.552    20730163.6064   20730171.0074
        -0.000          -0.000
  -9550243.863 9  -4784799.89346  23535332.756    23535333.1174   23535341.0154
        -0.000          -0.000
 -14647310.238 9 -11127202.53447  22499655.555    22499655.2234   22499664.0694
        -0.000          -0.000
 -21854486.926 9 -16323191.14448  21516593.514    21516593.9624   21516600.6624
        -0.000          -0.000
  -7453072.696 9  -3608570.84146  24173012.728    24173012.8014   24173022.8794
        -0.000          -0.000
 -28652541.172 9 -21937553.38149  20218024.575    20218024.3034   20218031.0674
        -0.000          -0.000
 -13838340.334 9 -10766278.28146  23344788.440    23344788.4804   23344797.1894
        -0.000          -0.000
 -21501133.812 9 -15519156.49848  21495753.105    21495752.5404   21495760.7294
        -0.000          -0.000
 99  2 18  1  9  0.0000000  0  8 24  4  8 30  9  5  6 10            -0.000000016
 -24834486.565 9 -17286023.79349  20738915.029    20738915.0784   20738922.4894
        -0.000          -0.000
  -9454627.693 9  -4710293.79746  23553527.725    23553528.1314   23553536.2234
        -0.000          -0.000
 -14578407.359 9 -11073512.01647  22512767.378    22512767.0864   22512775.9014
        -0.000          -0.000
 -21924225.902 9 -16377533.13248  21503322.537    21503322.9794   21503329.6794
        -0.000          -0.000
  -7363747.185 9  -3538966.61946  24190010.903    24190010.9844   24190020.9874
        -0.000          -0.000
 -28646173.832 9 -21932591.81549  20219236.227    20219235.9344   20219242.7124
        -0.000          -0.000
 -13904893.525 9 -10818137.81146  23332123.668    23332123.7474   23332132.3644
        -0.000          -0.000
 -21556876.600 9 -15562592.36448  21485145.588    21485145.0144   21485153.1944
        -0.000          -0.000
 99  2 18  1  9 30.0000000  0  8 24  4  8 30  9  5  6 10             0.000000023
 -24788165.318 9 -17249929.29549  20747729.647    20747729.7064   20747737.1134
        -0.000          -0.000
  -9358974.226 9  -4635758.60546  23571730.136    23571730.5214   23571738.4524
        -0.000          -0.000
 -14509186.184 9 -11019573.47347  22525939.772    22525939.4674   22525948.3244
        -0.000          -0.000
 -21993586.198 9 -16431580.04448  21490123.639    21490124.0874   21490130.7734
        -0.000          -0.000
  -7274430.375 9  -3469369.18146  24207007.324    24207007.4274   24207017.4794
        -0.000          -0.000
 -28639306.834 9 -21927240.90949  20220542.988    20220542.6904   20220549.4794
        -0.000          -0.000
 -13971450.623 9 -10870000.38046  23319458.209    23319458.2954   23319466.8674
        -0.000          -0.000
 -21612136.459 9 -15605651.92648  21474629.936    21474629.3544   21474637.5184
        -0.000          -0.000
 99  2 18  1 10  0.0000000  0  8 24  4  8 30  9  5  6 10             0.000000057
 -24741534.012 9 -17213593.19249  20756603.279    20756603.3234   20756610.7224
        -0.000          -0.000
  -9263306.242 9  -4561212.09846  23589934.965    23589935.3174   23589943.2144
        -0.000          -0.000
 -14439649.425 9 -10965389.03047  22539172.145    22539171.8364   22539180.6874
        -0.000          -0.000
 -22062558.255 9 -16485324.43548  21476998.664    21476999.1034   21477005.7904
        -0.000          -0.000
  -7185158.056 9  -3399806.40546  24223995.349    24223995.4674   24224005.5214
        -0.000          -0.000
 -28631977.157 9 -21921529.47049  20221937.773    20221937.4744   20221944.2804
        -0.000          -0.000
 -14038020.436 9 -10921872.86146  23306790.361    23306790.3854   23306798.9904
        -0.000          -0.000
 -21666920.972 9 -15648341.08148  21464204.734    21464204.1614   21464212.3234
        -0.000          -0.000
 99  2 18  1 10 30.0000000  0  8 24  4  8 30  9  5  6 10             0.000000072
 -24694604.359 9 -17177024.61149  20765533.661    20765533.7004   20765541.1244
        -0.000          -0.000
  -9167642.452 9  -4486668.85146  23608139.339    23608139.7454   23608147.6074
        -0.000          -0.000
 -14369801.251 9 -10910961.89347  22552463.796    22552463.5154   22552472.3964
        -0.000          -0.000
 -22131151.461 9 -16538773.61748  21463945.767    21463946.2194   21463952.8904
        -0.000          -0.000
  -7095971.398 9  -3330310.38546  24240967.139    24240967.1974   24240977.3064
        -0.000          -0.000
 -28624198.427 9 -21915468.12249  20223418.002    20223417.7294   20223424.5194
        -0.000          -0.000
 -14104616.371 9 -10973765.70046  23294117.484    23294117.5594   23294126.1364
        -0.000          -0.000
 -21721240.071 9 -15690667.57548  21453868.113    21453867.5574   21453875.6954
        -0.000          -0.000
 99  2 18  1 11  0.0000000  0  8 24  4  8 30  9  5  6 10             0.000000067
 -24647380.274 9 -17140226.60649  20774520.077    20774520.1294   20774527.5524
        -0.000          -0.000
  -9071987.410 9  -4412132.44546  23626341.710    23626341.9854   23626349.8804
        -0.000          -0.000
 -14299628.076 9 -10856281.52447  22565817.303    22565817.0104   22565825.8864
        -0.000          -0.000
 -22199360.817 9 -16591923.69748  21450965.885    21450966.3354   21450972.9924
        -0.000          -0.000
  -7006864.149 9  -3260876.24746  24257923.739    24257923.8194   24257933.8834
        -0.000          -0.000
 -28615942.666 9 -21909035.06049  20224989.025    20224988.7524   20224995.5394
        -0.000          -0.000
 -14171206.404 9 -11025653.93446  23281445.710    23281445.8114   23281454.3514
        -0.000          -0.000
 -21775070.146 9 -15732613.01248  21443624.535    21443623.9784   21443632.0964
        -0.000          -0.000
 99  2 18  1 11 30.0000000  0  8 24  4  8 30  9  5  6 10             0.000000046
 -24599889.201 9 -17103220.55449  20783557.310    20783557.3434   20783564.7814
        -0.000          -0.000
  -8976345.367 9  -4337606.13446  23644541.836    23644542.2334   23644549.9744
        -0.000          -0.000
 -14229133.738 9 -10801350.90447  22579231.955    22579231.6434   22579240.5204
        -0.000          -0.000
 -22267193.931 9 -16644780.60248  21438057.591    21438058.0614   21438064.7024
        -0.000          -0.000
  -6917831.491 9  -3191500.22046  24274866.156    24274866.1504   24274876.3164
        -0.000          -0.000
 -28607189.135 9 -21902214.12049  20226654.767    20226654.4694   20226661.2604
        -0.000          -0.000
 -14237772.891 9 -11077523.81846  23268778.462    23268778.5404   23268787.0974
        -0.000          -0.000
 -21828414.504 9 -15774179.96548  21433473.394    21433472.8164   21433480.9174
        -0.000          -0.000
 99  2 18  1 12  0.0000000  0  8 24  4  8 30  9  5  6 10             0.000000018
 -24552127.992 9 -17066004.01049  20792645.979    20792646.0014   20792653.4314
        -0.000          -0.000
  -8880692.916 9  -4263071.76346  23662743.819    23662744.1834   23662752.1574
        -0.000          -0.000
 -14158322.485 9 -10746173.33247  22592706.957    22592706.6254   22592715.5104
        -0.000          -0.000
 -22334643.831 9 -16697338.89648  21425222.246    21425222.6874   21425229.3114
        -0.000          -0.000
  -6828853.430 9  -3122166.73346  24291798.187    24291798.1484   24291808.2714
        -0.000          -0.000
 -28597896.115 9 -21894972.80049  20228423.169    20228422.8744   20228429.6804
        -0.000          -0.000
 -14304293.871 9 -11129358.24546  23256119.870    23256119.9534   23256128.5384
        -0.000          -0.000
 -21881265.746 9 -15815362.67148  21423416.082    21423415.5084   21423423.5794
        -0.000          -0.000
 99  2 18  1 12 30.0000000  0  8 24  4  8 30  9  5  6 10            -0.000000004
 -24504085.452 9 -17028568.24749  20801788.179    20801788.2024   20801795.6344
        -0.000          -0.000
  -8785005.979 9  -4188510.44446  23680952.417    23680952.8974   23680960.5814
        -0.000          -0.000
 -14087196.843 9 -10690750.78747  22606241.729    22606241.4144   22606250.3404
        -0.000          -0.000
 -22401696.951 9 -16749588.01348  21412462.395    21412462.8614   21412469.4454
        -0.000          -0.000
  -6739899.030 9  -3052851.67846  24308725.721    24308725.7094   24308735.8144
        -0.000          -0.000
 -28588026.010 9 -21887281.81149  20230301.376    20230301.0944   20230307.8994
        -0.000          -0.000
 -14370756.694 9 -11181147.36446  23243472.319    23243472.4194   23243481.0374
        -0.000          -0.000
 -21933615.442 9 -15856154.55648  21413454.215    21413453.6654   21413461.7344
        -0.000          -0.000
 99  2 18  1 13  0.0000000  0  8 24  4  8 30  9  5  6 10            -0.000000016
 -24455756.837 9 -16990909.56749  20810984.808    20810984.8354   20810992.2384
        -0.000          -0.000
  -8689279.544 9  -4113918.39046  23699168.596    23699169.0284   23699176.7754
        -0.000          -0.000
 -14015759.443 9 -10635085.31247  22619835.810    22619835.4944   22619844.4814
        -0.000          -0.000
 -22468344.080 9 -16801520.77348  21399779.865    21399780.3114   21399786.8824
        -0.000          -0.000
  -6650941.497 9  -2983534.19345  24325653.778    24325653.7604   24325663.9154
        -0.000          -0.000
 -28577554.724 9 -21879122.36849  20232293.982    20232293.7044   20232300.5024
        -0.000          -0.000
 -14437157.184 9 -11232887.90246  23230836.686    23230836.7874   23230845.3424
        -0.000          -0.000
 -21985463.179 9 -15896555.31048  21403587.843    21403587.2654   21403595.3244
        -0.000          -0.000
 99  2 18  1 13 30.0000000  0  8 24  4  8 30  9  5  6 10            -0.000000015
 -24407116.944 9 -16953008.33749  20820240.669    20820240.6874   20820248.0824
        -0.000          -0.000
  -8593506.245 9  -4039289.81546  23717393.556    23717394.0894   23717401.8824
        -0.000          -0.000
 -13943999.123 9 -10579168.21647  22633491.382    22633491.0504   22633500.0534
        -0.000          -0.000
 -22534576.339 9 -16853130.26748  21387176.192    21387176.6464   21387183.2104
        -0.000          -0.000
  -6561982.864 8  -2914215.84045  24342582.072    24342582.0914   24342592.2304
        -0.000          -0.000
 -28566485.791 9 -21870497.22749  20234400.340    20234400.0564   20234406.8564
        -0.000          -0.000
 -14503500.057 9 -11284583.54847  23218211.961    23218212.0664   23218220.5674
        -0.000          -0.000
 -22036803.754 9 -15936560.88748  21393817.992    21393817.4294   21393825.4684
        -0.000          -0.000
 99  2 18  1 14  0.0000000  0  8 24  4  8 30  9  5  6 10            -0.000000000
 -24358152.808 9 -16914854.44349  20829558.213    20829558.2374   20829565.6054
        -0.000          -0.000
  -8497693.861 9  -3964630.76046  23735626.105    23735626.5384   23735634.1584
        -0.000          -0.000
 -13871905.907 9 -10522991.72447  22647210.314    22647209.9434   22647218.9804
        -0.000          -0.000
 -22600374.988 9 -16904401.88348  21374655.086    21374655.5544   21374662.0674
        -0.000          -0.000
  -6473031.259 9  -2844902.96745  24359509.042    24359509.0624   24359519.1974
        -0.000          -0.000
 -28554840.477 9 -21861422.95949  20236616.343    20236616.0524   20236622.8584
        -0.000          -0.000
 -14569795.807 9 -11336242.48047  23205596.243    23205596.3504   23205604.8234
        -0.000          -0.000
 -22087632.691 9 -15976167.78248  21384145.496    21384144.9254   21384152.9324
        -0.000          -0.000
 99  2 18  1 14 30.0000000  0  8 24  4  8 30  9  5  6 10             0.000000019
 -24308871.997 9 -16876453.78849  20838935.992    20838936.0354   20838943.3964
        -0.000          -0.000
  -8401861.716 9  -3889956.33346  23753862.226    23753862.6234   23753870.3984
        -0.000          -0.000
 -13799484.399 9 -10466559.41447  22660991.680    22660991.3624   22661000.3694
        -0.000          -0.000
 -22665750.680 9 -16955343.91848  21362214.468    21362214.9264   21362221.4404
        -0.000          -0.000
  -6384110.594 9  -2775614.19645  24376430.037    24376430.1494   24376440.3344
        -0.000          -0.000
 -28542653.266 9 -21851926.42449  20238935.492    20238935.2174   20238942.0194
        -0.000          -0.000
 -14636061.039 9 -11387877.62747  23192986.287    23192986.4094   23192994.8514
        -0.000          -0.000
 -22137948.551 9 -16015374.87148  21374570.634    21374570.0834   21374578.0694
        -0.000          -0.000
 99  2 18  1 15  0.0000000  0  8 24  4  8 30  9  5  6 10             0.000000033
 -24259292.797 9 -16837820.62249  20848370.581    20848370.5934   20848377.9674
        -0.000          -0.000
  -8306035.011 9  -3815286.13846  23772097.455    23772097.8494   23772105.6814
        -0.000          -0.000
 -13726749.205 9 -10409882.67547  22674832.790    22674832.4904   22674841.4604
        -0.000          -0.000
 -22730725.157 9 -17005973.31848  21349850.170    21349850.6264   21349857.1354
        -0.000          -0.000
  -6295254.240 8  -2706375.55345  24393338.928    24393338.9434   24393349.1924
        -0.000          -0.000
 -28529969.968 9 -21842043.32049  20241349.052    20241348.7764   20241355.5634
        -0.000          -0.000
 -14702322.822 9 -11439510.08447  23180376.999    23180377.1884   23180385.5194
        -0.000          -0.000
 -22187757.468 9 -16054186.94748  21365092.254    21365091.6854   21365099.6634
        -0.000          -0.000
 99  2 18  1 15 30.0000000  0  8 24  4  8 30  9  5  6 10             0.000000037
 -24209447.440 9 -16798980.05949  20857855.815    20857855.8574   20857863.2164
        -0.000          -0.000
  -8210219.725 9  -3740624.82546  23790330.351    23790330.7774   23790338.6494
        -0.000          -0.000
 -13653718.889 9 -10352975.97247  22688730.055    22688729.7294   22688738.7014
        -0.000          -0.000
 -22795291.226 9 -17056284.48148  21337563.579    21337564.0324   21337570.5254
        -0.000          -0.000
  -6206483.088 8  -2637203.29745  24410231.575    24410231.5584   24410241.8334
        -0.000          -0.000
 -28516811.359 9 -21831789.84849  20243853.060    20243852.7824   20243859.5744
        -0.000          -0.000
 -14768596.397 9 -11491151.73847  23167765.547    23167765.6804   23167773.9974
        -0.000          -0.000
 -22237048.740 9 -16092595.67048  21355712.368    21355711.8084   21355719.7524
        -0.000          -0.000
 99  2 18  1 16  0.0000000  0  8 24  4  8 30  9  5  6 10             0.000000023
 -24159371.036 9 -16759959.45549  20867385.066    20867385.0704   20867392.4394
        -0.000          -0.000
  -8114424.153 9  -3665978.88346  23808559.674    23808560.1374   23808568.0414
        -0.000          -0.000
 -13580424.277 9 -10295863.31647  22702677.591    22702677.2744   22702686.1914
        -0.000          -0.000
 -22859467.392 9 -17106291.83248  21325351.235    21325351.6874   21325358.1554
        -0.000          -0.000
  -6117812.013 9  -2568109.04345  24427105.164    24427105.2674   24427115.3874
        -0.000          -0.000
 -28503176.595 9 -21821165.34549  20246447.641    20246447.3564   20246454.1554
        -0.000          -0.000
 -14834898.591 9 -11542815.68947  23155148.605    23155148.7744   23155157.0094
        -0.000          -0.000
 -22285830.282 9 -16130607.20548  21346429.539    21346428.9654   21346436.8834
        -0.000          -0.000
 99  2 18  1 16 30.0000000  0  8 24  4  8 30  9  5  6 10             0.000000003
 -24109043.966 9 -16720743.52549  20876961.977    20876962.0004   20876969.3494
        -0.000          -0.000
  -8018623.487 9  -3591328.99546  23826789.911    23826790.3564   23826798.2944
        -0.000          -0.000
 -13506850.682 9 -10238533.28047  22716678.196    22716677.8814   22716686.7634
        -0.000          -0.000
 -22923236.783 9 -17155982.20548  21313216.274    21313216.7274   21313223.1864
        -0.000          -0.000
  -6029206.743 9  -2499066.04446  24443966.241    24443966.4044   24443976.5074
        -0.000          -0.000
 -28489022.894 9 -21810136.48149  20249141.033    20249140.7324   20249147.5264
        -0.000          -0.000
 -14901221.019 9 -11594495.39047  23142527.775    23142527.9414   23142536.1814
        -0.000          -0.000
 -22334081.183 9 -16168205.25548  21337247.623    21337247.0414   21337254.9594
        -0.000          -0.000
 99  2 18  1 17  0.0000000  0  8 24  4  8 30  9  5  6 10            -0.000000021
 -24058457.357 9 -16681325.35549  20886588.310    20886588.3364   20886595.6474
        -0.000          -0.000
  -7922814.174 9  -3516672.33946  23845021.849    23845022.2654   23845030.0464
        -0.000          -0.000
 -13432999.310 9 -10180986.79447  22730731.694    22730731.3424   22730740.2714
        -0.000          -0.000
 -22986575.639 9 -17205337.10248  21301163.238    21301163.6914   21301170.1474
        -0.000          -0.000
  -5940654.572 9  -2430064.41946  24460817.244    24460817.3384   24460827.4524
        -0.000          -0.000
 -28474328.134 9 -21798686.01749  20251937.340    20251937.0664   20251943.8484
        -0.000          -0.000
 -14967549.919 9 -11646180.14347  23129905.623    23129905.7904   23129914.0804
        -0.000          -0.000
 -22381810.269 9 -16205396.69448  21328165.046    21328164.4594   21328172.3844
        -0.000          -0.000
 99  2 18  1 17 30.0000000  0  8 24  4  8 30  9  5  6 10            -0.000000043
 -24007595.475 9 -16641692.68449  20896266.983    20896266.9864   20896274.2844
        -0.000          -0.000
  -7826988.752 9  -3442003.12646  23863256.827    23863257.2014   23863265.0004
        -0.000          -0.000
 -13358864.360 9 -10123219.34547  22744839.134    22744838.8064   22744847.7304
        -0.000          -0.000
 -23049462.369 9 -17254339.70448  21289196.272    21289196.7264   21289203.1484
        -0.000          -0.000
  -5852134.679 9  -2361087.95146  24477662.127    24477662.2074   24477672.3464
        -0.000          -0.000
 -28459056.742 9 -21786786.24049  20254843.363    20254843.0644   20254849.8374
        -0.000          -0.000
 -15033855.479 9 -11697846.70547  23117287.993    23117288.1554   23117296.4604
        -0.000          -0.000
 -22429004.102 9 -16242171.06148  21319184.285    21319183.7074   21319191.6274
        -0.000          -0.000
 99  2 18  1 18  0.0000000  0  8 24  4  8 30  9  5  6 10            -0.000000063
 -23956435.829 9 -16601827.99649  20906002.255    20906002.2864   20906009.5734
        -0.000          -0.000
  -7731151.062 9  -3367324.40046  23881493.946    23881494.3564   23881502.3654
        -0.000          -0.000
 -13284449.455 9 -10065233.75146  22758999.842    22758999.5034   22759008.4624
        -0.000          -0.000
 -23111909.438 9 -17302999.70948  21277312.944    21277313.3734   21277319.8164
        -0.000          -0.000
  -5763648.844 9  -2292138.00546  24494500.478    24494500.5504   24494510.7184
        -0.000          -0.000
 -28443214.427 9 -21774441.57849  20257858.065    20257857.7874   20257864.5694
        -0.000          -0.000
 -15100133.134 9 -11749491.52147  23104675.730    23104675.8664   23104684.1254
        -0.000          -0.000
 -22475681.155 9 -16278542.73948  21310301.877    21310301.3054   21310309.2114
        -0.000          -0.000
 99  2 18  1 18 30.0000000  0  8 24  4  8 30  9  5  6 10            -0.000000078
 -23904963.747 9 -16561719.85049  20915797.035    20915797.0454   20915804.3504
        -0.000          -0.000
  -7635302.518 9  -3292637.16146  23899733.410    23899733.7994   23899741.5474
        -0.000          -0.000
 -13209748.297 9 -10007025.09346  22773215.017    22773214.6814   22773223.6094
        -0.000          -0.000
 -23173900.615 9 -17351304.46948  21265516.368    21265516.8094   21265523.2194
        -0.000          -0.000
  -5675191.334 9  -2223210.12446  24511333.450    24511333.5374   24511343.6654
        -0.000          -0.000
 -28426798.113 9 -21761649.63349  20260981.999    20260981.7244   20260988.5024
        -0.000          -0.000
 -15166369.826 9 -11801104.43447  23092071.284    23092071.3824   23092079.6054
        -0.000          -0.000
 -22521839.858 9 -16314510.50348  21301518.119    21301517.5564   21301525.4314
        -0.000          -0.000
 99  2 18  1 19  0.0000000  0  8 24  4  8 30  9  5  6 10            -0.000000074
 -23853169.955 9 -16521361.02649  20925653.020    20925653.0824   20925660.3394
        -0.000          -0.000
  -7539427.404 9  -3217929.26346  23917977.725    23917978.0794   23917986.0064
        -0.000          -0.000
 -13134753.218 9  -9948587.42046  22787486.126    22787485.7724   22787494.7284
        -0.000          -0.000
 -23235431.433 9 -17399250.51448  21253807.433    21253807.8754   21253814.2594
        -0.000          -0.000
  -5586759.462 9  -2154302.23746  24528161.603    24528161.7174   24528171.7184
        -0.000          -0.000
 -28409803.405 9 -21748406.99049  20264215.966    20264215.6954   20264222.4644
        -0.000          -0.000
 -15232532.851 9 -11852659.93147  23079480.784    23079480.8684   23079489.0374
        -0.000          -0.000
 -22567463.093 9 -16350061.02048  21292836.254    21292835.7074   21292843.5744
        -0.000          -0.000
 99  2 18  1 19 30.0000000  0  8 24  4  8 30  9  5  6 10            -0.000000059
 -23801089.569 9 -16480778.88049  20935563.607    20935563.6414   20935570.8964
        -0.000          -0.000
  -7443540.834 9  -3143212.42646  23936224.421    23936224.8064   23936232.7104
        -0.000          -0.000
 -13059475.913 9  -9889929.82146  22801810.934    22801810.5954   22801819.5274
        -0.000          -0.000
 -23296540.479 9 -17446867.90348  21242178.716    21242179.1754   21242185.5504
        -0.000          -0.000
  -5498373.625 8  -2085430.22245  24544980.877    24544981.0334   24544991.1114
        -0.000          -0.000
 -28392252.661 9 -21734731.07149  20267555.740    20267555.4634   20267562.2494
        -0.000          -0.000
 -15298658.709 9 -11904186.47647  23066897.338    23066897.4294   23066905.5894
        -0.000          -0.000
 -22612560.326 9 -16385201.66448  21284254.477    21284253.9184   21284261.7684
        -0.000          -0.000
 99  2 18  1 20  0.0000000  0  8 24  4  8 30  9  5  6 10            -0.000000031
 -23748727.376 9 -16439977.14449  20945527.797    20945527.8334   20945535.0664
        -0.000          -0.000
  -7347640.575 9  -3068484.89046  23954473.734    23954474.0534   23954481.7544
        -0.000          -0.000
 -12983907.531 9  -9831045.40846  22816191.130    22816190.7704   22816199.7424
        -0.000          -0.000
 -23357236.940 9 -17494163.79948  21230628.524    21230628.9714   21230635.3594
        -0.000          -0.000
  -5410043.467 8  -2016601.60445  24561789.492    24561789.6974   24561799.8604
        -0.000          -0.000
 -28374158.398 9 -21720631.64149  20270998.976    20270998.6904   20271005.4614
        -0.000          -0.000
 -15364761.136 9 -11955694.75547  23054318.421    23054318.4884   23054326.6314
        -0.000          -0.000
 -22657130.613 9 -16419931.70048  21275772.978    21275772.4194   21275780.2644
        -0.000          -0.000
 99  2 18  1 20 30.0000000  0  8 24  4  8 30  9  5  6 10            -0.000000004
 -23696111.468 9 -16398977.71049  20955540.234    20955540.2814   20955547.5114
        -0.000          -0.000
  -7251751.849 9  -2993766.39946  23972720.565    23972720.9504   23972728.7884
        -0.000          -0.000
 -12908057.187 9  -9771941.28646  22830625.046    22830624.6874   22830633.6794
        -0.000          -0.000
 -23417532.228 9 -17541147.09848  21219154.662    21219155.1054   21219161.4534
        -0.000          -0.000
  -5321793.592 8  -1947835.54845  24578582.950    24578583.1314   24578593.3324
        -0.000          -0.000
 -28355535.683 9 -21706120.43149  20274542.736    20274542.4564   20274549.2274
        -0.000          -0.000
 -15430865.377 9 -12007204.44947  23041739.087    23041739.2164   23041747.2834
        -0.000          -0.000
 -22701176.580 9 -16454253.17648  21267391.276    21267390.7224   21267398.5264
        -0.000          -0.000
 99  2 18  1 21  0.0000000  0  8 24  4  8 30  9  5  6 10             0.000000025
 -23643260.398 9 -16357795.03549  20965597.457    20965597.4894   20965604.7134
        -0.000          -0.000
  -7155878.107 9  -2919059.55846  23990964.807    23990965.1614   23990973.0854
        -0.000          -0.000
 -12831927.543 9  -9712619.51846  22845112.084    22845111.6684   22845120.6564
        -0.000          -0.000
 -23477424.445 9 -17587816.31048  21207757.505    21207757.9654   21207764.3024
        -0.000          -0.000
  -5233637.842 8  -1879142.83345  24595358.474    24595358.5674   24595368.9164
        -0.000          -0.000
 -28336406.527 9 -21691214.59749  20278182.883    20278182.6064   20278189.3744
        -0.000          -0.000
 -15496971.168 9 -12058715.36147  23029159.548    23029159.6554   23029167.6984
        -0.000          -0.000
 -22744691.043 9 -16488160.48348  21259110.727    21259110.1944   21259117.9624
        -0.000          -0.000
 99  2 18  1 21 30.0000000  0  8 24  4  8 30  9  5  6 10             0.000000045
 -23590183.492 9 -16316436.39048  20975697.601    20975697.6374   20975704.8694
        -0.000          -0.000
  -7060025.931 9  -2844369.50246  24009204.767    24009205.0834   24009212.9794
        -0.000          -0.000
 -12755529.048 9  -9653088.25746  22859650.220    22859649.8734   22859658.8814
        -0.000          -0.000
 -23536899.923 9 -17634160.79348  21196439.630    21196440.1004   21196446.4594
        -0.000          -0.000
  -5145599.259 8  -1810541.42445  24612111.698    24612111.7394   24612122.0694
        -0.000          -0.000
 -28316782.368 9 -21675923.06049  20281917.222    20281916.9514   20281923.7234
        -0.000          -0.000
 -15563087.342 9 -12110234.35747  23016577.993    23016578.0954   23016586.0944
        -0.000          -0.000
 -22787667.516 9 -16521648.58448  21250932.517    21250931.9564   21250939.7184
        -0.000          -0.000
 99  2 18  1 22  0.0000000  0  8 24  4  8 30  9  5  6 10             0.000000046
 -23536883.804 9 -16274904.13748  20985840.206    20985840.2254   20985847.4674
        -0.000          -0.000
  -6964212.656 9  -2769709.77646  24027437.331    24027437.6414   24027445.6054
        -0.000          -0.000
 -12678896.582 9  -9593374.67846  22874232.872    22874232.5684   22874241.6144
        -0.000          -0.000
 -23595955.225 9 -17680177.86748  21185201.744    21185202.2104   21185208.5544
        -0.000          -0.000
  -5057696.050 8  -1742045.47845  24628839.227    24628839.1904   24628849.6544
        -0.000          -0.000
 -28296677.072 9 -21660256.58749  20285743.105    20285742.8324   20285749.6274
        -0.000          -0.000
 -15629202.445 9 -12161752.51147  23003996.617    23003996.7354   23004004.7664
        -0.000          -0.000
 -22830110.124 9 -16554720.68648  21242855.907    21242855.3474   21242863.1124
        -0.000          -0.000
 99  2 18  1 22 30.0000000  0  8 24  4  8 30  9  5  6 10             0.000000034
 -23483352.084 9 -16233191.09148  20996026.930    20996026.9634   20996034.1854
        -0.000          -0.000
  -6868423.594 9  -2695068.95346  24045665.234    24045665.5534   24045673.6734
        -0.000          -0.000
 -12602039.578 9  -9533486.14846  22888858.303    22888857.9344   22888867.0154
        -0.000          -0.000
 -23654563.286 9 -17725846.44448  21174048.970    21174049.4414   21174055.7784
        -0.000          -0.000
  -4969913.765 8  -1673643.77645  24645543.705    24645543.6544   24645554.1944
        -0.000          -0.000
 -28276062.841 9 -21644193.53449  20289665.897    20289665.6074   20289672.3974
        -0.000          -0.000
 -15695298.113 9 -12213255.53847  22991418.946    22991419.0824   22991427.1254
        -0.000          -0.000
 -22872000.631 9 -16587362.58748  21234884.373    21234883.8264   21234891.5484
        -0.000          -0.000
 99  2 18  1 23  0.0000000  0  8 24  4  8 30  9  5  6 10             0.000000016
 -23429585.070 9 -16191294.69248  21006258.433    21006258.4704   21006265.6764
        -0.000          -0.000
  -6772639.310 9  -2620431.79945  24063892.412    24063892.7044   24063900.5844
        -0.000          -0.000
 -12524972.341 9  -9473433.79646  22903523.673    22903523.3114   22903532.3904
        -0.000          -0.000
 -23712713.999 9 -17771158.64448  21162983.188    21162983.6514   21162990.0054
        -0.000          -0.000
  -4882248.947 8  -1605333.60245  24662225.805    24662225.8464   24662236.3034
        -0.000          -0.000
 -28254929.343 9 -21627725.86149  20293687.447    20293687.1734   20293693.9624
        -0.000          -0.000
 -15761359.672 9 -12264731.96947  22978847.696    22978847.8554   22978855.9234
        -0.000          -0.000
 -22913340.168 9 -16619575.15648  21227017.701    21227017.1424   21227024.8424
        -0.000          -0.000
 99  2 18  1 23 30.0000000  0  8 24  4  8 30  9  5  6 10            -0.000000005
 -23375555.653 9 -16149193.82548  21016539.846    21016539.8824   21016547.1194
        -0.000          -0.000
  -6676845.764 8  -2545787.42645  24082121.244    24082121.5954   24082129.3914
        -0.000          -0.000
 -12447689.414 9  -9413213.37746  22918230.138    22918229.7594   22918238.8504
        -0.000          -0.000
 -23770404.025 9 -17816111.86748  21152005.145    21152005.6014   21152011.9124
        -0.000          -0.000
  -4794684.771 8  -1537101.84345  24678888.719    24678888.7414   24678899.1814
        -0.000          -0.000
 -28233241.585 9 -21610826.29749  20297814.492    20297814.2164   20297820.9934
        -0.000          -0.000
 -15827392.110 9 -12316185.73047  22966282.118    22966282.1844   22966290.2244
        -0.000          -0.000
 -22954126.146 9 -16651356.37148  21219256.340    21219255.7754   21219263.4524
        -0.000          -0.000
 99  2 18  1 24  0.0000000  0  8 24  4  8 30  9  5  6 10            -0.000000023
 -23321248.012 9 -16106876.15448  21026874.207    21026874.2484   21026881.4824
        -0.000          -0.000
  -6581037.961 9  -2471131.99045  24100352.731    24100353.0734   24100361.0844
        -0.000          -0.000
 -12370180.089 9  -9352816.52546  22932979.735    22932979.4094   22932988.4884
        -0.000          -0.000
 -23827631.571 9 -17860704.71848  21141115.006    21141115.4904   21141121.8034
        -0.000          -0.000
  -4707204.632 8  -1468935.55845  24695535.636    24695535.5764   24695546.1614
        -0.000          -0.000
 -28210980.108 9 -21593479.69449  20302050.699    20302050.4234   20302057.2064
        -0.000          -0.000
 -15893390.402 9 -12367612.87247  22953722.952    22953723.0384   22953731.0444
        -0.000          -0.000
 -22994368.280 9 -16682713.80748  21211598.460    21211597.8974   21211605.5724
        -0.000          -0.000
 99  2 18  1 24 30.0000000  0  8 24  4  8 30  9  5  6 10            -0.000000025
 -23266647.598 9 -16064330.34848  21037264.313    21037264.3554   21037271.5684
        -0.000          -0.000
  -6485201.263 8  -2396453.99345  24118590.003    24118590.3584   24118598.2834
        -0.000          -0.000
 -12292417.163 9  -9292222.07546  22947777.570    22947777.2444   22947786.3274
        -0.000          -0.000
 -23884379.323 9 -17904923.69848  21130316.260    21130316.7464   21130323.0544
        -0.000          -0.000
  -4619797.053 8  -1400825.84645  24712168.813    24712168.7214   24712179.3574
        -0.000          -0.000
 -28188131.654 9 -21575675.71249  20306398.588    20306398.3134   20306405.0924
        -0.000          -0.000
 -15959351.195 9 -12419010.79047  22941170.945    22941170.9984   22941179.0384
        -0.000          -0.000
 -23034058.427 9 -16713641.12048  21204045.621    21204045.0654   21204052.7314
        -0.000          -0.000
 99  2 18  1 25  0.0000000  0  8 24  4  8 30  9  5  6 10            -0.000000015
 -23211756.941 9 -16021558.38448  21047709.616    21047709.6644   21047716.8834
        -0.000          -0.000
  -6389355.349 8  -2321768.83945  24136828.693    24136829.0724   24136836.9484
        -0.000          -0.000
 -12214389.763 9  -9231421.53846  22962625.726    22962625.3654   22962634.4544
        -0.000          -0.000
 -23940651.317 9 -17948771.96448  21119608.034    21119608.4994   21119614.8024
        -0.000          -0.000
  -4532469.688 8  -1332778.64045  24728786.721    24728786.7074   24728797.3434
        -0.000          -0.000
 -28164718.620 9 -21557431.79649  20310853.929    20310853.6594   20310860.4264
        -0.000          -0.000
 -16025268.576 9 -12470374.88747  22928627.102    22928627.2224   22928635.2894
        -0.000          -0.000
 -23073207.323 9 -16744146.68648  21196595.795    21196595.2234   21196602.8804
        -0.000          -0.000
 99  2 18  1 25 30.0000000  0  8 24  4  8 30  9  5  6 10            -0.000000006
 -23156586.790 9 -15978568.63048  21058208.152    21058208.1964   21058215.3964
        -0.000          -0.000
  -6293541.009 9  -2247108.27445  24155061.609    24155062.0884   24155069.7484
        -0.000          -0.000
 -12136099.657 9  -9170416.29746  22977523.881    22977523.5524   22977532.6704
        -0.000          -0.000
 -23996453.495 9 -17992254.14148  21108989.171    21108989.6414   21108995.9334
        -0.000          -0.000
  -4445230.751 9  -1264800.30345  24745387.841    24745387.7644   24745398.3244
        -0.000          -0.000
 -28140745.803 9 -21538751.68149  20315415.820    20315415.5604   20315422.3204
        -0.000          -0.000
 -16091147.986 9 -12521709.39847  22916090.624    22916090.7314   22916098.7534
        -0.000          -0.000
 -23111814.929 9 -16774230.46348  21189248.993    21189248.4094   21189256.0664
        -0.000          -0.000
 99  2 18  1 26  0.0000000  0  8 24  4  8 30  9  5  6 10            -0.000000008
 -23101146.411 9 -15935368.31248  21068758.061    21068758.1124   21068765.2964
        -0.000          -0.000
  -6197777.969 8  -2172487.68945  24173284.683    24173285.1624   24173292.8284
        -0.000          -0.000
 -12057561.255 9  -9109217.58246  22992469.289    22992468.9544   22992478.0294
        -0.000          -0.000
 -24051774.015 9 -18035360.99948  21098461.971    21098462.4584   21098468.7344
        -0.000          -0.000
  -4358087.435 9  -1196896.47745  24761970.720    24761970.7144   24761981.2284
        -0.000          -0.000
 -28116219.466 9 -21519640.24149  20320083.024    20320082.7504   20320089.5214
        -0.000          -0.000
 -16156976.602 9 -12573004.34047  22903563.761    22903563.8734   22903571.9194
        -0.000          -0.000
 -23149869.323 9 -16803883.16348  21182007.406    21182006.8324   21182014.4644
        -0.000          -0.000
 99  2 18  1 26 30.0000000  0  8 24  4  8 30  9  5  6 10            -0.000000016
 -23045443.253 9 -15891963.22548  21079358.040    21079358.0744   21079365.2424
        -0.000          -0.000
  -6102065.111 9  -2097906.21545  24191498.105    24191498.6044   24191506.2084
        -0.000          -0.000
 -11978775.583 9  -9047826.18446  23007461.735    23007461.4164   23007470.5504
        -0.000          -0.000
 -24106608.898 9 -18078089.43548  21088027.240    21088027.7124   21088034.0014
        -0.000          -0.000
  -4271040.211 9  -1129067.53345  24778535.308    24778535.3074   24778545.9364
        -0.000          -0.000
 -28091139.089 9 -21500097.08049  20324855.690    20324855.4154   20324862.1764
        -0.000          -0.000
 -16222742.253 9 -12624250.20847  22891048.945    22891049.0674   22891057.0484
        -0.000          -0.000
 -23187348.214 9 -16833087.42048  21174875.365    21174874.7894   21174882.4014
        -0.000          -0.000
 99  2 18  1 27  0.0000000  0  8 24  4  8 30  9  5  6 10            -0.000000028
 -22989476.648 9 -15848352.86048  21090008.061    21090008.1214   21090015.2914
        -0.000          -0.000
  -6006397.996 8  -2023360.35945  24209703.098    24209703.4414   24209711.0804
        -0.000          -0.000
 -11899741.120 9  -8986240.92946  23022501.530    23022501.2244   23022510.4084
        -0.000          -0.000
 -24160950.512 9 -18120433.50848  21077686.367    21077686.8314   21077693.0914
        -0.000          -0.000
  -4184094.164 9  -1061317.43645  24795080.607    24795080.6324   24795091.3334
        -0.000          -0.000
 -28065495.817 9 -21480115.30849  20329735.419    20329735.1674   20329741.9164
        -0.000          -0.000
 -16288433.602 9 -12675438.19847  22878548.241    22878548.3614   22878556.3184
        -0.000          -0.000
 -23224245.924 9 -16861838.80948  21167853.893    21167853.3204   21167860.9394
        -0.000          -0.000
 99  2 18  1 27 30.0000000  0  8 24  4  8 30  9  5  6 10            -0.000000041
 -22933245.433 9 -15804536.30148  21100708.520    21100708.5644   21100715.7134
        -0.000          -0.000
  -5910761.541 9  -1948838.41145  24227902.067    24227902.3334   24227910.1274
        -0.000          -0.000
 -11820463.959 9  -8924466.56046  23037587.539    23037587.2204   23037596.3704
        -0.000          -0.000
 -24214800.250 9 -18162394.29748  21067439.055    21067439.5454   21067445.8014
        -0.000          -0.000
  -4097246.288 9   -993643.83946  24811607.336    24811607.3414   24811617.9654
        -0.000          -0.000
 -28039280.416 9 -21459687.71849  20334724.025    20334723.7744   20334730.5234
        -0.000          -0.000
 -16354063.047 9 -12726577.92747  22866059.289    22866059.4074   22866067.4204
        -0.000          -0.000
 -23260553.888 9 -16890130.65748  21160944.638    21160944.0534   21160951.6584
        -0.000          -0.000
 99  2 18  1 28  0.0000000  0  8 24  4  8 30  9  5  6 10            -0.000000046
 -22876766.734 9 -15760526.89948  21111456.030    21111456.0834   21111463.2444
        -0.000          -0.000
  -5815141.889 8  -1874329.50445  24246097.860    24246098.1364   24246105.8604
        -0.000          -0.000
 -11740958.004 9  -8862513.90546  23052717.065    23052716.7374   23052725.9554
        -0.000          -0.000
 -24268185.005 9 -18203992.76248  21057280.252    21057280.7284   21057286.9654
        -0.000          -0.000
  -4010508.333 9   -926055.90146  24828113.109    24828113.1654   24828123.7644
        -0.000          -0.000
 -28012527.431 9 -21438841.23149  20339814.965    20339814.6894   20339821.4514
        -0.000          -0.000
 -16419645.378 9 -12777680.95047  22853579.288    22853579.4074   22853587.4354
        -0.000          -0.000
 -23296288.985 9 -16917976.11348  21154144.437    21154143.8514   21154151.4434
        -0.000          -0.000
 99  2 18  1 28 30.0000000  0  8 24  4  8 30  9  5  6 10            -0.000000041
 -22820066.554 9 -15716344.91348  21122245.697    21122245.7244   21122252.8604
        -0.000          -0.000
  -5719545.715 8  -1799838.93445  24264289.004    24264289.3934   24264297.1824
        -0.000          -0.000
 -11661217.976 9  -8800378.86046  23067891.068    23067890.7414   23067899.9804
        -0.000          -0.000
 -24321110.674 9 -18245233.49648  21047208.787    21047209.2604   21047215.4614
        -0.000          -0.000
  -3923885.586 9   -858557.72346  24844596.899    24844596.9234   24844607.6824
        -0.000          -0.000
 -27985261.964 9 -21417595.40549  20345003.390    20345003.1174   20345009.8704
        -0.000          -0.000
 -16485208.199 9 -12828768.76847  22841103.050    22841103.1334   22841111.1244
        -0.000          -0.000
 -23331477.112 9 -16945395.35248  21147448.253    21147447.6874   21147455.2624
        -0.000          -0.000
 99  2 18  1 29  0.0000000  0  8 24  4  8 30  9  5  6 10            -0.000000029
 -22763152.646 9 -15671996.39348  21133076.014    21133076.0764   21133083.1994
        -0.000          -0.000
  -5623980.834 9  -1725372.76745  24282474.280    24282474.7224   24282482.5584
        -0.000          -0.000
 -11581259.146 9  -8738073.33046  23083106.728    23083106.4284   23083115.6914
        -0.000          -0.000
 -24373575.564 9 -18286115.18748  21037225.028    21037225.5024   21037231.6894
        -0.000          -0.000
  -3837370.167 8   -791143.16746  24861060.247    24861060.2864   24861071.0174
        -0.000          -0.000
 -27957489.832 9 -21395954.78649  20350288.222    20350287.9394   20350294.7244
        -0.000          -0.000
 -16550771.382 9 -12879856.87747  22828626.729    22828626.8304   22828634.7654
        -0.000          -0.000
 -23366127.416 9 -16972395.51548  21140854.476    21140853.9224   21140861.4944
        -0.000          -0.000
 99  2 18  1 29 30.0000000  0  8 24  4  8 30  9  5  6 10            -0.000000012
 -22706049.843 9 -15627500.67848  21143942.330    21143942.3734   21143949.4814
        -0.000          -0.000
  -5528456.488 8  -1650938.11345  24300652.165    24300652.5094   24300660.0844
        -0.000          -0.000
 -11501104.214 9  -8675614.98646  23098359.746    23098359.4284   23098368.7634
        -0.000          -0.000
 -24425588.670 9 -18326644.83448  21027327.258    21027327.7244   21027333.8784
        -0.000          -0.000
  -3750958.277 8   -723809.29745  24877503.903    24877503.9124   24877514.6614
        -0.000          -0.000
 -27929212.560 9 -21373920.55449  20355669.222    20355668.9444   20355675.7194
        -0.000          -0.000
 -16616342.487 9 -12930951.15347  22816148.916    22816149.0394   22816156.8584
        -0.000          -0.000
 -23400237.172 9 -16998974.47548  21134363.556    21134362.9954   21134370.5354
        -0.000          -0.000
 99  2 18  1 30  0.0000000  0  8 24  4  8 30  9  5  6 10            -0.000000001
 -22648775.841 9 -15582871.56248  21154841.170    21154841.2084   21154848.3344
        -0.000          -0.000
  -5432984.429 8  -1576544.27545  24318819.689    24318820.0214   24318827.9814
        -0.000          -0.000
 -11420768.294 9  -8613015.63046  23113647.248    23113646.9354   23113656.2464
        -0.000          -0.000
 -24477139.395 9 -18366814.18448  21017517.461    21017517.9254   21017524.0764
        -0.000          -0.000
  -3664663.280 8   -656566.53745  24893925.254    24893925.3044   24893935.9664
        -0.000          -0.000
 -27900429.314 9 -21351492.05149  20361146.486    20361146.1924   20361152.9704
        -0.000          -0.000
 -16681923.192 9 -12982052.89847  22803669.262    22803669.3884   22803677.1474
        -0.000          -0.000
 -23433807.866 9 -17025133.38248  21127975.206    21127974.6484   21127982.1734
        -0.000          -0.000
 99  2 18  1 30 30.0000000  0  8 24  4  8 30  9  5  6 10             0.000000002
 -22591319.738 9 -15538100.54948  21165774.692    21165774.7194   21165781.8554
        -0.000          -0.000
  -5337556.545 9  -1502184.86345  24336978.994    24336979.4094   24336987.2644
        -0.000          -0.000
 -11340243.180 9  -8550268.83846  23128970.665    23128970.3464   23128979.6664
        -0.000          -0.000
 -24528191.281 9 -18406594.82848  21007802.555    21007803.0314   21007809.1554
        -0.000          -0.000
  -3578482.073 8   -589412.49345  24910324.953    24910325.1014   24910335.7414
        -0.000          -0.000
 -27871099.924 9 -21328637.97249  20366727.698    20366727.4084   20366734.1694
        -0.000          -0.000
 -16747500.227 9 -13033151.78047  22791190.265    22791190.3784   22791198.1544
        -0.000          -0.000
 -23466811.978 9 -17050850.79948  21121694.642    21121694.1254   21121701.6174
        -0.000          -0.000
 99  2 18  1 31  0.0000000  0  8 24  4  8 30  9  5  6 10             0.000000013
 -22533651.196 9 -15493163.99148  21176748.626    21176748.6524   21176755.8004
        -0.000          -0.000
  -5242132.138 8  -1427828.09045  24355137.886    24355138.3194   24355145.8184
        -0.000          -0.000
 -11259532.703 9  -8487377.59646  23144329.409    23144329.0954   23144338.4104
        -0.000          -0.000
 -24578736.870 9 -18445980.95448  20998183.998    20998184.4894   20998190.6134
        -0.000          -0.000
  -3492414.976 8   -522347.31845  24926702.996    24926703.2834   24926713.7894
        -0.000          -0.000
 -27841200.420 9 -21305339.64249  20372417.371    20372417.0994   20372423.8474
        -0.000          -0.000
 -16813027.005 9 -13084211.49747  22778720.913    22778721.0204   22778728.7024
        -0.000          -0.000
 -23499202.102 9 -17076089.78048  21115530.983    21115530.4434   21115537.9264
        -0.000          -0.000
 99  2 18  1 31 30.0000000  0  7 24  4  8 30  5  6 10               -0.000000067
 -22475724.552 9 -15448026.31848  21187771.675    21187771.7014   21187778.8714
        -0.000          -0.000
  -5146672.491 8  -1353443.91245  24373302.991    24373303.2844   24373311.0444
        -0.000          -0.000
 -11178594.496 9  -8424308.91646  23159731.477    23159731.1424   23159740.5114
        -0.000          -0.000
 -24628735.623 9 -18484940.96848  20988669.504    20988669.9864   20988676.1274
        -0.000          -0.000
 -27810707.558 9 -21281578.95749  20378219.978    20378219.7024   20378226.4714
        -0.000          -0.000
 -16878469.731 9 -13135205.72447  22766267.501    22766267.5914   22766275.2024
        -0.000          -0.000
 -23530942.874 9 -17100822.77348  21109490.878    21109490.3344   21109497.7934
        -0.000          -0.000
 99  2 18  1 32  0.0000000  0  7 24  4  8 30  5  6 10               -0.000000010
 -22417528.084 9 -15402678.39248  21198846.079    21198846.1144   21198853.2524
        -0.000          -0.000
  -5051191.802 9  -1279043.31345  24391472.397    24391472.8644   24391480.3014
        -0.000          -0.000
 -11097432.520 9  -8361065.87646  23175176.148    23175175.7904   23175185.0984
        -0.000          -0.000
 -24678202.283 9 -18523486.37048  20979256.316    20979256.7834   20979262.9144
        -0.000          -0.000
 -27779650.345 9 -21257378.53049  20384129.945    20384129.6814   20384136.4274
        -0.000          -0.000
 -16943860.041 9 -13186159.10047  22753824.066    22753824.1654   22753831.7654
        -0.000          -0.000
 -23562051.264 9 -17125063.00648  21103571.098    21103570.5424   21103577.9914
        -0.000          -0.000
 99  2 18  1 32 30.0000000  0  7 24  4  8 30  5  6 10                0.000000020
 -22359147.931 9 -15357187.33648  21209955.442    21209955.4834   21209962.6074
        -0.000          -0.000
  -4955783.575 9  -1204699.21145  24409628.096    24409628.5064   24409635.9734
        -0.000          -0.000
 -11016142.518 9  -8297723.06646  23190645.106    23190644.8214   23190654.1074
        -0.000          -0.000
 -24727240.949 9 -18561698.27348  20969924.495    20969924.9734   20969931.1124
        -0.000          -0.000
 -27748131.126 9 -21232818.08949  20390127.819    20390127.5494   20390134.3024
        -0.000          -0.000
 -17009281.628 9 -13237136.85547  22741374.704    22741374.8144   22741382.3534
        -0.000          -0.000
 -23592618.678 9 -17148881.69648  21097754.249    21097753.6994   21097761.1394
        -0.000          -0.000
 99  2 18  1 33  0.0000000  0  7 24  4  8 30  5  6 10                0.000000033
 -22300555.584 9 -15311530.93048  21221105.147    21221105.1854   21221112.3254
        -0.000          -0.000
  -4860436.996 8  -1130403.11045  24427771.738    24427772.1754   24427779.5794
        -0.000          -0.000
 -10934701.786 9  -8234262.80646  23206142.834    23206142.5224   23206151.8404
        -0.000          -0.000
 -24775831.017 9 -18599560.61148  20960678.102    20960678.5744   20960684.6924
        -0.000          -0.000
 -27716139.530 9 -21207889.56649  20396215.613    20396215.3344   20396222.0934
        -0.000          -0.000
 -17074706.321 9 -13288117.02147  22728924.745    22728924.8634   22728932.3694
        -0.000          -0.000
 -23622637.676 9 -17172273.04548  21092041.763    21092041.2144   21092048.6334
        -0.000          -0.000
 99  2 18  1 33 30.0000000  0  7 24  4  8 30  5  6 10                0.000000039
 -22241732.821 9 -15265694.98148  21232298.693    21232298.7364   21232305.8394
        -0.000          -0.000
  -4765154.308 8  -1056156.77545  24445903.403    24445903.7534   24445911.1644
        -0.000          -0.000
 -10853073.584 9  -8170656.46346  23221676.227    23221675.8384   23221685.1864
        -0.000          -0.000
 -24823938.207 9 -18637046.68848  20951523.556    20951524.0324   20951530.1584
        -0.000          -0.000
 -27683638.506 9 -21182564.09849  20402400.349    20402400.0724   20402406.8054
        -0.000          -0.000
 -17140116.685 9 -13339086.03247  22716477.456    22716477.5404   22716485.0304
        -0.000          -0.000
 -23652097.373 9 -17195228.58248  21086435.734    21086435.1754   21086442.5744
        -0.000          -0.000
 99  2 18  1 34  0.0000000  0  7 24  4  8 30  5  6 10                0.000000037
 -22182695.463 9 -15219691.81248  21243533.103    21243533.1484   21243540.2724
        -0.000          -0.000
  -4669936.520 9   -981961.03045  24464022.842    24464023.2194   24464030.5364
        -0.000          -0.000
 -10771266.410 9  -8106910.66946  23237243.574    23237243.2524   23237252.6534
        -0.000          -0.000
 -24871557.158 9 -18674152.31548  20942461.927    20942462.3954   20942468.4914
        -0.000          -0.000
 -27650609.665 9 -21156827.32549  20408685.528    20408685.2714   20408692.0044
        -0.000          -0.000
 -17205485.503 9 -13390022.65247  22704038.124    22704038.2014   22704045.6444
        -0.000          -0.000
 -23680996.002 9 -17217746.91548  21080936.442    21080935.9024   21080943.2784
        -0.000          -0.000
 99  2 18  1 34 30.0000000  0  7 24  4  8 30  5  6 10                0.000000029
 -22123457.786 9 -15173532.54948  21254805.659    21254805.6844   21254812.7714
        -0.000          -0.000
  -4574778.879 8   -907812.20745  24482130.542    24482130.9034   24482138.5704
        -0.000          -0.000
 -10689283.681 9  -8043028.06546  23252844.425    23252844.0714   23252853.4874
        -0.000          -0.000
 -24918677.350 9 -18710869.29948  20933495.210    20933495.6934   20933501.7714
        -0.000          -0.000
 -27617043.315 9 -21130671.71149  20415073.014    20415072.7394   20415079.4574
        -0.000          -0.000
 -17270787.902 9 -13440907.52547  22691611.414    22691611.4854   22691618.8984
        -0.000          -0.000
 -23709329.251 9 -17239824.69448  21075544.776    21075544.2244   21075551.5854
        -0.000          -0.000
 99  2 18  1 35  0.0000000  0  7 24  4  8 30  5  6 10                0.000000023
 -22064003.986 9 -15127204.88448  21266119.319    21266119.3424   21266126.4364
        -0.000          -0.000
  -4479671.724 9   -833702.68345  24500228.796    24500229.2434   24500236.8104
        -0.000          -0.000
 -10607111.337 9  -7978997.73646  23268481.329    23268480.9764   23268490.3794
        -0.000          -0.000
 -24965286.576 9 -18747188.13048  20924625.737    20924626.2034   20924632.2734
        -0.000          -0.000
 -27582925.488 9 -21104086.38549  20421565.418    20421565.1354   20421571.8654
        -0.000          -0.000
 -17336028.543 9 -13491744.28647  22679196.479    22679196.5494   22679203.9404
        -0.000          -0.000
 -23737084.022 9 -17261451.71848  21070263.144    21070262.5914   21070269.9484
        -0.000          -0.000
 99  2 18  1 35 30.0000000  0  7 24  4  8 30  5  6 10                0.000000028
 -22004344.266 9 -15080716.76148  21277472.151    21277472.2034   21277479.2704
        -0.000          -0.000
  -4384603.914 9   -759623.76645  24518319.686    24518320.1104   24518327.4664
        -0.000          -0.000
 -10524753.834 9  -7914823.10746  23284153.450    23284153.1664   23284162.5744
        -0.000          -0.000
 -25011387.008 9 -18783110.49648  20915853.060    20915853.5364   20915859.5914
        -0.000          -0.000
 -27548259.386 9 -21077073.83249  20428162.146    20428161.8684   20428168.5764
        -0.000          -0.000
 -17401218.258 9 -13542541.36147  22666791.190    22666791.2774   22666798.6064
        -0.000          -0.000
 -23764240.426 9 -17282612.48648  21065095.427    21065094.8684   21065102.2114
        -0.000          -0.000
 99  2 18  1 36  0.0000000  0  7 24  4  8 30  5  6 10                0.000000031
 -21944494.514 9 -15034080.55848  21288861.202    21288861.2384   21288868.2674
        -0.000          -0.000
  -4289586.245 9   -685583.99845  24536400.797    24536401.1734   24536408.7894
        -0.000          -0.000
 -10442234.239 9  -7850522.16846  23299856.407    23299856.1054   23299865.5544
        -0.000          -0.000
 -25056993.674 9 -18818648.11148  20907174.343    20907174.8344   20907180.8644
        -0.000          -0.000
 -27513067.611 9 -21049651.67049  20434858.928    20434858.6524   20434865.3574
        -0.000          -0.000
 -17466380.020 9 -13593316.66347  22654391.222    22654391.3424   22654398.6244
        -0.000          -0.000
 -23790814.009 9 -17303319.09848  21060038.568    21060038.0294   21060045.3504
        -0.000          -0.000
 99  2 18  1 36 30.0000000  0  7 24  4  8 30  5  6 10                0.000000039
 -21884455.775 9 -14987297.09148  21300286.155    21300286.1894   21300293.2414
        -0.000          -0.000
  -4194617.606 9   -611582.37745  24554472.715    24554473.1114   24554480.7714
        -0.000          -0.000
 -10359551.804 9  -7786094.35446  23315590.390    23315590.1024   23315599.5234
        -0.000          -0.000
 -25102114.679 9 -18853807.28848  20898588.067    20898588.5484   20898594.5844
        -0.000          -0.000
 -27477364.508 9 -21021831.06549  20441653.016    20441652.7384   20441659.4624
        -0.000          -0.000
 -17531533.585 9 -13644085.58447  22641992.831    22641992.9354   22642000.2134
        -0.000          -0.000
 -23816797.801 9 -17323566.12948  21055093.961    21055093.4124   21055100.7344
        -0.000          -0.000
 99  2 18  1 37  0.0000000  0  7 24  4  8 30  5  6 10                0.000000047
 -21824235.070 9 -14940371.83248  21311745.721    21311745.7364   21311752.7634
        -0.000          -0.000
  -4099704.722 8   -537624.20645  24572533.997    24572534.3904   24572542.0834
        -0.000          -0.000
 -10276716.136 9  -7721547.14146  23331353.531    23331353.2614   23331362.6614
        -0.000          -0.000
 -25146749.194 9 -18888587.38348  20890094.349    20890094.8384   20890100.8664
        -0.000          -0.000
 -27441158.374 9 -20993618.48449  20448542.812    20448542.5394   20448549.2524
        -0.000          -0.000
 -17596689.262 9 -13694856.13547  22629594.043    22629594.1094   22629601.4664
        -0.000          -0.000
 -23842192.133 9 -17343353.83248  21050261.490    21050260.9484   21050268.2484
        -0.000          -0.000
 99  2 18  1 37 30.0000000  0  7 24  4  8 30  5  6 10                0.000000052
 -21763842.280 9 -14893312.47848  21323238.051    21323238.0904   21323245.1154
        -0.000          -0.000
  -4004838.305 8   -463702.25745  24590586.295    24590586.7524   24590594.4064
        -0.000          -0.000
 -10193739.444 9  -7656890.02646  23347143.451    23347143.1694   23347152.7014
        -0.000          -0.000
 -25190875.806 9 -18922971.70948  20881697.329    20881697.8124   20881703.8184
        -0.000          -0.000
 -27404455.067 9 -20965018.49949  20455527.208    20455526.9234   20455533.6644
        -0.000          -0.000
 -17661837.493 9 -13745620.90147  22617196.629    22617196.6914   22617204.0594
        -0.000          -0.000
 -23867005.025 9 -17362688.46848  21045539.679    21045539.1474   21045546.4384
        -0.000          -0.000
 99  2 18  1 38  0.0000000  0  7 24  4  8 30  5  6 10                0.000000058
 -21703261.547 9 -14846106.68448  21334766.125    21334766.1794   21334773.2344
        -0.000          -0.000
  -3910022.566 8   -389819.79045  24608629.115    24608629.6314   24608637.1584
        -0.000          -0.000
 -10110617.665 9  -7592119.85546  23362961.081    23362960.8294   23362970.3264
        -0.000          -0.000
 -25234490.812 9 -18956957.37848  20873397.614    20873398.0974   20873404.0994
        -0.000          -0.000
 -27367250.109 9 -20936027.61549  20462607.075    20462606.7924   20462613.5164
        -0.000          -0.000
 -17726967.600 9 -13796371.54347  22604802.691    22604802.7814   22604810.1034
        -0.000          -0.000
 -23891248.047 9 -17381579.04948  21040926.316    21040925.7604   21040933.0454
        -0.000          -0.000
 99  2 18  1 38 30.0000000  0  8 24  4  8 17 30  5  6 10             0.000000033
 -21642449.538 9 -14798720.67648  21346338.252    21346338.3084   21346345.3034
        -0.000          -0.000
  -3815221.026 8   -315948.39545  24626669.371    24626669.6734   24626677.2114
        -0.000          -0.000
 -10027324.559 9  -7527216.19246  23378811.273    23378811.0564   23378820.5194
        -0.000          -0.000
  -5700345.741 8  -4420131.43945  25035251.197    25035250.5774   25035262.1674
        -0.000          -0.000
 -25277564.998 9 -18990521.63948  20865200.861    20865201.3424   20865207.3284
        -0.000          -0.000
 -27329516.277 9 -20906624.63049  20469787.563    20469787.3014   20469794.0124
        -0.000          -0.000
 -17792040.802 9 -13847077.85947  22592419.616    22592419.6944   22592426.9694
        -0.000          -0.000
 -23914884.022 9 -17399996.61048  21036428.478    21036427.9244   21036435.1834
        -0.000          -0.000
 99  2 18  1 39  0.0000000  0  8 24  4  8 17 30  5  6 10             0.000000047
 -21581439.794 9 -14751180.58648  21357948.002    21357948.0304   21357955.0394
        -0.000          -0.000
  -3720486.059 8   -242128.89545  24644696.732    24644696.8034   24644704.6744
        -0.000          -0.000
  -9943907.759 9  -7462216.12046  23394684.996    23394684.8074   23394694.3004
        -0.000          -0.000
  -5790353.930 9  -4490267.72345  25018123.193    25018122.8544   25018134.1364
        -0.000          -0.000
 -25320136.867 9 -19023694.47548  20857099.667    20857100.1304   20857106.0984
        -0.000          -0.000
 -27291282.670 9 -20876832.20649  20477063.176    20477062.8944   20477069.6104
        -0.000          -0.000
 -17857083.874 9 -13897760.67947  22580042.290    22580042.3424   22580049.6054
        -0.000          -0.000
 -23937958.635 9 -17417976.73948  21032037.474    21032036.9444   21032044.1744
        -0.000          -0.000
 99  2 18  1 39 30.0000000  0  8 24  4  8 17 30  5  6 10             0.000000057
 -21520230.337 9 -14703484.88048  21369595.740    21369595.7874   21369602.7924
        -0.000          -0.000
  -3625833.734 8   -168373.74945  24662708.482    24662708.6724   24662716.2074
        -0.000          -0.000
  -9860365.022 9  -7397117.93146  23410582.686    23410582.4514   23410591.9994
        -0.000          -0.000
  -5880199.017 9  -4560276.90645  25001026.226    25001025.7204   25001037.0924
        -0.000          -0.000
 -25362213.451 9 -19056481.37848  20849092.673    20849093.1434   20849099.1124
        -0.000          -0.000
 -27252531.375 9 -20846636.39149  20484437.318    20484437.0394   20484443.7694
        -0.000          -0.000
 -17922079.275 9 -13948406.36647  22567674.007    22567674.0544   22567681.3154
        -0.000          -0.000
 -23960469.972 9 -17435517.96448  21027753.654    21027753.1004   21027760.3014
        -0.000          -0.000
 99  2 18  1 40  0.0000000  0  8 24  4  8 17 30  5  6 10             0.000000057
 -21458813.474 9 -14655627.55248  21381282.959    21381282.9964   21381289.9854
        -0.000          -0.000
  -3531278.385 8    -94694.20145  24680701.894    24680702.2154   24680709.5654
        -0.000          -0.000
  -9776688.177 9  -7331915.24546  23426505.905    23426505.6584   23426515.2144
        -0.000          -0.000
  -5969891.252 9  -4630166.96145  24983958.315    24983957.8264   24983969.2454
        -0.000          -0.000
 -25403815.945 9 -19088898.85948  20841175.993    20841176.4644   20841182.3994
        -0.000          -0.000
 -27213244.433 9 -20816023.18549  20491913.372    20491913.0944   20491919.8134
        -0.000          -0.000
 -17987019.095 9 -13999008.74647  22555316.295    22555316.3694   22555323.5824
        -0.000          -0.000
 -23982399.044 9 -17452605.47148  21023580.602    21023580.0494   21023587.2354
        -0.000          -0.000
 99  2 18  1 40 30.0000000  0  7 24  8 17 30  5  6 10                0.000000025
 -21397190.997 9 -14607610.01048  21393009.325    21393009.3784   21393016.3884
        -0.000          -0.000
  -9692865.406 9  -7266598.85646  23442456.853    23442456.6054   23442466.1054
        -0.000          -0.000
  -6059415.261 9  -4699925.92345  24966922.466    24966922.0504   24966933.4644
        -0.000          -0.000
 -25444916.534 9 -19120925.24548  20833354.788    20833355.2584   20833361.1964
        -0.000          -0.000
 -27173394.791 9 -20784971.51749  20499496.494    20499496.2244   20499502.9274
        -0.000          -0.000
 -18051881.790 9 -14049551.01847  22542973.246    22542973.3554   22542980.5694
        -0.000          -0.000
 -24003718.389 9 -17469217.87148  21019523.605    21019523.0574   21019530.2214
        -0.000          -0.000
 99  2 18  1 41  0.0000000  0  7 24  8 17 30  5  6 10                0.000000048
 -21335442.142 9 -14559493.99948  21404759.726    21404759.7634   21404766.7624
        -0.000          -0.000
  -9608950.104 9  -7201210.35846  23458425.449    23458425.2714   23458434.7524
        -0.000          -0.000
  -6148841.094 9  -4769608.34945  24949905.225    24949904.7504   24949916.2814
        -0.000          -0.000
 -25485546.260 9 -19152584.72548  20825623.156    20825623.6414   20825629.5644
        -0.000          -0.000
 -27133036.910 9 -20753523.81349  20507176.332    20507176.0484   20507182.7584
        -0.000          -0.000
 -18116717.999 9 -14100072.64847  22530635.227    22530635.3264   22530642.5934
        -0.000          -0.000
 -24024486.905 9 -17485401.06048  21015571.470    21015570.9234   21015578.0694
        -0.000          -0.000
 99  2 18  1 41 30.0000000  0  7 24  8 17 30  5  6 10                0.000000049
 -21273520.787 9 -14511243.56248  21416542.949    21416543.0064   21416549.9524
        -0.000          -0.000
  -9524897.544 9  -7135714.91246  23474420.155    23474419.9974   23474429.4354
        -0.000          -0.000
  -6238135.962 8  -4839188.69245  24932912.966    24932912.6734   24932924.0564
        -0.000          -0.000
 -25525650.477 9 -19183834.71848  20817991.536    20817992.0144   20817997.9474
        -0.000          -0.000
 -27092133.749 9 -20721651.20349  20514959.952    20514959.6694   20514966.3544
        -0.000          -0.000
 -18181495.054 9 -14150548.19747  22518308.508    22518308.5994   22518315.8094
        -0.000          -0.000
 -24044652.747 9 -17501114.63148  21011733.961    21011733.4004   21011740.5414
        -0.000          -0.000
 99  2 18  1 42  0.0000000  0  7 24  8 17 30  5  6 10                0.000000035
 -21211412.404 9 -14462847.40148  21428361.736    21428361.7844   21428368.7344
        -0.000          -0.000
  -9440692.904 9  -7070100.93846  23490443.841    23490443.6644   23490453.1364
        -0.000          -0.000
  -6327285.177 8  -4908655.50545  24915948.388    24915948.2284   24915959.5254
        -0.000          -0.000
 -25565191.361 9 -19214645.74948  20810467.125    20810467.6034   20810473.5114
        -0.000          -0.000
 -27050683.741 9 -20689352.47549  20522847.621    20522847.3284   20522854.0234
        -0.000          -0.000
 -18246219.484 9 -14200982.72647  22505991.819    22505991.8764   22505999.0664
        -0.000          -0.000
 -24064199.858 9 -17516346.06648  21008014.235    21008013.6854   21008020.8024
        -0.000          -0.000
 99  2 18  1 42 30.0000000  0  7 24  8 17 30  5  6 10                0.000000001
 -21149105.692 9 -14414296.69548  21440218.308    21440218.3464   21440225.2554
        -0.000          -0.000
  -9356325.110 9  -7004359.84946  23506498.480    23506498.3004   23506507.8034
        -0.000          -0.000
  -6416276.719 8  -4977999.41645  24899013.758    24899013.6814   24899024.8424
        -0.000          -0.000
 -25604119.484 9 -19244979.30648  20803059.336    20803059.8014   20803065.6984
        -0.000          -0.000
 -27008684.781 9 -20656625.99949  20530839.745    20530839.4664   20530846.1554
        -0.000          -0.000
 -18310870.444 9 -14251360.01347  22493689.039    22493689.1234   22493696.2934
        -0.000          -0.000
 -24083121.272 9 -17531089.94848  21004413.533    21004412.9884   21004420.0834
        -0.000          -0.000
 99  2 18  1 43  0.0000000  0  7 24  8 17 30  5  6 10               -0.000000024
 -21086569.118 9 -14365566.87248  21452118.609    21452118.6274   21452125.5604
        -0.000          -0.000
  -9271785.795 9  -6938485.10746  23522585.837    23522585.6034   23522595.1824
        -0.000          -0.000
  -6505084.501 8  -5047200.12145  24882114.138    24882114.1414   24882125.2984
        -0.000          -0.000
 -25642417.337 9 -19274821.74248  20795771.483    20795771.9574   20795777.8494
        -0.000          -0.000
 -26966126.273 9 -20623463.51449  20538938.316    20538938.0494   20538944.7404
        -0.000          -0.000
 -18375428.602 9 -14301664.99047  22481403.954    22481404.0584   22481411.2204
        -0.000          -0.000
 -24101392.742 9 -17545327.38148  21000936.536    21000935.9954   21000943.0624
        -0.000          -0.000
 99  2 18  1 43 30.0000000  0  7 24  8 17 30  5  6 10               -0.000000043
 -21023820.327 9 -14316671.69148  21464059.281    21464059.3114   21464066.2684
        -0.000          -0.000
  -9187112.746 9  -6872506.13746  23538698.613    23538698.3084   23538707.9924
        -0.000          -0.000
  -6593727.946 8  -5116272.74645  24865245.752    24865245.6694   24865256.9154
        -0.000          -0.000
 -25680130.396 9 -19304208.50348  20788594.896    20788595.3754   20788601.2364
        -0.000          -0.000
 -26923030.514 9 -20589882.39849  20547139.165    20547138.9024   20547145.6064
        -0.000          -0.000
 -18439930.546 9 -14351926.16947  22469129.574    22469129.6864   22469136.8614
        -0.000          -0.000
 -24119031.543 9 -17559071.82848  20997579.934    20997579.3884   20997586.4364
        -0.000          -0.000
 99  2 18  1 44  0.0000000  0  7 24  8 17 30  5  6 10               -0.000000054
 -20960875.238 9 -14267623.54248  21476037.372    21476037.3994   21476044.3054
        -0.000          -0.000
  -9102307.255 9  -6806423.99146  23554836.580    23554836.3064   23554845.9324
        -0.000          -0.000
  -6682194.052 8  -5185207.17945  24848411.102    24848410.9534   24848422.3214
        -0.000          -0.000
 -25717263.242 9 -19333143.14449  20781528.692    20781529.1774   20781535.0524
        -0.000          -0.000
 -26879401.213 9 -20555885.53049  20555441.540    20555441.2744   20555447.9714
        -0.000          -0.000
 -18504365.747 9 -14402135.31847  22456867.903    22456867.9744   22456875.1744
        -0.000          -0.000
 -24136043.148 9 -17572327.54948  20994342.666    20994342.1104   20994349.1304
        -0.000          -0.000
 99  2 18  1 44 30.0000000  0  7 24  8 17 30  5  6 10               -0.000000053
 -20897757.570 9 -14218440.92148  21488048.276    21488048.3134   21488055.1794
        -0.000          -0.000
  -9017389.225 9  -6740254.15146  23570995.995    23570995.7494   23571005.3044
        -0.000          -0.000
  -6770496.206 8  -5254013.84545  24831607.659    24831607.4974   24831618.8064
        -0.000          -0.000
 -25753850.587 9 -19361652.72549  20774566.327    20774566.8174   20774572.6814
        -0.000          -0.000
 -26835265.959 9 -20521494.41349  20563840.178    20563839.9204   20563846.6004
        -0.000          -0.000
 -18568737.673 9 -14452295.18547  22444618.238    22444618.3144   22444625.4924
        -0.000          -0.000
 -24152438.197 9 -17585102.84348  20991222.701    20991222.1594   20991229.1544
        -0.000          -0.000
 99  2 18  1 45  0.0000000  0  7 24  8 17 30  5  6 10               -0.000000038
 -20834494.807 9 -14169145.23548  21500086.783    21500086.8104   21500093.6624
        -0.000          -0.000
  -8932385.464 9  -6674017.50546  23587171.714    23587171.4414   23587181.0854
        -0.000          -0.000
  -6858637.759 8  -5322695.38245  24814834.787    24814834.4784   24814845.8414
        -0.000          -0.000
 -25789933.742 9 -19389769.42949  20767699.905    20767700.3704   20767706.2324
        -0.000          -0.000
 -26790648.266 9 -20486727.36249  20572330.629    20572330.3724   20572337.0594
        -0.000          -0.000
 -18633079.977 9 -14502431.96647  22432374.241    22432374.3214   22432381.4634
        -0.000          -0.000
 -24168232.801 9 -17597410.24948  20988217.055    20988216.5004   20988223.4674
        -0.000          -0.000
 99  2 18  1 45 30.0000000  0  7 24  8 17 30  5  6 10               -0.000000013
 -20771096.113 9 -14119743.62948  21512151.091    21512151.1384   21512158.0024
        -0.000          -0.000
  -8847297.843 9  -6607715.51746  23603363.329    23603363.0424   23603372.7304
        -0.000          -0.000
  -6946636.106 8  -5391265.32645  24798089.085    24798088.7904   24798100.2764
        -0.000          -0.000
 -25825522.826 9 -19417501.14449  20760927.460    20760927.9394   20760933.8124
        -0.000          -0.000
 -26745563.898 9 -20451596.67749  20580909.917    20580909.6634   20580916.3654
        -0.000          -0.000
 -18697399.148 9 -14552550.71747  22420134.684    22420134.7644   22420141.8664
        -0.000          -0.000
 -24183439.821 9 -17609259.80448  20985323.163    20985322.6144   20985329.5694
        -0.000          -0.000
 99  2 18  1 46  0.0000000  0  7 24  8 17 30  5  6 10                0.000000013
 -20707582.420 9 -14070252.41748  21524237.286    21524237.3414   21524244.2274
        -0.000          -0.000
  -8762139.061 9  -6541358.07846  23619568.534    23619568.2534   23619578.0084
        -0.000          -0.000
  -7034514.461 8  -5459741.77245  24781366.263    24781365.9884   24781377.4264
        -0.000          -0.000
 -25860631.435 9 -19444858.46249  20754246.514    20754246.9944   20754252.8554
        -0.000          -0.000
 -26700046.526 9 -20416128.58849  20589571.538    20589571.2864   20589578.0044
        -0.000          -0.000
 -18761713.436 9 -14602665.66247  22407896.026    22407896.1264   22407903.2064
        -0.000          -0.000
 -24198085.652 9 -17620672.07448  20982536.137    20982535.5834   20982542.5184
        -0.000          -0.000
 99  2 18  1 46 30.0000000  0  7 24  8 17 30  5  6 10                0.000000039
 -20643942.607 9 -14020662.92348  21536347.481    21536347.5774   21536354.4514
        -0.000          -0.000
  -8676914.079 9  -6474949.05846  23635786.363    23635786.0664   23635795.8334
        -0.000          -0.000
  -7122279.372 8  -5528129.80445  24764665.043    24764664.8004   24764675.9724
        -0.000          -0.000
 -25895252.372 9 -19471835.77349  20747658.313    20747658.7854   20747664.6344
        -0.000          -0.000
 -26654090.236 9 -20380318.48149  20598316.712    20598316.4824   20598323.1854
        -0.000          -0.000
 -18826024.122 9 -14652777.80847  22395657.999    22395658.0994   22395665.1584
        -0.000          -0.000
 -24212156.334 9 -17631636.17448  20979858.512    20979857.9574   20979864.8834
        -0.000          -0.000
 99  2 18  1 47  0.0000000  0  7 24  8 17 30  5  6 10                0.000000057
 -20580159.720 9 -13970961.94248  21548484.995    21548485.0544   21548491.9174
        -0.000          -0.000
  -8591627.285 9  -6408491.87646  23652015.923    23652015.6604   23652025.4634
        -0.000          -0.000
  -7209933.064 8  -5596431.16245  24747984.946    24747984.7174   24747995.8394
        -0.000          -0.000
 -25929363.996 9 -19498416.21849  20741167.054    20741167.5394   20741173.3764
        -0.000          -0.000
 -26607675.475 9 -20344151.12249  20607149.141    20607148.8884   20607155.6054
        -0.000          -0.000
 -18890325.681 9 -14702882.84147  22383421.809    22383421.9094   22383428.8964
        -0.000          -0.000
 -24225644.321 9 -17642146.23348  20977291.802    20977291.2444   20977298.1354
        -0.000          -0.000
 99  2 18  1 47 30.0000000  0  7 24  8 17 30  5  6 10                0.000000059
 -20516231.696 9 -13921147.87048  21560650.060    21560650.1334   21560657.0214
        -0.000          -0.000
  -8506259.172 8  -6341971.31746  23668260.951    23668260.6344   23668270.4514
        -0.000          -0.000
  -7297484.995 8  -5664653.24145  24731324.276    24731323.9714   24731335.0074
        -0.000          -0.000
 -25962953.635 9 -19524589.92249  20734775.119    20734775.6044   20734781.4234
        -0.000          -0.000
 -26560783.869 9 -20307612.20749  20616072.320    20616072.0704   20616078.7624
        -0.000          -0.000
 -18954605.771 9 -14752971.14847  22371189.696    22371189.7984   22371196.7464
        -0.000          -0.000
 -24238539.073 9 -17652194.02748  20974837.951    20974837.4024   20974844.2844
        -0.000          -0.000
 99  2 18  1 48  0.0000000  0  7 24  8 17 30  5  6 10                0.000000043
 -20452158.653 9 -13871220.78948  21572842.750    21572842.8024   21572849.6914
        -0.000          -0.000
  -8420799.593 8  -6275379.49346  23684523.323    23684523.1064   23684532.8884
        -0.000          -0.000
  -7384911.054 8  -5732777.22645  24714687.503    24714687.1684   24714698.1894
        -0.000          -0.000
 -25995995.069 9 -19550336.45349  20728487.517    20728487.9964   20728493.7964
        -0.000          -0.000
 -26513394.701 9 -20270685.57849  20625090.174    20625089.9174   20625096.6194
        -0.000          -0.000
 -19018856.492 9 -14803036.55747  22358963.080    22358963.1924   22358970.1674
        -0.000          -0.000
 -24250823.883 9 -17661766.54248  20972500.155    20972499.6114   20972506.4844
        -0.000          -0.000
 99  2 18  1 48 30.0000000  0  7 24  8 17 30  5  6 10                0.000000020
 -20387907.801 9 -13821155.15948  21585069.276    21585069.2974   21585076.2084
        -0.000          -0.000
  -8335229.050 9  -6208701.20046  23700806.877    23700806.6534   23700816.4314
        -0.000          -0.000
  -7472169.112 8  -5800770.29745  24698082.732    24698082.3644   24698093.2604
        -0.000          -0.000
 -26028440.454 9 -19575618.53049  20722313.345    20722313.8214   20722319.6194
        -0.000          -0.000
 -26465457.140 9 -20233331.61649  20634212.348    20634212.1024   20634218.7934
        -0.000          -0.000
 -19083027.405 9 -14853039.78847  22346751.670    22346751.7964   22346758.7464
        -0.000          -0.000
 -24262460.455 9 -17670833.93548  20970285.734    20970285.1944   20970292.0584
        -0.000          -0.000
 99  2 18  1 49  0.0000000  0  7 24  8 17 30  5  6 10               -0.000000013
 -20323474.797 9 -13770947.59248  21597330.382    21597330.4294   21597337.3434
        -0.000          -0.000
  -8249540.327 9  -6141930.81646  23717113.000    23717112.7844   23717122.5384
        -0.000          -0.000
  -7559238.503 8  -5868616.36745  24681513.848    24681513.4244   24681524.3194
        -0.000          -0.000
 -26060279.047 9 -19600427.78049  20716254.617    20716255.0954   20716260.8694
        -0.000          -0.000
 -26416950.627 9 -20195534.30649  20643442.822    20643442.5624   20643449.2844
        -0.000          -0.000
 -19147105.931 9 -14902971.02247  22334557.904    22334558.0174   22334564.9034
        -0.000          -0.000
 -24273453.808 9 -17679400.12148  20968193.696    20968193.1624   20968200.0174
        -0.000          -0.000
 99  2 18  1 49 30.0000000  0  7 24  8 17 30  5  6 10               -0.000000043
 -20258859.038 9 -13720597.61948  21609626.358    21609626.4074   21609633.2914
        -0.000          -0.000
  -8163718.255 9  -6075056.51646  23733444.476    23733444.2684   23733454.0124
        -0.000          -0.000
  -7646098.651 8  -5936299.39345  24664984.711    24664984.3374   24664995.3004
        -0.000          -0.000
 -26091510.997 9 -19624764.32649  20710311.355    20710311.8304   20710317.5934
        -0.000          -0.000
 -26367867.272 9 -20157287.52149  20652783.062    20652782.8064   20652789.5054
        -0.000          -0.000
 -19211078.054 9 -14952819.34947  22322384.358    22322384.4654   22322391.2754
        -0.000          -0.000
 -24283813.313 9 -17687472.40448  20966222.292    20966221.7574   20966228.6064
        -0.000          -0.000
 99  2 18  1 50  0.0000000  0  7 24  8 17 30  5  6 10               -0.000000064
 -20194048.646 9 -13670095.98548  21621959.306    21621959.3794   21621966.2584
        -0.000          -0.000
  -8077787.200 9  -6008097.30845  23749796.660    23749796.4184   23749806.2414
        -0.000          -0.000
  -7732739.269 8  -6003811.35045  24648497.414    24648497.0514   24648508.1134
        -0.000          -0.000
 -26122134.671 9 -19648626.88749  20704483.835    20704484.3244   20704490.0444
        -0.000          -0.000
 -26318214.201 9 -20118596.81949  20662231.741    20662231.4854   20662238.1764
        -0.000          -0.000
 -19274931.501 9 -15002575.19247  22310233.396    22310233.5174   22310240.2894
        -0.000          -0.000
 -24293542.939 9 -17695053.87048  20964370.760    20964370.2394   20964377.0644
        -0.000          -0.000
 99  2 18  1 50 30.0000000  0  7 24  8 17 30  5  6 10               -0.000000077
 -20129056.911 9 -13619453.04648  21634326.832    21634326.8884   21634333.7334
        -0.000          -0.000
  -7991771.178 9  -5941071.89145  23766164.926    23766164.6664   23766174.5224
        -0.000          -0.000
  -7819173.673 8  -6071162.64145  24632049.274    24632048.9384   24632059.7914
        -0.000          -0.000
 -26152183.571 9 -19672041.57449  20698765.682    20698766.1824   20698771.8964
        -0.000          -0.000
 -26268005.267 9 -20079472.97549  20671786.147    20671785.8904   20671792.6014
        -0.000          -0.000
 -19338679.850 9 -15052249.14547  22298102.402    22298102.4854   22298109.2674
        -0.000          -0.000
 -24302660.965 9 -17702158.76848  20962635.614    20962635.0904   20962641.8964
        -0.000          -0.000
 99  2 18  1 51  0.0000000  0  7 24  8 17 30  5  6 10               -0.000000072
 -20063893.095 9 -13568676.01848  21646727.042    21646727.1034   21646733.9394
        -0.000          -0.000
  -7905669.028 9  -5873979.34445  23782549.682    23782549.3144   23782559.4484
        -0.000          -0.000
  -7905415.046 9  -6138363.51545  24615637.973    24615637.6194   24615648.4724
        -0.000          -0.000
 -26181680.001 9 -19695025.76049  20693152.676    20693153.1584   20693158.8614
        -0.000          -0.000
 -26217265.696 9 -20039935.63749  20681441.532    20681441.2964   20681448.0134
        -0.000          -0.000
 -19402341.802 9 -15101855.77647  22285987.863    22285987.9624   22285994.7484
        -0.000          -0.000
 -24311182.525 9 -17708798.88148  20961013.959    20961013.4134   20961020.2154
        -0.000          -0.000
 99  2 18  1 51 30.0000000  0  7 24  8 17 30  5  6 10               -0.000000061
 -19998584.638 9 -13517786.27548  21659154.846    21659154.8894   21659161.7004
        -0.000          -0.000
  -7819512.552 9  -5806844.48045  23798944.813    23798944.4544   23798954.5444
        -0.000          -0.000
  -7991498.961 9  -6205441.70345  24599256.590    24599256.1504   24599266.8854
        -0.000          -0.000
 -26210646.688 9 -19717597.16549  20687640.458    20687640.9344   20687646.6304
        -0.000          -0.000
 -26166039.206 9 -20000018.87849  20691189.607    20691189.3684   20691196.0744
        -0.000          -0.000
 -19465944.168 9 -15151415.98447  22273884.657    22273884.7614   22273891.5234
        -0.000          -0.000
 -24319117.794 9 -17714982.14648  20959503.858    20959503.3284   20959510.1064
        -0.000          -0.000
 99  2 18  1 52  0.0000000  0  7 24  8 17 30  5  6 10               -0.000000052
 -19933144.604 9 -13466794.01948  21671607.641    21671607.6784   21671614.4624
        -0.000          -0.000
  -7733321.144 9  -5739682.38245  23815346.582    23815346.2794   23815356.1704
        -0.000          -0.000
  -8077440.925 9  -6272409.28245  24582902.270    24582901.7824   24582912.3824
        -0.000          -0.000
 -26239082.552 9 -19739754.93849  20682229.246    20682229.7304   20682235.4214
        -0.000          -0.000
 -26114342.681 9 -19959735.85049  20701027.131    20701026.8674   20701033.5864
        -0.000          -0.000
 -19529502.975 9 -15200942.24647  22261789.735    22261789.8634   22261796.6144
        -0.000          -0.000
 -24326455.148 9 -17720699.50348  20958107.570    20958107.0454   20958113.7904
        -0.000          -0.000
 99  2 18  1 52 30.0000000  0  7 24  8 17 30  5  6 10               -0.000000045
 -19867568.725 9 -13415695.91148  21684086.249    21684086.3294   21684093.0724
        -0.000          -0.000
  -7647071.158 9  -5672474.64746  23831759.461    23831759.1864   23831769.0184
        -0.000          -0.000
  -8163237.288 9  -6339263.40445  24566575.574    24566575.1444   24566585.6744
        -0.000          -0.000
 -26266969.802 9 -19761485.22749  20676922.469    20676922.9644   20676928.6344
        -0.000          -0.000
 -26062165.508 9 -19919078.30449  20710956.134    20710955.8544   20710962.5664
        -0.000          -0.000
 -19593007.433 9 -15250426.15747  22249705.208    22249705.3394   22249712.1004
        -0.000          -0.000
 -24333190.785 9 -17725947.99748  20956825.791    20956825.2624   20956831.9974
        -0.000          -0.000
 99  2 18  1 53  0.0000000  0  7 24  8 17 30  5  6 10               -0.000000046
 -19801858.814 9 -13364493.36248  21696590.427    21696590.4934   21696597.2424
        -0.000          -0.000
  -7560767.956 9  -5605225.45346  23848182.468    23848182.1174   23848192.0424
        -0.000          -0.000
  -8248905.185 9  -6406017.43445  24550273.396    24550272.9604   24550283.5724
        -0.000          -0.000
 -26294301.203 9 -19782782.38549  20671721.448    20671721.9454   20671727.6034
        -0.000          -0.000
 -26009516.626 9 -19878053.20149  20720974.856    20720974.5984   20720981.2944
        -0.000          -0.000
 -19656462.736 9 -15299871.76847  22237630.004    22237630.1094   22237636.8314
        -0.000          -0.000
 -24339326.953 9 -17730729.36648  20955658.043    20955657.5304   20955664.2344
        -0.000          -0.000
 99  2 18  1 53 30.0000000  0  7 24  8 17 30  5  6 10               -0.000000056
 -19736012.839 9 -13313184.78648  21709120.486    21709120.5594   21709127.3064
        -0.000          -0.000
  -7474416.625 9  -5537938.74846  23864614.617    23864614.2914   23864624.1824
        -0.000          -0.000
  -8334424.259 9  -6472655.51645  24533999.499    24533999.1664   24534009.5824
        -0.000          -0.000
 -26321064.859 9 -19803637.13949  20666628.486    20666628.9614   20666634.6094
        -0.000          -0.000
 -25956380.547 9 -19836648.46449  20731086.330    20731086.0484   20731092.7354
        -0.000          -0.000
 -19719861.008 9 -15349272.95547  22225565.678    22225565.7814   22225572.4034
        -0.000          -0.000
 -24344843.356 9 -17735027.79648  20954608.280    20954607.7274   20954614.4504
        -0.000          -0.000
 99  2 18  1 54  0.0000000  0  7 24  8 17 30  5  6 10               -0.000000065
 -19670027.507 9 -13261767.62148  21721677.094    21721677.1364   21721683.8484
        -0.000          -0.000
  -7388020.385 9  -5470617.04846  23881055.327    23881054.9794   23881064.9024
        -0.000          -0.000
  -8419782.211 9  -6539168.03145  24517756.260    24517755.8914   24517766.2654
        -0.000          -0.000
 -26347264.609 9 -19824052.49049  20661642.782    20661643.2724   20661648.9274
        -0.000          -0.000
 -25902760.801 9 -19794866.84849  20741289.855    20741289.5644   20741296.2464
        -0.000          -0.000
 -19783202.784 9 -15398630.10547  22213512.103    22213512.2264   22213518.8634
        -0.000          -0.000
 -24349751.567 9 -17738852.31848  20953674.237    20953673.6944   20953680.4134
        -0.000          -0.000
 99  2 18  1 54 30.0000000  0  7 24  8 17 30  5  6 10               -0.000000057
 -19603892.742 9 -13210234.02748  21734262.031    21734262.0844   21734268.8524
        -0.000          -0.000
  -7301576.160 9  -5403257.95246  23897505.191    23897504.8624   23897514.7954
        -0.000          -0.000
  -8504958.506 9  -6605539.00845  24501547.621    24501547.2924   24501557.5524
        -0.000          -0.000
 -26372903.092 9 -19844030.49749  20656763.929    20656764.4104   20656770.0594
        -0.000          -0.000
 -25848653.623 9 -19752705.41249  20751586.088    20751585.8064   20751592.4954
        -0.000          -0.000
 -19846488.345 9 -15447943.45947  22201469.197    22201469.3034   22201475.9464
        -0.000          -0.000
 -24354046.687 9 -17742199.10748  20952856.825    20952856.2994   20952862.9904
        -0.000          -0.000
 99  2 18  1 55  0.0000000  0  7 24  8 17 30  5  6 10               -0.000000043
 -19537636.260 9 -13158605.58148  21746870.211    21746870.2954   21746877.0484
        -0.000          -0.000
  -7215133.387 9  -5335899.98446  23913954.746    23913954.3644   23913964.3904
        -0.000          -0.000
  -8589966.894 9  -6671779.14145  24485370.929    24485370.6714   24485380.8284
        -0.000          -0.000
 -26398012.514 9 -19863596.24249  20651985.734    20651986.2284   20651991.8624
        -0.000          -0.000
 -25794095.212 9 -19710192.34349  20761968.170    20761967.8994   20761974.5954
        -0.000          -0.000
 -19909754.938 9 -15497242.03247  22189429.925    22189430.0174   22189436.6054
        -0.000          -0.000
 -24357733.964 9 -17745072.24948  20952155.101    20952154.5754   20952161.2674
        -0.000          -0.000
 99  2 18  1 55 30.0000000  0  7 24  8 17 30  5  6 10               -0.000000026
 -19471266.992 9 -13106889.24748  21759499.899    21759499.9624   21759506.6754
        -0.000          -0.000
  -7128708.592 9  -5268556.01646  23930400.848    23930400.4994   23930410.4354
        -0.000          -0.000
  -8674808.274 9  -6737889.16345  24469226.003    24469225.6984   24469235.9774
        -0.000          -0.000
 -26422595.843 9 -19882752.04149  20647307.669    20647308.1464   20647313.7794
        -0.000          -0.000
 -25739107.955 9 -19667345.11149  20772431.874    20772431.6054   20772438.3144
        -0.000          -0.000
 -19973006.553 9 -15546528.93747  22177393.509    22177393.5704   22177400.1594
        -0.000          -0.000
 -24360825.513 9 -17747481.19248  20951566.742    20951566.2234   20951572.8954
        -0.000          -0.000
 99  2 18  1 56  0.0000000  0  7 24  8 17 30  5  6 10               -0.000000009
 -19404777.211 9 -13055079.01748  21772152.422    21772152.4834   21772159.2274
        -0.000          -0.000
  -7042293.610 9  -5201219.72646  23946845.044    23946844.7554   23946854.7014
        -0.000          -0.000
  -8759493.859 9  -6803877.76645  24453110.736    24453110.3444   24453120.8674
        -0.000          -0.000
 -26446639.859 9 -19901487.60249  20642732.208    20642732.6844   20642738.3014
        -0.000          -0.000
 -25683692.010 9 -19624163.84349  20782977.146    20782976.8854   20782983.6084
        -0.000          -0.000
 -20036242.624 9 -15595803.73148  22165359.996    22165360.0814   22165366.6884
        -0.000          -0.000
 -24363326.418 9 -17749429.89548  20951090.788    20951090.2624   20951096.9134
        -0.000          -0.000
 99  2 18  1 56 30.0000000  0  7 24  8 17 30  5  6 10                0.000000006
 -19338164.787 9 -13003173.21048  21784828.358    21784828.4074   21784835.1614
        -0.000          -0.000
  -6955875.516 9  -5133881.02046  23963289.908    23963289.5704   23963299.5544
        -0.000          -0.000
  -8844020.024 9  -6869742.17245  24437025.779    24437025.5504   24437035.8714
        -0.000          -0.000
 -26470129.209 9 -19919790.95349  20638262.291    20638262.7684   20638268.3674
        -0.000          -0.000
 -25627824.250 9 -19580630.51249  20793608.434    20793608.1554   20793614.8854
        -0.000          -0.000
 -20099448.604 9 -15645055.08048  22153332.247    22153332.3474   22153338.9724
        -0.000          -0.000
 -24365213.940 9 -17750900.63748  20950731.571    20950731.0314   20950737.6864
        -0.000          -0.000
 99  2 18  1 57  0.0000000  0  7 24  8 17 30  5  6 10                0.000000001
 -19271433.517 9 -12951174.79448  21797526.901    21797526.9364   21797533.6734
        -0.000          -0.000
  -6869438.924 9  -5066527.89546  23979738.288    23979737.9434   23979747.9734
        -0.000          -0.000
  -8928395.380 9  -6935489.05245  24420969.584    24420969.2754   24420979.5374
        -0.000          -0.000
 -26493034.786 9 -19937639.41649  20633903.464    20633903.9464   20633909.5354
        -0.000          -0.000
 -25571486.650 9 -19536731.07649  20804329.126    20804328.8634   20804335.5764
        -0.000          -0.000
 -20162597.571 9 -15694262.00448  22141315.349    22141315.4764   22141322.0294
        -0.000          -0.000
 -24366491.244 9 -17751895.87648  20950488.483    20950487.9494   20950494.5974
        -0.000          -0.000
 99  2 18  1 57 30.0000000  0  7 24  8 17 30  5  6 10               -0.000000004
 -19204552.932 9 -12899060.03148  21810253.845    21810253.8954   21810260.6024
        -0.000          -0.000
  -6782914.467 8  -4999106.28145  23996203.339    23996203.0654   23996212.9964
        -0.000          -0.000
  -9012593.916 9  -7001098.14945  24404946.959    24404946.5774   24404956.7834
        -0.000          -0.000
 -26515310.589 9 -19954997.14549  20629664.455    20629664.9304   20629670.5024
        -0.000          -0.000
 -25514636.626 9 -19492432.35549  20815147.321    20815147.0444   20815153.7784
        -0.000          -0.000
 -20225657.091 9 -15743399.22748  22129315.456    22129315.5944   22129322.1234
        -0.000          -0.000
 -24367144.948 9 -17752405.20148  20950364.044    20950363.5054   20950370.1594
        -0.000          -0.000
 99  2 18  1 58  0.0000000  0  7 24  8 17 30  5  6 10               -0.000000003
 -19137539.049 9 -12846841.40248  21823006.152    21823006.1874   21823012.8904
        -0.000          -0.000
  -6696290.037 8  -4931606.78545  24012687.397    24012687.1434   24012697.2204
        -0.000          -0.000
  -9096617.620 9  -7066571.01445  24388957.644    24388957.2674   24388967.4254
        -0.000          -0.000
 -26536976.549 9 -19971879.67449  20625541.551    20625542.0344   20625547.6004
        -0.000          -0.000
 -25457264.651 9 -19447726.91849  20826064.841    20826064.5564   20826071.2734
        -0.000          -0.000
 -20288630.572 9 -15792469.40848  22117331.951    22117332.1004   22117338.6534
        -0.000          -0.000
 -24367175.838 9 -17752429.21448  20950358.136    20950357.5894   20950364.2034
        -0.000          -0.000
 99  2 18  1 58 30.0000000  0  7 24  8 17 30  5  6 10                0.000000009
 -19070404.312 9 -12794528.59848  21835781.481    21835781.5334   21835788.1964
        -0.000          -0.000
  -6609572.305 9  -4864034.58745  24029189.301    24029189.0184   24029199.1534
        -0.000          -0.000
  -9180463.474 8  -7131905.29345  24373002.206    24373001.8024   24373012.0574
        -0.000          -0.000
 -26558047.753 9 -19988298.76049  20621531.819    20621532.3004   20621537.8634
        -0.000          -0.000
 -25399378.572 9 -19402620.87349  20837080.202    20837079.9404   20837086.6584
        -0.000          -0.000
 -20351504.199 9 -15841461.78748  22105367.466    22105367.5734   22105374.1344
        -0.000          -0.000
 -24366573.482 9 -17751959.80048  20950472.648    20950472.1404   20950478.7394
        -0.000          -0.000
 99  2 18  1 59  0.0000000  0  7 24  8 17 30  5  6 10                0.000000030
 -19003170.133 9 -12742138.30748  21848575.684    21848575.7464   21848582.4404
        -0.000          -0.000
  -6522783.399 9  -4796406.91945  24045704.733    24045704.3954   24045714.4594
        -0.000          -0.000
  -9264157.712 8  -7197121.43745  24357075.610    24357075.1484   24357085.4004
        -0.000          -0.000
 -26578556.569 9 -20004279.62649  20617629.099    20617629.5924   20617635.1324
        -0.000          -0.000
 -25341018.413 9 -19357145.41249  20848185.766    20848185.4914   20848192.2004
        -0.000          -0.000
 -20414309.906 9 -15890401.24548  22093415.870    22093415.9774   22093422.4944
        -0.000          -0.000
 -24365376.415 9 -17751026.97548  20950700.427    20950699.9024   20950706.4804
        -0.000          -0.000
 99  2 18  1 59 30.0000000  0  7 24  8 17 30  5  6 10                0.000000067
 -18935849.135 9 -12689680.36648  21861386.409    21861386.4674   21861393.2044
        -0.000          -0.000
  -6435969.954 8  -4728760.13345  24062224.876    24062224.5184   24062234.6014
        -0.000          -0.000
  -9347715.943 9  -7262231.60245  24341174.890    24341174.4864   24341184.6354
        -0.000          -0.000
 -26598555.872 9 -20019863.46849  20613823.333    20613823.8274   20613829.3574
        -0.000          -0.000
 -25282224.962 9 -19311332.31749  20859373.793    20859373.5264   20859380.2224
        -0.000          -0.000
 -20477070.915 9 -15939305.87648  22081472.826    22081472.9254   22081479.3874
        -0.000          -0.000
 -24363597.143 9 -17749640.48648  20951038.981    20951038.4684   20951045.0184
        -0.000          -0.000
 99  2 18  2  0  0.0000000  0  7 24  8 17 30  5  6 10                0.000000099
 -18868456.653 9 -12637166.72448  21874210.783    21874210.8294   21874217.5454
        -0.000          -0.000
  -6349192.651 8  -4661141.49745  24078738.067    24078737.7974   24078747.8884
        -0.000          -0.000
  -9431145.769 8  -7327241.71845  24325298.556    24325298.1974   24325308.2834
        -0.000          -0.000
 -26618066.227 9 -20035066.31349  20610110.621    20610111.1074   20610116.6394
        -0.000          -0.000
 -25223007.170 9 -19265188.57149  20870642.534    20870642.2654   20870648.9664
        -0.000          -0.000
 -20539776.571 9 -15988167.36648  22069540.269    22069540.3554   22069546.8724
        -0.000          -0.000
 -24361230.112 9 -17747795.99448  20951489.396    20951488.8864   20951495.4114
        -0.000          -0.000
 99  2 18  2  0 30.0000000  0  7 24  8 17 30  5  6 10                0.000000110
 -18800980.063 9 -12584587.53848  21887051.104    21887051.1604   21887057.8974
        -0.000          -0.000
  -6262477.885 8  -4593571.60945  24095239.398    24095239.1134   24095249.2024
        -0.000          -0.000
  -9514444.169 8  -7392149.40845  24309447.296    24309446.9704   24309457.1134
        -0.000          -0.000
 -26637055.424 9 -20049863.06049  20606497.028    20606497.5194   20606503.0384
        -0.000          -0.000
 -25163368.441 9 -19218716.81549  20881991.414    20881991.1584   20881997.8514
        -0.000          -0.000
 -20602422.387 9 -16036982.22748  22057619.059    22057619.1684   22057625.6684
        -0.000          -0.000
 -24358275.394 9 -17745493.55648  20952051.619    20952051.0974   20952057.6044
        -0.000          -0.000
 99  2 18  2  1  0.0000000  0  7 24  8 17 30  5  6 10                0.000000102
 -18733391.391 9 -12531921.02048  21899912.745    21899912.8164   21899919.6144
        -0.000          -0.000
  -6175811.664 9  -4526039.53045  24111731.391    24111731.1764   24111741.2214
        -0.000          -0.000
  -9597583.437 8  -7456933.12345  24293626.301    24293625.9234   24293636.1534
        -0.000          -0.000
 -26655481.939 9 -20064221.35949  20602990.558    20602991.0364   20602996.5644
        -0.000          -0.000
 -25103272.984 9 -19171889.17149  20893427.196    20893426.9314   20893433.6144
        -0.000          -0.000
 -20664989.806 9 -16085736.01148  22045712.872    22045712.9804   22045719.4434
        -0.000          -0.000
 -24354720.994 9 -17742723.84548  20952727.933    20952727.4294   20952733.9074
        -0.000          -0.000
 99  2 18  2  1 30.0000000  0  7 24  8 17 30  5  6 10                0.000000070
 -18665681.882 9 -12479160.34248  21912797.396    21912797.4664   21912804.2624
        -0.000          -0.000
  -6089191.041 9  -4458542.98445  24128214.809    24128214.6144   24128224.4914
        -0.000          -0.000
  -9680540.743 9  -7521575.04345  24277839.946    24277839.6324   24277849.6914
        -0.000          -0.000
 -26673312.368 9 -20078115.17749  20599597.499    20599597.9754   20599603.5074
        -0.000          -0.000
 -25042689.066 9 -19124680.91749  20904955.937    20904955.6604   20904962.3674
        -0.000          -0.000
 -20727448.826 9 -16134405.32748  22033827.270    22033827.3994   22033833.8304
        -0.000          -0.000
 -24350535.567 9 -17739462.42348  20953524.365    20953523.8474   20953530.3114
        -0.000          -0.000
 99  2 18  2  2  0.0000000  0  7 24  8 17 30  5  6 10                0.000000017
 -18597831.731 9 -12426290.07048  21925708.841    21925708.8984   21925715.6844
        -0.000          -0.000
  -6002573.964 9  -4391049.19645  24144697.565    24144697.3544   24144707.2414
        -0.000          -0.000
  -9763277.919 8  -7586045.43945  24262095.491    24262095.1624   24262105.2244
        -0.000          -0.000
 -26690492.603 9 -20091502.34849  20596328.211    20596328.7084   20596334.2074
        -0.000          -0.000
 -24981573.051 9 -19077058.02749  20916585.920    20916585.6594   20916592.3564
        -0.000          -0.000
 -20789782.818 9 -16182977.20948  22021965.475    22021965.6014   22021972.0364
        -0.000          -0.000
 -24345697.854 9 -17735692.72448  20954444.903    20954444.3604   20954450.8324
        -0.000          -0.000
 99  2 18  2  2 30.0000000  0  7 24  8 17 30  5  6 10               -0.000000025
 -18529816.284 9 -12373291.00248  21938651.728    21938651.8074   21938658.5944
        -0.000          -0.000
  -5915906.304 9  -4323516.00346  24161189.977    24161189.6964   24161199.7174
        -0.000          -0.000
  -9845764.702 8  -7650320.71745  24246398.664    24246398.3484   24246408.3884
        -0.000          -0.000
 -26706988.819 9 -20104356.51949  20593189.050    20593189.5324   20593195.0434
        -0.000          -0.000
 -24919914.951 9 -19029012.72849  20928319.027    20928318.7764   20928325.4934
        -0.000          -0.000
 -20851986.533 9 -16231447.58148  22010128.428    22010128.5554   22010135.0094
        -0.000          -0.000
 -24340196.540 9 -17731405.93948  20955491.709    20955491.1654   20955497.6434
        -0.000          -0.000
 99  2 18  2  3  0.0000000  0  7 24  8 17 30  5  6 10               -0.000000055
 -18461664.218 9 -12320185.48448  21951620.613    21951620.6694   21951627.4634
        -0.000          -0.000
  -5829192.656 8  -4255946.97445  24177691.019    24177690.8234   24177700.7944
        -0.000          -0.000
  -9928018.713 9  -7714414.63346  24230746.149    24230745.8344   24230755.8624
        -0.000          -0.000
 -26722839.261 9 -20116707.49449  20590172.768    20590173.2504   20590178.7394
        -0.000          -0.000
 -24857737.209 9 -18980562.52148  20940151.025    20940150.7854   20940157.4724
        -0.000          -0.000
 -20914081.384 9 -16279833.14048  21998312.155    21998312.2864   21998318.6864
        -0.000          -0.000
 -24334049.979 9 -17726616.36548  20956661.313    20956660.7664   20956667.2394
        -0.000          -0.000
 99  2 18  2  3 30.0000000  0  7 24  8 17 30  5  6 10               -0.000000085
 -18393414.658 9 -12267003.98148  21964608.064    21964608.1384   21964614.8874
        -0.000          -0.000
  -5742467.754 9  -4188369.19645  24194194.274    24194194.0484   24194204.1644
        -0.000          -0.000
 -10010078.264 9  -7778357.00646  24215130.699    24215130.4444   24215140.3374
        -0.000          -0.000
 -26738091.203 9 -20128592.10249  20587270.384    20587270.8594   20587276.3374
        -0.000          -0.000
 -24795091.850 9 -18931747.94248  20952072.039    20952071.7734   20952078.4684
        -0.000          -0.000
 -20976106.220 9 -16328164.14348  21986509.191    21986509.3364   21986515.6834
        -0.000          -0.000
 -24327296.181 9 -17721353.62248  20957946.477    20957945.9364   20957952.4074
        -0.000          -0.000
 99  2 18  2  4  0.0000000  0  7 24  8 17 30  5  6 10               -0.000000088
 -18325039.543 9 -12213724.65548  21977619.402    21977619.4714   21977626.2334
        -0.000          -0.000
  -5655705.173 9  -4120762.03846  24210704.664    24210704.4684   24210714.5724
        -0.000          -0.000
 -10091924.565 9  -7842133.20146  24199555.802    24199555.4774   24199565.4384
        -0.000          -0.000
 -26752725.712 9 -20139995.59849  20584485.518    20584485.9874   20584491.4784
        -0.000          -0.000
 -24731976.941 9 -18882567.49648  20964082.397    20964082.1484   20964088.8074
        -0.000          -0.000
 -21038042.033 9 -16376425.76748  21974723.179    21974723.3064   21974729.6874
        -0.000          -0.000
 -24319916.246 9 -17715602.97948  20959350.792    20959350.2644   20959356.7184
        -0.000          -0.000
 99  2 18  2  4 30.0000000  0  7 24  8 17 30  5  6 10               -0.000000075
 -18256568.547 9 -12160370.61848  21990648.968    21990649.0414   21990655.8254
        -0.000          -0.000
  -5568940.177 8  -4053153.00446  24227215.599    24227215.4284   24227225.4524
        -0.000          -0.000
 -10173606.701 9  -7905781.46946  24184012.040    24184011.7174   24184021.5814
        -0.000          -0.000
 -26766784.319 9 -20150950.33949  20581810.221    20581810.6894   20581816.1784
        -0.000          -0.000
 -24668443.646 9 -18833061.03248  20976172.358    20976172.1084   20976178.7644
        -0.000          -0.000
 -21099912.748 9 -16424636.66448  21962949.476    21962949.6264   21962956.0344
        -0.000          -0.000
 -24311928.117 9 -17709378.41748  20960870.862    20960870.3124   20960876.7584
        -0.000          -0.000
 99  2 18  2  5  0.0000000  0  7 24  8 17 30  5  6 10               -0.000000060
 -18188021.975 9 -12106957.68848  22003692.893    22003692.9804   22003699.7604
        -0.000          -0.000
  -5482196.481 8  -3985560.55045  24243722.387    24243722.1904   24243732.2514
        -0.000          -0.000
 -10255138.895 9  -7969312.86946  24168496.885    24168496.5484   24168506.4244
        -0.000          -0.000
 -26780283.304 9 -20161469.01049  20579241.443    20579241.9274   20579247.4124
        -0.000          -0.000
 -24604501.516 9 -18783235.99048  20988340.152    20988339.8954   20988346.5504
        -0.000          -0.000
 -21161721.817 9 -16472799.52648  21951187.561    21951187.6894   21951194.0924
        -0.000          -0.000
 -24303332.201 9 -17702680.26048  20962506.601    20962506.0594   20962512.4704
        -0.000          -0.000
 99  2 18  2  5 30.0000000  0  7 24  8 17 30  5  6 10               -0.000000045
 -18119397.336 9 -12053483.92448  22016751.749    22016751.8004   22016758.5844
        -0.000          -0.000
  -5395480.376 8  -3917989.60845  24260223.901    24260223.7364   24260233.8034
        -0.000          -0.000
 -10336513.823 9  -8032721.71946  24153011.582    24153011.2684   24153021.1524
        -0.000          -0.000
 -26793214.822 9 -20171545.50049  20576780.656    20576781.1214   20576786.6074
        -0.000          -0.000
 -24540144.365 9 -18733087.55248  21000586.868    21000586.6264   21000593.2694
        -0.000          -0.000
 -21223470.300 9 -16520915.17948  21939437.186    21939437.2944   21939443.6874
        -0.000          -0.000
 -24294118.380 9 -17695500.61948  20964259.899    20964259.3554   20964265.7694
        -0.000          -0.000
 99  2 18  2  6  0.0000000  0  7 24  8 17 30  5  6 10               -0.000000029
 -18050692.023 9 -11999947.29648  22029825.872    22029825.9494   22029832.7524
        -0.000          -0.000
  -5308789.787 8  -3850438.55845  24276720.624    24276720.5164   24276730.6184
        -0.000          -0.000
 -10417724.778 9  -8096002.78046  24137557.570    24137557.1774   24137567.0924
        -0.000          -0.000
 -26805564.555 9 -20181168.64849  20574430.593    20574431.0684   20574436.5224
        -0.000          -0.000
 -24475371.253 9 -18682614.99348  21012912.813    21012912.5534   21012919.2124
        -0.000          -0.000
 -21285150.637 9 -16568977.73048  21927699.797    21927699.8894   21927706.2464
        -0.000          -0.000
 -24284274.911 9 -17687830.34148  20966133.021    20966132.4894   20966138.8954
        -0.000          -0.000
 99  2 18  2  6 30.0000000  0  7 24  8 17 30  5  6 10               -0.000000018
 -17981913.354 9 -11946353.51348  22042914.009    22042914.0484   22042920.8444
        -0.000          -0.000
  -5222127.191 8  -3782909.30045  24293211.993    24293211.7104   24293221.9674
        -0.000          -0.000
 -10498751.507 9  -8159140.27846  24122138.581    24122138.2224   24122148.0864
        -0.000          -0.000
 -26817322.165 9 -20190330.40449  20572193.170    20572193.6474   20572199.1044
        -0.000          -0.000
 -24410172.804 9 -18631811.00548  21025319.633    21025319.3944   21025326.0184
        -0.000          -0.000
 -21346749.113 9 -16616976.49648  21915977.994    21915978.0744   21915984.4354
        -0.000          -0.000
 -24273808.428 9 -17679674.60048  20968124.677    20968124.1504   20968130.5294
        -0.000          -0.000
 99  2 18  2  7  0.0000000  0  7 24  8 17 30  5  6 10               -0.000000015
 -17913053.130 9 -11892696.17348  22056017.682    22056017.7474   22056024.4944
        -0.000          -0.000
  -5135492.152 8  -3715401.51645  24309698.114    24309697.8664   24309707.9944
        -0.000          -0.000
 -10579576.522 9  -8222120.57846  24106757.954    24106757.5794   24106767.3544
        -0.000          -0.000
 -26828478.893 9 -20199023.93749  20570070.103    20570070.5764   20570076.0284
        -0.000          -0.000
 -24344521.012 9 -18580653.75848  21037812.754    21037812.5064   21037819.1434
        -0.000          -0.000
 -21408251.652 9 -16664900.50548  21904274.428    21904274.5064   21904280.8474
        -0.000          -0.000
 -24262724.464 9 -17671037.70748  20970233.859    20970233.3304   20970239.6924
        -0.000          -0.000
 99  2 18  2  7 30.0000000  0  7 24  8 17 30  5  6 10               -0.000000018
 -17844095.065 9 -11838962.58948  22069139.972    22069139.9934   22069146.7524
        -0.000          -0.000
  -5048893.235 8  -3647921.88445  24326177.388    24326177.1184   24326187.2124
        -0.000          -0.000
 -10660215.252 9  -8284955.72646  24091412.796    24091412.4324   24091422.1874
        -0.000          -0.000
 -26839032.767 9 -20207247.71649  20568061.730    20568062.2174   20568067.6624
        -0.000          -0.000
 -24278412.441 9 -18529140.57048  21050392.794    21050392.5474   21050399.1634
        -0.000          -0.000
 -21469652.677 9 -16712745.41548  21892590.160    21892590.2154   21892596.5404
        -0.000          -0.000
 -24251038.500 9 -17661931.72348  20972457.591    20972457.0704   20972463.4324
        -0.000          -0.000
 99  2 18  2  8  0.0000000  0  7 24  8 17 30  5  6 10               -0.000000022
 -17775021.699 9 -11785139.16848  22082284.143    22082284.2034   22082290.9554
        -0.000          -0.000
  -4962325.721 8  -3580466.73145  24342650.681    24342650.4444   24342660.4734
        -0.000          -0.000
 -10740668.106 9  -8347646.02346  24076102.997    24076102.6714   24076112.2784
        -0.000          -0.000
 -26848974.565 9 -20214994.55049  20566169.845    20566170.3374   20566175.7794
        -0.000          -0.000
 -24211844.481 9 -18477269.41648  21063060.230    21063059.9874   21063066.6174
        -0.000          -0.000
 -21530928.419 9 -16760492.70148  21880929.728    21880929.8174   21880936.0944
        -0.000          -0.000
 -24238752.229 9 -17652357.96848  20974795.525    20974795.0024   20974801.3694
        -0.000          -0.000
 99  2 18  2  8 30.0000000  0  7 24  8 17 30  5  6 10               -0.000000017
 -17705816.067 9 -11731212.67848  22095453.537    22095453.6064   22095460.2954
        -0.000          -0.000
  -4875777.923 8  -3513026.93445  24359120.228    24359120.0224   24359130.1684
        -0.000          -0.000
 -10820930.416 9  -8410187.85346  24060829.432    24060829.1054   24060838.6404
        -0.000          -0.000
 -26858302.032 9 -20222262.68749  20564394.898    20564395.3854   20564400.8314
        -0.000          -0.000
 -24144786.747 9 -18425016.61348  21075820.915    21075820.6434   21075827.2684
        -0.000          -0.000
 -21592074.846 9 -16808139.21548  21869293.930    21869294.0134   21869300.2584
        -0.000          -0.000
 -24225865.823 9 -17642316.57948  20977247.698    20977247.1844   20977253.5254
        -0.000          -0.000
 99  2 18  2  9  0.0000000  0  7 24  8 17 30  5  6 10               -0.000000009
 -17636478.696 9 -11677183.53048  22108647.990    22108648.0224   22108654.7234
        -0.000          -0.000
  -4789265.263 9  -3445614.49945  24375583.091    24375582.8954   24375592.9634
        -0.000          -0.000
 -10901033.018 9  -8472605.22346  24045586.251    24045585.9184   24045595.3984
        -0.000          -0.000
 -26867035.157 9 -20229067.69849  20562733.016    20562733.5164   20562738.9404
        -0.000          -0.000
 -24077234.881 9 -18372378.78648  21088675.603    21088675.3444   21088681.9824
        -0.000          -0.000
 -21653118.089 9 -16855705.33248  21857677.700    21857677.7754   21857684.0464
        -0.000          -0.000
 -24212384.935 9 -17631811.95348  20979812.988    20979812.4784   20979818.8124
        -0.000          -0.000
 99  2 18  2  9 30.0000000  0  7 24  8 17 30  5  6 10               -0.000000002
 -17567028.865 9 -11623066.75347  22121863.911    22121863.9124   22121870.6054
        -0.000          -0.000
  -4702803.116 9  -3378241.41445  24392036.306    24392036.0754   24392046.1564
        -0.000          -0.000
 -10980983.185 9  -8534903.84046  24030372.057    24030371.7004   24030381.1664
        -0.000          -0.000
 -26875186.560 9 -20235419.42749  20561181.827    20561182.3204   20561187.7334
        -0.000          -0.000
 -24009223.806 9 -18319383.14248  21101617.659    21101617.3844   21101624.0184
        -0.000          -0.000
 -21714081.602 9 -16903209.32648  21846076.687    21846076.7864   21846083.0604
        -0.000          -0.000
 -24198324.276 9 -17620855.56448  20982488.627    20982488.1064   20982494.4194
        -0.000          -0.000
 99  2 18  2 10  0.0000000  0  7 24  8 17 30  5  6 10                0.000000005
 -17497486.656 9 -11568877.99247  22135097.357    22135097.3514   22135104.0054
        -0.000          -0.000
  -4616389.820 9  -3310906.40745  24408480.302    24408480.0814   24408490.0804
        -0.000          -0.000
 -11060760.351 9  -8597067.63146  24015190.835    24015190.4804   24015199.8714
        -0.000          -0.000
 -26882755.755 9 -20241317.48449  20559741.464    20559741.9674   20559747.3664
        -0.000          -0.000
 -23940764.837 9 -18266038.49948  21114644.971    21114644.7064   21114651.3294
        -0.000          -0.000
 -21774966.042 9 -16950651.70348  21834490.716    21834490.8174   21834497.0674
        -0.000          -0.000
 -24183676.609 9 -17609441.76248  20985275.975    20985275.4664   20985281.7624
        -0.000          -0.000
 99  2 18  2 10 30.0000000  0  7 24  8 17 30  5  6 10                0.000000008
 -17427873.635 9 -11514634.04447  22148344.292    22148344.2604   22148350.8654
        -0.000          -0.000
  -4530031.078 8  -3243613.87445  24424913.849    24424913.5644   24424923.5974
        -0.000          -0.000
 -11140346.453 9  -8659082.56346  24000045.927    24000045.6144   24000054.9144
        -0.000          -0.000
 -26889748.850 9 -20246766.62649  20558410.722    20558411.1984   20558416.5864
        -0.000          -0.000
 -23871857.933 9 -18212344.80448  21127757.478    21127757.2184   21127763.8594
        -0.000          -0.000
 -21835780.800 9 -16998039.77748  21822917.996    21822918.1084   21822924.3684
        -0.000          -0.000
 -24168435.670 9 -17597565.67648  20988176.191    20988175.6784   20988181.9534
        -0.000          -0.000
 99  2 18  2 11  0.0000000  0  7 24  8 17 30  5  6 10                0.000000003
 -17358205.245 9 -11460346.96247  22161601.687    22161601.6434   22161608.2884
        -0.000          -0.000
  -4443744.143 8  -3176377.32245  24441333.709    24441333.3574   24441343.5894
        -0.000          -0.000
 -11219737.993 9  -8720945.88146  23984937.984    23984937.6534   23984946.8774
        -0.000          -0.000
 -26896166.017 9 -20251767.00349  20557189.573    20557190.0534   20557195.4404
        -0.000          -0.000
 -23802535.051 9 -18158326.96448  21140949.195    21140948.9364   21140955.5814
        -0.000          -0.000
 -21896523.142 9 -17045371.43348  21811359.082    21811359.2104   21811365.4224
        -0.000          -0.000
 -24152590.469 9 -17585218.74548  20991191.441    20991190.9414   20991197.1844
        -0.000          -0.000
 99  2 18  2 11 30.0000000  0  7 24  8 17 30  5  6 10               -0.000000013
 -17288498.003 9 -11406029.59447  22174866.451    22174866.4694   22174873.0914
        -0.000          -0.000
  -4357540.944 8  -3109206.03445  24457737.658    24457737.3404   24457747.4914
        -0.000          -0.000
 -11298940.167 9  -8782661.65946  23969866.150    23969865.8184   23969874.9824
        -0.000          -0.000
 -26902014.832 9 -20256324.49949  20556076.559    20556077.0244   20556082.4264
        -0.000          -0.000
 -23732833.676 9 -18104014.19048  21154212.887    21154212.6534   21154219.2904
        -0.000          -0.000
 -21957193.903 9 -17092647.30148  21799813.787    21799813.8934   21799820.1174
        -0.000          -0.000
 -24136151.209 9 -17572408.91148  20994319.723    20994319.1854   20994325.4374
        -0.000          -0.000
 99  2 18  2 12  0.0000000  0  7 24  8 17 30  5  6 10               -0.000000025
 -17218715.730 9 -11351653.76647  22188145.559    22188145.5574   22188152.2224
        -0.000          -0.000
  -4271397.948 8  -3042081.64945  24474130.122    24474129.7044   24474139.9004
        -0.000          -0.000
 -11377937.250 9  -8844217.62446  23954833.348    23954832.9554   23954842.1294
        -0.000          -0.000
 -26907261.429 9 -20260412.73549  20555078.145    20555078.6154   20555084.0184
        -0.000          -0.000
 -23662720.394 9 -18049380.45748  21167555.004    21167554.7574   21167561.4094
        -0.000          -0.000
 -22017759.032 9 -17139840.86048  21788288.549    21788288.6924   21788294.8714
        -0.000          -0.000
 -24119087.929 9 -17559112.82448  20997566.721    20997566.1974   20997572.4504
        -0.000          -0.000
 99  2 18  2 12 30.0000000  0  7 24  8 17 30  5  6 10               -0.000000037
 -17148849.847 9 -11297212.79547  22201440.509    22201440.5524   22201447.2134
        -0.000          -0.000
  -4185322.919 8  -2975010.19545  24490509.702    24490509.1944   24490519.5084
        -0.000          -0.000
 -11456745.215 9  -8905626.24646  23939836.486    23939836.0874   23939845.2724
        -0.000          -0.000
 -26911899.213 9 -20264026.57649  20554195.562    20554196.0364   20554201.4404
        -0.000          -0.000
 -23592193.295 9 -17994424.25848  21180975.870    21180975.6164   21180982.2504
        -0.000          -0.000
 -22078220.283 9 -17186953.48148  21776783.102    21776783.2374   21776789.4094
        -0.000          -0.000
 -24101401.078 9 -17545330.83948  21000932.406    21000931.8874   21000938.1274
        -0.000          -0.000
 99  2 18  2 13  0.0000000  0  7 24  8 17 30  5  6 10               -0.000000044
 -17078887.635 9 -11242696.77447  22214753.923    22214753.9664   22214760.5764
        -0.000          -0.000
  -4099303.405 8  -2907982.00445  24506878.663    24506878.2424   24506888.4934
        -0.000          -0.000
 -11535388.971 9  -8966906.92045  23924870.857    23924870.4274   23924879.5644
        -0.000          -0.000
 -26915916.929 9 -20267157.25549  20553431.019    20553431.4954   20553436.8954
        -0.000          -0.000
 -23521261.594 9 -17939152.78448  21194473.714    21194473.4714   21194480.0734
        -0.000          -0.000
 -22138569.151 9 -17233978.53848  21765299.080    21765299.1974   21765305.3884
        -0.000          -0.000
 -24083102.768 9 -17531072.39648  21004414.473    21004413.9474   21004420.1814
        -0.000          -0.000
 99  2 18  2 13 30.0000000  0  7 24  8 17 30  5  6 10               -0.000000035
 -17008821.839 9 -11188100.03247  22228087.007    22228087.0564   22228093.5994
        -0.000          -0.000
  -4013320.258 8  -2840982.14345  24523240.674    24523240.1644   24523250.5574
        -0.000          -0.000
 -11613865.086 9  -9028056.96846  23909937.201    23909936.8164   23909945.8594
        -0.000          -0.000
 -26919316.194 9 -20269806.01449  20552784.124    20552784.5934   20552790.0104
        -0.000          -0.000
 -23449914.758 9 -17883557.83948  21208050.565    21208050.3024   21208056.8994
        -0.000          -0.000
 -22198791.709 9 -17280905.16848  21753839.018    21753839.1514   21753845.3494
        -0.000          -0.000
 -24064205.124 9 -17516346.93548  21008010.532    21008010.0074   21008016.2574
        -0.000          -0.000
 99  2 18  2 14  0.0000000  0  7 24  8 17 30  5  6 10               -0.000000020
 -16938671.759 9 -11133437.61747  22241436.076    22241436.1144   22241442.6734
        -0.000          -0.000
  -3927391.027 8  -2774024.29645  24539592.507    24539592.0744   24539602.2444
        -0.000          -0.000
 -11692173.967 9  -9089076.71146  23895035.368    23895035.0224   23895043.9904
        -0.000          -0.000
 -26922107.015 9 -20271980.66849  20552253.064    20552253.5514   20552258.9484
        -0.000          -0.000
 -23378158.073 9 -17827643.54048  21221705.412    21221705.1594   21221711.7444
        -0.000          -0.000
 -22258897.793 9 -17327741.04548  21742401.186    21742401.3194   21742407.4704
        -0.000          -0.000
 -24044718.102 9 -17501162.22848  21011718.796    21011718.2504   21011724.4984
        -0.000          -0.000
 99  2 18  2 14 30.0000000  0  6 24 17 30  5  6 10                  -0.000000165
 -16868384.560 9 -11078668.35247  22254811.232    22254811.2854   22254817.8474
        -0.000          -0.000
 -11770222.884 9  -9149893.88946  23880183.004    23880182.6444   23880191.6854
        -0.000          -0.000
 -26924224.797 9 -20273630.87249  20551850.036    20551850.5104   20551855.9214
        -0.000          -0.000
 -23305925.805 9 -17771358.65548  21235450.735    21235450.5034   21235457.0644
        -0.000          -0.000
 -22318804.979 9 -17374421.92948  21731001.275    21731001.3714   21731007.4964
        -0.000          -0.000
 -24024566.986 9 -17485460.03648  21015553.385    21015552.8364   21015559.0814
        -0.000          -0.000
 99  2 18  2 15  0.0000000  0  6 24 17 30  5  6 10                  -0.000000143
 -16798027.497 9 -11023844.65747  22268199.718    22268199.7664   22268206.3854
        -0.000          -0.000
 -11848050.125 9  -9210538.33946  23865372.867    23865372.5074   23865381.4474
        -0.000          -0.000
 -26925750.253 9 -20274819.53049  20551559.718    20551560.2114   20551565.6144
        -0.000          -0.000
 -23233279.968 9 -17714751.50548  21249274.768    21249274.5334   21249281.0934
        -0.000          -0.000
 -22378574.824 9 -17420995.79848  21719627.412    21719627.5254   21719633.5914
        -0.000          -0.000
 -24003816.854 9 -17469291.08548  21019501.952    21019501.4124   21019507.6554
        -0.000          -0.000
 99  2 18  2 15 30.0000000  0  6 24 17 30  5  6 10                  -0.000000123
 -16727680.473 9 -10969028.78047  22281586.254    22281586.3194   22281592.9784
        -0.000          -0.000
 -11925707.492 9  -9271050.41346  23850594.991    23850594.6874   23850603.5794
        -0.000          -0.000
 -26926764.120 9 -20275609.54249  20551366.763    20551367.2454   20551372.6454
        -0.000          -0.000
 -23160287.900 9 -17657874.56748  21263164.686    21263164.4574   21263171.0294
        -0.000          -0.000
 -22438291.196 9 -17467527.99748  21708263.721    21708263.8324   21708269.9114
        -0.000          -0.000
 -23982529.473 9 -17452703.49448  21023552.763    21023552.2284   21023558.4764
        -0.000          -0.000
 99  2 18  2 16  0.0000000  0  6 24 17 30  5  6 10                  -0.000000102
 -16657343.273 9 -10914220.55847  22294970.937    22294970.9934   22294977.6424
        -0.000          -0.000
 -12003184.466 9  -9331421.93946  23835851.495    23835851.1744   23835860.0424
        -0.000          -0.000
 -26927253.288 9 -20275990.69949  20551273.680    20551274.1694   20551279.5614
        -0.000          -0.000
 -23086942.731 9 -17600722.48348  21277121.807    21277121.5754   21277128.1224
        -0.000          -0.000
 -22497956.470 9 -17514020.37648  21696909.766    21696909.8824   21696916.0094
        -0.000          -0.000
 -23960690.752 9 -17435686.28048  21027708.546    21027708.0114   21027714.2524
        -0.000          -0.000
 99  2 18  2 16 30.0000000  0  6 24 17 30  5  6 10                  -0.000000088
 -16586997.991 9 -10859406.03247  22308357.173    22308357.2564   22308363.9224
        -0.000          -0.000
 -12080496.010 9  -9391664.55646  23821139.489    23821139.1694   23821147.9624
        -0.000          -0.000
 -26927208.716 9 -20275955.95549  20551282.181    20551282.6734   20551288.0454
        -0.000          -0.000
 -23013234.865 9 -17543287.78848  21291147.945    21291147.7154   21291154.2534
        -0.000          -0.000
 -22557574.181 9 -17560475.69848  21685564.838    21685564.9764   21685571.0254
        -0.000          -0.000
 -23938299.405 9 -17418238.44648  21031969.450    21031968.9214   21031975.1424
        -0.000          -0.000
 99  2 18  2 17  0.0000000  0  6 24 17 30  5  6 10                  -0.000000076
 -16516607.094 9 -10804555.97347  22321752.088    22321752.2024   22321758.8544
        -0.000          -0.000
 -12157655.005 9  -9451788.30646  23806456.534    23806456.2144   23806464.9594
        -0.000          -0.000
 -26926609.316 9 -20275488.88549  20551396.231    20551396.6944   20551402.0764
        -0.000          -0.000
 -22939144.519 9 -17485555.05448  21305246.888    21305246.6354   21305253.1954
        -0.000          -0.000
 -22617153.343 9 -17606900.98048  21674227.315    21674227.4354   21674233.4694
        -0.000          -0.000
 -23915341.129 9 -17400348.85248  21036338.262    21036337.7164   21036343.9144
        -0.000          -0.000
 99  2 18  2 17 30.0000000  0  6 24 17 30  5  6 10                  -0.000000079
 -16446135.146 9 -10749642.74747  22335162.468    22335162.5694   22335169.1714
        -0.000          -0.000
 -12234653.374 9  -9511786.90846  23791804.075    23791803.7674   23791812.5194
        -0.000          -0.000
 -26925395.130 9 -20274542.75149  20551627.276    20551627.7544   20551633.1314
        -0.000          -0.000
 -22864650.826 9 -17427508.00848  21319422.569    21319422.3314   21319428.8734
        -0.000          -0.000
 -22676665.098 9 -17653273.72548  21662902.582    21662902.6754   21662908.7164
        -0.000          -0.000
 -23891783.540 9 -17381992.25148  21040821.140    21040820.5934   21040826.7644
        -0.000          -0.000
 99  2 18  2 18  0.0000000  0  6 24 17 30  5  6 10                  -0.000000083
 -16375540.119 9 -10694633.62047  22348596.242    22348596.3394   22348602.9564
        -0.000          -0.000
 -12311470.308 9  -9571644.13646  23777186.274    23777185.9674   23777194.5794
        -0.000          -0.000
 -26923526.779 9 -20273086.88649  20551982.783    20551983.2884   20551988.6614
        -0.000          -0.000
 -22789741.653 9 -17369137.22048  21333677.297    21333677.0534   21333683.6064
        -0.000          -0.000
 -22736072.694 9 -17699565.31548  21651597.625    21651597.7214   21651603.7604
        -0.000          -0.000
 -23867609.407 9 -17363155.23248  21045421.286    21045420.7494   21045426.9124
        -0.000          -0.000
 99  2 18  2 18 30.0000000  0  6 24 17 30  5  6 10                  -0.000000078
 -16304814.654 9 -10639522.84647  22362054.796    22362054.9024   22362061.5464
        -0.000          -0.000
 -12388094.388 9  -9631351.08746  23762605.090    23762604.8314   23762613.3644
        -0.000          -0.000
 -26921001.788 9 -20271119.35249  20552463.280    20552463.7464   20552469.1274
        -0.000          -0.000
 -22714407.957 9 -17310435.61148  21348012.812    21348012.5594   21348019.1264
        -0.000          -0.000
 -22795365.021 9 -17745767.08748  21640314.652    21640314.7724   21640320.7794
        -0.000          -0.000
 -23842816.699 9 -17343836.20748  21050139.195    21050138.6324   21050144.7974
        -0.000          -0.000
 99  2 18  2 19  0.0000000  0  6 24 17 30  5  6 10                  -0.000000056
 -16233988.681 9 -10584333.75047  22375532.538    22375532.6114   22375539.2644
        -0.000          -0.000
 -12464502.375 9  -9690889.65546  23748065.039    23748064.8074   23748073.2584
        -0.000          -0.000
 -26917833.593 9 -20268650.61749  20553066.142    20553066.6284   20553072.0054
        -0.000          -0.000
 -22638664.128 9 -17251414.43148  21362426.379    21362426.1204   21362432.6944
        -0.000          -0.000
 -22854535.861 9 -17791874.18748  21629054.797    21629054.9074   21629060.9334
        -0.000          -0.000
 -23817413.918 9 -17324041.79248  21054973.155    21054972.6064   21054978.7404
        -0.000          -0.000
 99  2 18  2 19 30.0000000  0  6 24 17 30  5  6 10                  -0.000000020
 -16163106.077 9 -10529100.51847  22389021.061    22389021.1534   22389027.7134
        -0.000          -0.000
 -12540685.660 9  -9750253.14246  23733567.771    23733567.4934   23733575.8974
        -0.000          -0.000
 -26914049.412 9 -20265701.89649  20553786.239    20553786.7304   20553792.0974
        -0.000          -0.000
 -22562524.352 9 -17192084.72048  21376915.267    21376915.0304   21376921.5644
        -0.000          -0.000
 -22913579.174 9 -17837881.92048  21617819.216    21617819.3154   21617825.3214
        -0.000          -0.000
 -23791419.479 9 -17303786.34948  21059919.649    21059919.1214   21059925.2334
        -0.000          -0.000
 99  2 18  2 20  0.0000000  0  6 24 17 30  5  6 10                   0.000000028
 -16092198.459 9 -10473847.79847  22402514.382    22402514.4124   22402521.0004
        -0.000          -0.000
 -12616660.678 9  -9809454.34146  23719110.106    23719109.8324   23719118.2124
        -0.000          -0.000
 -26909696.587 9 -20262310.07749  20554614.560    20554615.0564   20554620.4214
        -0.000          -0.000
 -22486000.172 9 -17132455.48648  21391477.334    21391477.0894   21391483.6444
        -0.000          -0.000
 -22972503.907 9 -17883797.25248  21606606.219    21606606.3284   21606612.2514
        -0.000          -0.000
 -23764850.528 9 -17283083.24048  21064975.502    21064974.9814   21064981.0794
        -0.000          -0.000
 99  2 18  2 20 30.0000000  0  6 24 17 30  5  6 10                   0.000000058
 -16021313.792 9 -10418612.96747  22416003.243    22416003.3544   22416009.9114
        -0.000          -0.000
 -12692458.086 9  -9868517.15446  23704686.280    23704685.9984   23704694.3584
        -0.000          -0.000
 -26904806.738 9 -20258499.79549  20555545.042    20555545.5224   20555550.8974
        -0.000          -0.000
 -22409099.151 9 -17072532.61748  21406111.146    21406110.8784   21406117.4444
        -0.000          -0.000
 -23031330.830 9 -17929636.37648  21595411.783    21595411.8784   21595417.8254
        -0.000          -0.000
 -23737713.228 9 -17261937.25648  21070139.565    21070139.0464   21070145.1314
        -0.000          -0.000
 99  2 18  2 21  0.0000000  0  6 24 17 30  5  6 10                   0.000000067
 -15950420.857 9 -10363371.69447  22429493.822    22429493.8644   22429500.3484
        -0.000          -0.000
 -12768075.861 9  -9927439.98446  23690296.605    23690296.3204   23690304.6724
        -0.000          -0.000
 -26899345.623 9 -20254244.37549  20556584.237    20556584.7234   20556590.0904
        -0.000          -0.000
 -22331805.681 9 -17012303.94948  21420819.558    21420819.3154   21420825.8594
        -0.000          -0.000
 -23090029.453 9 -17975375.52148  21584241.746    21584241.8704   21584247.8064
        -0.000          -0.000
 -23709981.222 9 -17240327.87348  21075416.752    21075416.2234   21075422.3064
        -0.000          -0.000
 99  2 18  2 21 30.0000000  0  6 24 17 30  5  6 10                   0.000000060
 -15879474.880 9 -10308089.10247  22442994.322    22442994.4184   22443000.8824
        -0.000          -0.000
 -12843516.462 9  -9986224.76046  23675940.673    23675940.3784   23675948.6974
        -0.000          -0.000
 -26893290.321 9 -20249525.94849  20557736.534    20557737.0254   20557742.3874
        -0.000          -0.000
 -22254102.120 9 -16951755.72048  21435606.054    21435605.8094   21435612.3874
        -0.000          -0.000
 -23148578.653 9 -18020998.23648  21573100.194    21573100.3134   21573106.2594
        -0.000          -0.000
 -23681634.163 9 -17218239.23148  21080810.988    21080810.4494   21080816.5494
        -0.000          -0.000
 99  2 18  2 22  0.0000000  0  6 24 17 30  5  6 10                   0.000000041
 -15808444.783 9 -10252740.94847  22456510.907    22456510.9914   22456517.4784
        -0.000          -0.000
 -12918777.079 9 -10044869.28846  23661618.991    23661618.7024   23661627.0164
        -0.000          -0.000
 -26886608.058 9 -20244318.97649  20559008.129    20559008.6244   20559013.9774
        -0.000          -0.000
 -22175984.117 9 -16890884.54248  21450471.414    21450471.1584   21450477.7394
        -0.000          -0.000
 -23206966.014 9 -18066494.83448  21561989.410    21561989.5154   21561995.4654
        -0.000          -0.000
 -23652666.606 9 -17195667.08448  21086323.295    21086322.7634   21086328.8404
        -0.000          -0.000
 99  2 18  2 22 30.0000000  0  6 24 17 30  5  6 10                   0.000000012
 -15737316.298 9 -10197316.13247  22470046.141    22470046.2414   22470052.7224
        -0.000          -0.000
 -12993844.283 9 -10103363.10646  23647334.039    23647333.7524   23647342.0344
        -0.000          -0.000
 -26879275.968 9 -20238605.64849  20560403.398    20560403.8884   20560409.2644
        -0.000          -0.000
 -22097444.545 9 -16829684.88048  21465417.011    21465416.7614   21465423.3494
        -0.000          -0.000
 -23265184.694 9 -18111860.00848  21550910.749    21550910.8654   21550916.7384
        -0.000          -0.000
 -23623094.705 9 -17172624.02348  21091950.640    21091950.0974   21091956.1884
        -0.000          -0.000
 99  2 18  2 23  0.0000000  0  6 24 17 30  5  6 10                  -0.000000000
 -15666075.808 9 -10141804.04047  22483602.724    22483602.8164   22483609.3124
        -0.000          -0.000
 -13068711.607 9 -10161701.17246  23633087.207    23633086.9154   23633095.1434
        -0.000          -0.000
 -26871302.440 9 -20232392.50649  20561920.689    20561921.1784   20561926.5414
        -0.000          -0.000
 -22018499.873 9 -16768169.55548  21480439.697    21480439.4314   21480446.0284
        -0.000          -0.000
 -23323248.753 9 -18157104.68548  21539861.447    21539861.5844   21539867.5014
        -0.000          -0.000
 -23592948.045 9 -17149133.10348  21097687.297    21097686.7754   21097692.8634
        -0.000          -0.000
 99  2 18  2 23 30.0000000  0  6 24 17 30  5  6 10                  -0.000000002
 -15594769.546 9 -10086240.69847  22497171.815    22497171.9124   22497178.4394
        -0.000          -0.000
 -13143392.620 9 -10219894.06346  23618875.783    23618875.4934   23618883.7154
        -0.000          -0.000
 -26862732.696 9 -20225714.78449  20563551.440    20563551.9394   20563557.3024
        -0.000          -0.000
 -21939174.157 9 -16706357.30348  21495534.863    21495534.6014   21495541.2004
        -0.000          -0.000
 -23381193.635 9 -18202256.50248  21528834.847    21528835.0184   21528840.8974
        -0.000          -0.000
 -23562261.707 9 -17125221.65248  21103526.713    21103526.1834   21103532.2674
        -0.000          -0.000
 99  2 18  2 24  0.0000000  0  6 24 17 30  5  6 10                  -0.000000003
 -15523428.654 9 -10030650.36747  22510747.567    22510747.6344   22510754.1384
        -0.000          -0.000
 -13217893.368 9 -10277946.48246  23604698.705    23604698.4084   23604706.5754
        -0.000          -0.000
 -26853581.334 9 -20218583.85249  20565292.878    20565293.3844   20565298.7374
        -0.000          -0.000
 -21859480.286 9 -16644258.17348  21510700.088    21510699.8624   21510706.4824
        -0.000          -0.000
 -23439032.805 9 -18247325.95348  21517828.422    21517828.5574   21517834.4274
        -0.000          -0.000
 -23531055.805 9 -17100905.34548  21109465.000    21109464.4524   21109470.5404
        -0.000          -0.000
 99  2 18  2 24 30.0000000  0  6 24 17 30  5  6 10                   0.000000004
 -15452055.996 9  -9975035.28847  22524329.396    22524329.4124   22524335.9274
        -0.000          -0.000
 -13292206.313 9 -10335852.57246  23590557.340    23590557.0384   23590565.1984
        -0.000          -0.000
 -26843853.927 9 -20211004.04849  20567143.945    20567144.4424   20567149.8284
        -0.000          -0.000
 -21779426.885 9 -16581878.89448  21525933.702    21525933.4564   21525940.0754
        -0.000          -0.000
 -23496769.258 9 -18292315.36348  21506841.491    21506841.6334   21506847.5174
        -0.000          -0.000
 -23499311.284 9 -17076169.33948  21115505.739    21115505.2204   21115511.2704
        -0.000          -0.000
 99  2 18  2 25  0.0000000  0  6 24 17 30  5  6 10                   0.000000005
 -15380685.775 9  -9919422.10647  22537910.662    22537910.6994   22537917.1754
        -0.000          -0.000
 -13366344.315 9 -10393622.32746  23576449.277    23576448.9344   23576457.0934
        -0.000          -0.000
 -26833577.418 9 -20202996.36949  20569099.481    20569099.9784   20569105.3674
        -0.000          -0.000
 -21699043.163 9 -16519242.21948  21541230.223    21541229.9774   21541236.5984
        -0.000          -0.000
 -23554428.053 9 -18337244.26448  21495869.384    21495869.5094   21495875.3614
        -0.000          -0.000
 -23467010.789 9 -17051000.10448  21121652.315    21121651.8054   21121657.8664
        -0.000          -0.000
 99  2 18  2 25 30.0000000  0  6 24 17 30  5  6 10                   0.000000001
 -15309306.039 9  -9863801.51947  22551493.827    22551493.8064   22551500.2904
        -0.000          -0.000
 -13440276.583 9 -10451231.78446  23562380.370    23562380.0144   23562388.1124
        -0.000          -0.000
 -26822712.538 9 -20194530.22349  20571166.975    20571167.4874   20571172.8674
        -0.000          -0.000
 -21618307.895 9 -16456331.63348  21556593.653    21556593.3814   21556600.0044
        -0.000          -0.000
 -23611966.491 9 -18382079.38348  21484920.174    21484920.2894   21484926.1184
        -0.000          -0.000
 -23434113.390 9 -17025365.74548  21127912.463    21127911.9614   21127917.9954
        -0.000          -0.000
 99  2 18  2 26  0.0000000  0  6 24 17 30  5  6 10                  -0.000000011
 -15237892.673 9  -9808154.72547  22565083.235    22565083.3384   22565089.8214
        -0.000          -0.000
 -13513987.144 9 -10508668.47746  23548353.601    23548353.2644   23548361.3114
        -0.000          -0.000
 -26811223.481 9 -20185577.71049  20573353.247    20573353.7544   20573359.1314
        -0.000          -0.000
 -21537215.006 9 -16393142.39448  21572025.084    21572024.8384   21572031.4364
        -0.000          -0.000
 -23669361.284 9 -18426802.56248  21473998.301    21473998.4104   21474004.2684
        -0.000          -0.000
 -23400586.696 9 -16999241.03048  21134292.395    21134291.8744   21134297.8984
        -0.000          -0.000
 99  2 18  2 26 30.0000000  0  6 24 17 30  5  6 10                  -0.000000024
 -15166434.254 9  -9752472.81047  22578681.343    22578681.4144   22578687.8594
        -0.000          -0.000
 -13587463.516 9 -10565922.68246  23534371.420    23534371.0944   23534379.1324
        -0.000          -0.000
 -26799097.030 9 -20176128.52149  20575660.856    20575661.3564   20575666.7404
        -0.000          -0.000
 -21455750.606 9 -16329663.66448  21587527.217    21587526.9664   21587533.5804
        -0.000          -0.000
 -23726595.229 9 -18471400.40748  21463106.999    21463107.1004   21463112.9514
        -0.000          -0.000
 -23366411.573 9 -16972611.04348  21140795.672    21140795.1724   21140801.1744
        -0.000          -0.000
 99  2 18  2 27  0.0000000  0  6 24 17 30  5  6 10                  -0.000000032
 -15094926.580 9  -9696752.53147  22592288.669    22592288.7844   22592295.2754
        -0.000          -0.000
 -13660694.689 9 -10622985.82346  23520435.911    23520435.5714   23520443.6024
        -0.000          -0.000
 -26786323.148 9 -20166174.84149  20578091.634    20578092.1334   20578097.5144
        -0.000          -0.000
 -21373881.552 9 -16265869.61248  21603106.409    21603106.1714   21603112.7734
        -0.000          -0.000
 -23783647.096 9 -18515856.36748  21452250.363    21452250.4564   21452256.3234
        -0.000          -0.000
 -23331599.210 9 -16945484.49948  21147420.226    21147419.7164   21147425.7364
        -0.000          -0.000
 99  2 18  2 27 30.0000000  0  6 24 17 30  5  6 10                  -0.000000048
 -15023369.821 9  -9640993.99147  22605905.517    22605905.5884   22605912.0494
        -0.000          -0.000
 -13733706.783 9 -10679878.23846  23506542.050    23506541.6804   23506549.7384
        -0.000          -0.000
 -26772911.006 9 -20155723.82049  20580643.868    20580644.3764   20580649.7544
        -0.000          -0.000
 -21291627.501 9 -16201775.54548  21618758.836    21618758.5954   21618765.2344
        -0.000          -0.000
 -23840520.396 9 -18560173.19748  21441427.699    21441427.7994   21441433.6484
        -0.000          -0.000
 -23296191.633 9 -16917894.15248  21154158.047    21154157.5424   21154163.5604
        -0.000          -0.000
 99  2 18  2 28  0.0000000  0  6 24 17 30  5  6 10                  -0.000000055
 -14951745.355 9  -9585182.71647  22619535.188    22619535.2224   22619541.7244
        -0.000          -0.000
 -13806498.025 9 -10736598.57646  23492690.206    23492689.8494   23492697.9044
        -0.000          -0.000
 -26758862.310 9 -20144776.78649  20583317.214    20583317.7064   20583323.0994
        -0.000          -0.000
 -21208972.469 9 -16137369.02348  21634487.570    21634487.3064   21634493.9454
        -0.000          -0.000
 -23897214.317 9 -18604350.24548  21430639.204    21430639.3074   21430645.1424
        -0.000          -0.000
 -23260192.646 9 -16889842.97248  21161008.407    21161007.9094   21161013.9064
        -0.000          -0.000
 99  2 18  2 28 30.0000000  0  6 24 17 30  5  6 10                  -0.000000051
 -14880068.130 9  -9529330.30747  22633174.851    22633174.9194   22633181.3944
        -0.000          -0.000
 -13879092.204 9 -10793165.34246  23478875.880    23478875.5534   23478883.5274
        -0.000          -0.000
 -26744211.950 9 -20133360.91949  20586105.111    20586105.5964   20586110.9924
        -0.000          -0.000
 -21125940.602 9 -16072668.85048  21650288.002    21650287.7684   21650294.4154
        -0.000          -0.000
 -23953755.697 9 -18648408.42648  21419879.660    21419879.7664   21419885.6234
        -0.000          -0.000
 -23223660.018 9 -16861375.96048  21167960.328    21167959.8064   21167965.8064
        -0.000          -0.000
 99  2 18  2 29  0.0000000  0  6 24 17 30  5  6 10                  -0.000000037
 -14808343.164 9  -9473440.70447  22646823.704    22646823.7414   22646830.1994
        -0.000          -0.000
 -13951503.215 9 -10849589.39046  23465096.422    23465096.0734   23465104.0664
        -0.000          -0.000
 -26728972.537 9 -20121486.05449  20589005.051    20589005.5484   20589010.9234
        -0.000          -0.000
 -21042557.959 9 -16007695.36048  21666155.201    21666154.9434   21666161.6094
        -0.000          -0.000
 -24010166.168 9 -18692364.60548  21409145.084    21409145.2074   21409151.0854
        -0.000          -0.000
 -23186612.653 9 -16832507.86348  21175010.204    21175009.6764   21175015.6734
        -0.000          -0.000
 99  2 18  2 29 30.0000000  0  6 24 17 30  5  6 10                  -0.000000018
 -14736590.353 9  -9417529.39547  22660477.847    22660477.9084   22660484.3214
        -0.000          -0.000
 -14023757.799 9 -10905891.54846  23451346.748    23451346.3914   23451354.3364
        -0.000          -0.000
 -26713184.505 9 -20109183.69549  20592009.406    20592009.9084   20592015.2744
        -0.000          -0.000
 -20958876.077 9 -15942488.69248  21682079.330    21682079.0794   21682085.6964
        -0.000          -0.000
 -24066483.593 9 -18736248.27348  21398428.207    21398428.3364   21398434.1784
        -0.000          -0.000
 -23149075.323 9 -16803257.97048  21182153.321    21182152.7914   21182158.8034
        -0.000          -0.000
 99  2 18  2 30  0.0000000  0  6 24 17 30  5  6 10                   0.000000012
 -14664817.092 9  -9361602.15147  22674135.828    22674135.8724   22674142.2374
        -0.000          -0.000
 -14095857.087 9 -10962072.69046  23437626.569    23437626.2894   23437634.1654
        -0.000          -0.000
 -26696862.424 9 -20096465.19249  20595115.408    20595115.9084   20595121.2734
        -0.000          -0.000
 -20874902.914 9 -15877055.06548  21698058.891    21698058.6274   21698065.2904
        -0.000          -0.000
 -24122723.522 9 -18780071.56048  21387726.084    21387726.1954   21387732.0174
        -0.000          -0.000
 -23111054.280 9 -16773631.16348  21189388.449    21189387.9224   21189393.9154
        -0.000          -0.000
 99  2 18  2 30 30.0000000  0  6 24 17 30  5  6 10                   0.000000040
 -14593032.157 9  -9305665.82547  22687795.978    22687796.0554   22687802.4314
        -0.000          -0.000
 -14167797.151 9 -11018129.76146  23423936.726    23423936.4374   23423944.2774
        -0.000          -0.000
 -26679995.541 9 -20083322.16949  20598325.085    20598325.5764   20598330.9234
        -0.000          -0.000
 -20790643.076 9 -15811398.04848  21714092.993    21714092.7464   21714099.3484
        -0.000          -0.000
 -24178870.573 9 -18823822.47748  21377041.569    21377041.7124   21377047.5344
        -0.000          -0.000
 -23072531.552 9 -16743613.43548  21196719.073    21196718.5474   21196724.5474
        -0.000          -0.000
 99  2 18  2 31  0.0000000  0  6 24 17 30  5  6 10                   0.000000061
 -14521239.273 9  -9249723.29847  22701457.686    22701457.7384   22701464.1094
        -0.000          -0.000
 -14239556.890 9 -11074046.32346  23410281.219    23410280.9004   23410288.6844
        -0.000          -0.000
 -26662568.786 9 -20069742.88749  20601641.261    20601641.7704   20601647.1114
        -0.000          -0.000
 -20706092.079 9 -15745514.16048  21730182.508    21730182.2584   21730188.9104
        -0.000          -0.000
 -24234894.125 9 -18867477.16848  21366380.633    21366380.7634   21366386.5614
        -0.000          -0.000
 -23033459.659 9 -16713167.79148  21204154.164    21204153.6504   21204159.6544
        -0.000          -0.000
 99  2 18  2 31 30.0000000  0  6 24 17 30  5  6 10                   0.000000069
 -14449435.106 9  -9193771.98647  22715121.488    22715121.5694   22715128.0024
        -0.000          -0.000
 -14311134.215 9 -11129820.74746  23396660.420    23396660.1004   23396667.8794
        -0.000          -0.000
 -26644579.924 9 -20055725.58949  20605064.443    20605064.9304   20605070.2924
        -0.000          -0.000
 -20621246.177 9 -15679400.46648  21746328.162    21746327.9204   21746334.5314
        -0.000          -0.000
 -24290771.306 9 -18911017.78848  21355747.550    21355747.6744   21355753.4514
        -0.000          -0.000
 -22993831.413 9 -16682288.61848  21211695.127    21211694.6094   21211700.6334
        -0.000          -0.000
 99  2 18  2 32  0.0000000  0  6 24 17 30  5  6 10                   0.000000052
 -14377605.714 9  -9137801.01147  22728790.156    22728790.1964   22728796.6734
        -0.000          -0.000
 -14382511.276 9 -11185439.13046  23383077.788    23383077.4034   23383085.1584
        -0.000          -0.000
 -26625977.746 9 -20041230.38949  20608604.328    20608604.8304   20608610.1684
        -0.000          -0.000
 -20536068.714 9 -15613028.40948  21762536.917    21762536.6694   21762543.2554
        -0.000          -0.000
 -24346458.922 9 -18954410.70348  21345150.502    21345150.6204   21345156.4084
        -0.000          -0.000
 -22953611.293 9 -16650948.24848  21219348.790    21219348.2614   21219354.2734
        -0.000          -0.000
 99  2 18  2 32 30.0000000  0  6 24 17 30  5  6 10                   0.000000013
 -14305727.714 9  -9081792.17347  22742468.041    22742468.0674   22742474.6264
        -0.000          -0.000
 -14453660.608 9 -11240880.05846  23369538.407    23369538.0364   23369545.8054
        -0.000          -0.000
 -26606724.563 9 -20026227.90449  20612268.102    20612268.6034   20612273.9614
        -0.000          -0.000
 -20450520.402 9 -15546367.39648  21778816.199    21778815.9594   21778822.5774
        -0.000          -0.000
 -24401908.505 9 -18997618.13348  21334598.791    21334598.9144   21334604.6914
        -0.000          -0.000
 -22912756.479 9 -16619113.30948  21227123.194    21227122.6594   21227128.6664
        -0.000          -0.000
 99  2 18  2 33  0.0000000  0  6 24 17 30  5  6 10                  -0.000000013
 -14233776.052 9  -9025725.92347  22756159.998    22756160.0084   22756166.5544
        -0.000          -0.000
 -14524565.476 9 -11296130.50946  23356045.603    23356045.2064   23356052.9314
        -0.000          -0.000
 -26586821.462 9 -20010718.99049  20616055.551    20616056.0414   20616061.4134
        -0.000          -0.000
 -20364581.383 9 -15479401.90748  21795169.878    21795169.6384   21795176.1904
        -0.000          -0.000
 -24457123.913 9 -19040643.09348  21324091.624    21324091.7584   21324097.4834
        -0.000          -0.000
 -22871268.488 9 -16586784.99248  21235018.066    21235017.5334   21235023.5364
        -0.000          -0.000
 99  2 18  2 33 30.0000000  0  6 24 17 30  5  6 10                  -0.000000039
 -14161772.740 9  -8969619.44147  22769861.808    22769861.8724   22769868.2534
        -0.000          -0.000
 -14595269.402 9 -11351224.39446  23342591.082    23342590.6514   23342598.2984
        -0.000          -0.000
 -26566297.687 9 -19994726.43549  20619961.079    20619961.5784   20619966.9494
        -0.000          -0.000
 -20278255.765 9 -15412135.18648  21811597.083    21811596.8564   21811603.4544
        -0.000          -0.000
 -24512152.900 9 -19083522.79548  21313619.937    21313620.0484   21313625.7964
        -0.000          -0.000
 -22829197.391 9 -16554002.30748  21243023.896    21243023.3814   21243029.3784
        -0.000          -0.000
 99  2 18  2 34  0.0000000  0  6 24 17 30  5  6 10                  -0.000000056
 -14089722.259 9  -8913476.18247  22783572.554    22783572.6114   22783578.9444
        -0.000          -0.000
 -14665765.231 9 -11406156.12446  23329176.076    23329175.6984   23329183.3094
        -0.000          -0.000
 -26545149.738 9 -19978247.50349  20623985.408    20623985.9024   20623991.2734
        -0.000          -0.000
 -20191541.448 9 -15344565.57848  21828098.300    21828098.0524   21828104.6454
        -0.000          -0.000
 -24567014.389 9 -19126271.96848  21303180.128    21303180.2354   21303185.9974
        -0.000          -0.000
 -22786553.815 9 -16520773.52648  21251138.675    21251138.1634   21251144.1754
        -0.000          -0.000
 99  2 18  2 34 30.0000000  0  6 24 17 30  5  6 10                  -0.000000056
 -14017644.409 9  -8857311.60947  22797288.502    22797288.5764   22797294.8824
        -0.000          -0.000
 -14736069.275 9 -11460938.40846  23315797.609    23315797.2494   23315804.7824
        -0.000          -0.000
 -26523426.383 9 -19961320.20849  20628119.231    20628119.7204   20628125.1194
        -0.000          -0.000
 -20104485.435 9 -15276729.71648  21844664.454    21844664.2344   21844670.8074
        -0.000          -0.000
 -24621742.023 9 -19168916.84948  21292765.791    21292765.8954   21292771.6184
        -0.000          -0.000
 -22743386.758 9 -16487136.84448  21259353.070    21259352.5564   21259358.5604
        -0.000          -0.000
 99  2 18  2 35  0.0000000  0  6 24 17 30  5  6 10                  -0.000000047
 -13945566.686 9  -8801147.13647  22811004.375    22811004.4414   22811010.7804
        -0.000          -0.000
 -14806203.174 9 -11515588.11746  23302451.523    23302451.1894   23302458.6314
        -0.000          -0.000
 -26501152.565 9 -19943963.98649  20632357.773    20632358.2564   20632363.6584
        -0.000          -0.000
 -20017118.787 9 -15208651.82248  21861289.773    21861289.5444   21861296.1534
        -0.000          -0.000
 -24676372.659 9 -19211486.13348  21282369.847    21282369.9724   21282375.7284
        -0.000          -0.000
 -22699734.137 9 -16453121.80148  21267659.871    21267659.3464   21267665.3594
        -0.000          -0.000
 99  2 18  2 35 30.0000000  0  6 24 17 30  5  6 10                  -0.000000046
 -13873487.904 9  -8744981.84847  22824720.421    22824720.5354   22824726.9084
        -0.000          -0.000
 -14876150.666 9 -11570092.57646  23289140.879    23289140.5844   23289148.0424
        -0.000          -0.000
 -26478296.011 9 -19926153.69349  20636707.237    20636707.7344   20636713.1154
        -0.000          -0.000
 -19929453.920 9 -15140341.55448  21877971.814    21877971.6154   21877978.1764
        -0.000          -0.000
 -24730877.409 9 -19253957.33848  21271997.941    21271998.0824   21272003.7844
        -0.000          -0.000
 -22655582.335 9 -16418717.78448  21276061.639    21276061.1194   21276067.1214
        -0.000          -0.000
 99  2 18  2 36  0.0000000  0  6 24 17 30  5  6 10                  -0.000000038
 -13801402.692 9  -8688811.53047  22838437.760    22838437.8394   22838444.2324
        -0.000          -0.000
 -14945884.706 9 -11624430.70946  23275870.888    23275870.5814   23275878.0324
        -0.000          -0.000
 -26454856.453 9 -19907889.11149  20641167.619    20641168.1074   20641173.5044
        -0.000          -0.000
 -19841513.992 9 -15071816.94748  21894706.275    21894706.0514   21894712.6294
        -0.000          -0.000
 -24785238.935 9 -19296316.94348  21261653.232    21261653.3644   21261659.0634
        -0.000          -0.000
 -22610918.744 9 -16383914.96448  21284560.854    21284560.3354   21284566.3604
        -0.000          -0.000
 99  2 18  2 36 30.0000000  0  6 24 17 30  5  6 10                  -0.000000029
 -13729303.489 9  -8632630.31547  22852157.706    22852157.8304   22852164.2014
        -0.000          -0.000
 -15015411.877 9 -11678607.65246  23262640.207    23262639.9104   23262647.3554
        -0.000          -0.000
 -26430835.391 9 -19889171.41149  20645738.674    20645739.1724   20645744.5634
        -0.000          -0.000
 -19753289.779 9 -15003070.83348  21911494.751    21911494.4984   21911501.1884
        -0.000          -0.000
 -24839435.742 9 -19338548.19048  21251339.931    21251340.0734   21251345.7474
        -0.000          -0.000
 -22565726.565 9 -16348700.26548  21293160.614    21293160.0824   21293166.0964
        -0.000          -0.000
 99  2 18  2 37  0.0000000  0  6 24 17 30  5  6 10                  -0.000000027
 -13657188.979 9  -8576437.17747  22865880.654    22865880.7904   22865887.1284
        -0.000          -0.000
 -15084736.287 9 -11732626.60046  23249448.137    23249447.8134   23249455.3244
        -0.000          -0.000
 -26406224.845 9 -19869994.37249  20650421.907    20650422.4004   20650427.7814
        -0.000          -0.000
 -19664770.969 9 -14934095.13048  21928339.387    21928339.1274   21928345.7264
        -0.000          -0.000
 -24893462.772 9 -19380647.13148  21241058.939    21241059.0514   21241064.7114
        -0.000          -0.000
 -22519982.710 9 -16313055.68248  21301865.389    21301864.8564   21301870.8894
        -0.000          -0.000
 99  2 18  2 37 30.0000000  0  6 24 17 30  5  6 10                  -0.000000030
 -13585053.610 9  -8520227.78347  22879607.651    22879607.6774   22879614.0374
        -0.000          -0.000
 -15153856.697 9 -11786486.58247  23236294.863    23236294.5484   23236302.0394
        -0.000          -0.000
 -26381026.035 9 -19850358.94549  20655217.054    20655217.5704   20655222.9474
        -0.000          -0.000
 -19575965.773 9 -14864896.28548  21945238.422    21945238.1684   21945244.8304
        -0.000          -0.000
 -24947308.761 9 -19422605.00148  21230812.369    21230812.4744   21230818.1354
        -0.000          -0.000
 -22473685.486 9 -16276979.90448  21310675.449    21310674.9374   21310680.9404
        -0.000          -0.000
 99  2 18  2 38  0.0000000  0  6 24 17 30  5  6 10                  -0.000000031
 -13512885.982 9  -8463993.25947  22893340.518    22893340.6304   22893347.0314
        -0.000          -0.000
 -15222788.379 9 -11840199.51647  23223177.514    23223177.2094   23223184.7454
        -0.000          -0.000
 -26355255.485 9 -19830278.00549  20660121.049    20660121.5554   20660126.8994
        -0.000          -0.000
 -19486848.569 9 -14795454.30548  21962196.901    21962196.6384   21962203.2514
        -0.000          -0.000
 -25000973.549 9 -19464421.68548  21220600.253    21220600.3644   21220606.0284
        -0.000          -0.000
 -22426836.988 9 -16240474.56748  21319590.399    21319589.8754   21319595.8844
        -0.000          -0.000
 99  2 18  2 38 30.0000000  0  6 24 17 30  5  6 10                  -0.000000045
 -13440702.531 9  -8407746.41247  22907076.715    22907076.7614   22907083.1474
        -0.000          -0.000
 -15291549.068 9 -11893779.20647  23210092.744    23210092.4474   23210100.0064
        -0.000          -0.000
 -26328916.143 9 -19809753.85249  20665133.280    20665133.7664   20665139.1124
        -0.000          -0.000
 -19397423.917 9 -14725772.76148  21979213.833    21979213.5674   21979220.1634
        -0.000          -0.000
 -25054459.422 9 -19506098.96948  21210422.219    21210422.3404   21210427.9634
        -0.000          -0.000
 -22379453.403 9 -16203552.27348  21328607.186    21328606.6634   21328612.6794
        -0.000          -0.000
 99  2 18  2 39  0.0000000  0  6 24 17 30  5  6 10                  -0.000000056
 -13368498.169 9  -8351483.26747  22920816.700    22920816.7294   22920823.1504
        -0.000          -0.000
 -15360103.397 9 -11947198.09047  23197047.234    23197046.9094   23197054.4104
        -0.000          -0.000
 -26301993.562 9 -19788775.21849  20670256.453    20670256.9394   20670262.2844
        -0.000          -0.000
 -19307678.018 9 -14655840.89148  21996291.920    21996291.6644   21996298.2704
        -0.000          -0.000
 -25107749.314 9 -19547623.52648  21200281.454    21200281.5614   21200287.2134
        -0.000          -0.000
 -22331520.648 9 -16166202.05448  21337728.475    21337727.9684   21337733.9524
        -0.000          -0.000
 99  2 18  2 39 30.0000000  0  6 24 17 30  5  6 10                  -0.000000055
 -13296281.266 9  -8295210.33647  22934559.162    22934559.2254   22934565.5684
        -0.000          -0.000
 -15428453.785 9 -12000458.07047  23184040.559    23184040.2334   23184047.7054
        -0.000          -0.000
 -26274503.271 9 -19767354.21449  20675487.703    20675488.1874   20675493.5194
        -0.000          -0.000
 -19217620.394 9 -14585666.14547  22013429.265    22013428.9904   22013435.6484
        -0.000          -0.000
 -25160860.626 9 -19589008.92748  21190174.652    21190174.7974   21190180.4104
        -0.000          -0.000
 -22283071.429 9 -16128449.40148  21346948.053    21346947.5364   21346953.5214
        -0.000          -0.000
 99  2 18  2 40  0.0000000  0  6 24 17 30  5  6 10                  -0.000000051
 -13224068.284 9  -8238940.47247  22948300.844    22948300.8824   22948307.2724
        -0.000          -0.000
 -15496622.147 9 -12053576.21147  23171068.464    23171068.1534   23171075.6114
        -0.000          -0.000
 -26246467.940 9 -19745508.49949  20680822.683    20680823.1644   20680828.4944
        -0.000          -0.000
 -19127276.689 9 -14515268.46747  22030621.155    22030620.8884   22030627.4624
        -0.000          -0.000
 -25213822.113 9 -19630277.58548  21180096.372    21180096.5144   21180102.1324
        -0.000          -0.000
 -22234124.277 9 -16090308.74748  21356262.363    21356261.8384   21356267.8174
        -0.000          -0.000
 99  2 18  2 40 30.0000000  0  6 24 17 30  5  6 10                  -0.000000051
 -13151864.189 9  -8182677.52147  22962040.827    22962040.8704   22962047.1984
        -0.000          -0.000
 -15564599.591 9 -12106545.58947  23158132.750    23158132.4084   23158139.8524
        -0.000          -0.000
 -26217875.379 9 -19723228.58049  20686263.651    20686264.1374   20686269.4744
        -0.000          -0.000
 -19036667.696 9 -14444664.06447  22047863.410    22047863.1424   22047869.8144
        -0.000          -0.000
 -25266635.841 9 -19671431.11348  21170046.270    21170046.3924   21170052.0204
        -0.000          -0.000
 -22184668.074 9 -16051771.42748  21365673.549    21365673.0424   21365679.0114
        -0.000          -0.000
 99  2 18  2 41  0.0000000  0  6 24 17 30  5  6 10                  -0.000000053
 -13079657.856 9  -8126412.81847  22975781.164    22975781.1974   22975787.5724
        -0.000          -0.000
 -15632399.971 9 -12159376.98847  23145230.737    23145230.4204   23145237.8684
        -0.000          -0.000
 -26188723.775 9 -19700513.04149  20691811.005    20691811.4974   20691816.8274
        -0.000          -0.000
 -18945794.402 9 -14373853.67247  22065156.072    22065155.8404   22065162.4144
        -0.000          -0.000
 -25319312.844 9 -19712478.09848  21160022.134    21160022.2424   21160027.8684
        -0.000          -0.000
 -22134714.228 9 -16012846.33248  21375179.451    21375178.9324   21375184.8804
        -0.000          -0.000
 99  2 18  2 41 30.0000000  0  6 24 17 30  5  6 10                  -0.000000045
 -13007413.753 9  -8070118.70947  22989528.691    22989528.7904   22989535.1354
        -0.000          -0.000
 -15700006.677 9 -12212057.45947  23132365.542    23132365.2274   23132372.6664
        -0.000          -0.000
 -26158976.194 9 -19677333.11549  20697471.779    20697472.2684   20697477.6124
        -0.000          -0.000
 -18854654.433 9 -14302835.48547  22082499.462    22082499.1744   22082505.7864
        -0.000          -0.000
 -25371836.258 9 -19753405.40048  21150027.221    21150027.3414   21150032.9804
        -0.000          -0.000
 -22084247.401 9 -15973521.52148  21384782.975    21384782.4534   21384788.3744
        -0.000          -0.000
 99  2 18  2 42  0.0000000  0  6 24 17 30  5  6 10                  -0.000000046
 -12935135.772 9  -8013798.19647  23003282.770    23003282.8394   23003289.1734
        -0.000          -0.000
 -15767410.318 9 -12264579.71947  23119538.980    23119538.6774   23119546.1154
        -0.000          -0.000
 -26128605.430 9 -19653667.59349  20703251.127    20703251.6274   20703256.9724
        -0.000          -0.000
 -18763244.878 9 -14231607.23147  22099894.095    22099893.8424   22099900.4604
        -0.000          -0.000
 -25424185.058 9 -19794196.64148  21140065.540    21140065.6774   21140071.2824
        -0.000          -0.000
 -22033253.530 9 -15933786.02048  21394486.806    21394486.2564   21394492.1764
        -0.000          -0.000
 99  2 18  2 42 30.0000000  0  6 24 17 30  5  6 10                  -0.000000042
 -12862822.911 9  -7957450.50447  23017043.421    23017043.5224   23017049.8794
        -0.000          -0.000
 -15834588.565 9 -12316926.34247  23106755.319    23106755.0164   23106762.4154
        -0.000          -0.000
 -26097600.905 9 -19629508.22949  20709151.075    20709151.5734   20709156.9444
        -0.000          -0.000
 -18671531.758 9 -14160142.44947  22117346.556    22117346.2604   22117352.7734
        -0.000          -0.000
 -25476327.017 9 -19834826.71448  21130143.253    21130143.3664   21130148.9824
        -0.000          -0.000
 -21981735.415 9 -15893642.02548  21404290.399    21404289.8484   21404295.7194
        -0.000          -0.000
 99  2 18  2 43  0.0000000  0  6 24 17 30  5  6 10                  -0.000000031
 -12790485.966 9  -7901084.04647  23030808.723    23030808.7734   23030815.1294
        -0.000          -0.000
 -15901545.668 9 -12369100.65147  23094013.761    23094013.3974   23094020.8354
        -0.000          -0.000
 -26065978.624 9 -19604867.49249  20715168.625    20715169.1174   20715174.5094
        -0.000          -0.000
 -18579527.766 9 -14088451.01647  22134854.244    22134854.0094   22134860.5874
        -0.000          -0.000
 -25528273.111 9 -19875304.16248  21120258.220    21120258.3304   21120263.9514
        -0.000          -0.000
 -21929715.328 9 -15853106.87948  21414189.469    21414188.9064   21414194.7654
        -0.000          -0.000
